[[{"header":{"parameterUnit":"m.s-1","parameterCategory":1,"la1":31.0,"la2":29.5877,"lo1":-88.7671,"lo2":-86.6584,"dy":0.0162,"dx":0.0185,"nx":115,"ny":88,"refTime":"2023-08-02T00:00:00:Z","depth":0,"parameterNumber":2,"parameterNumberName":"U-component_of_WINDS"},"data":[0.0,0.0,0.0,0.0,0.0,0.0,0.0,0.0,0.0,0.0,0.0,0.0,0.0,0.0,0.0,0.0,0.0,0.0,0.0,0.0,0.0,0.0,0.0,0.0,0.0,0.0,0.0,0.0,0.0,0.0,0.0,0.0,0.0,0.0,0.0,0.0,0.0,0.0,0.0,0.0,0.0,0.0,0.0,0.0,0.0,0.0,0.0,0.0,0.0,0.0,0.0,0.0,0.0,0.0,0.0,0.0,0.0,0.0,0.0,0.0,0.0,0.0,0.0,0.0,0.0,0.0,0.0,0.0,0.0,0.0,0.0,0.0,0.0,0.0,0.0,0.0,0.0,0.0,0.0,0.0,0.0,0.0,0.0,0.0,0.0,0.0,0.0,0.0,0.0,0.0,0.0,0.0,0.0,0.0,0.0,0.0,0.0,0.0,0.0,0.0,0.0,0.0,0.0,0.0,0.0,0.0,0.0,0.0,0.0,0.0,0.0,0.0,0.0,0.0,0.0,0.0,0.0,0.0,0.0,0.0,0.0,0.0,0.0,0.0,0.0,0.0,0.0,0.0,0.0,0.0,0.0,0.0,0.0,0.0,0.0,0.0,0.0,0.0,0.0,0.0,0.0,0.0,0.0,0.0,0.0,0.0,0.0,0.0,0.0,0.0,0.0,0.0,0.0,0.0,0.0,0.0,0.0,0.0,0.0,0.0,0.0,0.0,0.0,0.0,0.0,0.0,0.0,0.0,0.0,0.0,0.0,0.0,0.0,0.0,0.0,0.0,0.0,0.0,0.0,0.0,0.0,0.0,0.0,0.0,0.0,0.0,0.0,0.0,0.0,0.0,0.0,0.0,0.0,0.0,0.0,0.0,0.0,0.0,0.0,0.0,0.0,0.0,0.0,0.0,0.0,0.0,0.0,0.0,0.0,0.0,0.0,0.0,0.0,0.0,0.0,0.0,0.0,0.0,0.0,0.0,0.0,0.0,0.0,0.0,0.0,0.0,0.0,0.0,0.0,0.0,0.0,0.0,0.0,0.0,0.0,0.0,0.0,0.0,0.0,0.0,0.0,0.0,0.0,0.0,0.0,0.0,0.0,0.0,0.0,0.0,0.0,0.0,0.0,0.0,0.0,0.0,0.0,0.0,0.0,0.0,0.0,0.0,0.0,0.0,0.0,0.0,0.0,0.0,0.0,0.0,0.0,0.0,0.0,0.0,0.0,0.0,0.0,0.0,0.0,0.0,0.0,0.0,0.0,0.0,0.0,0.0,0.0,0.0,0.0,0.0,0.0,0.0,0.0,0.0,0.0,0.0,0.0,0.0,0.0,0.0,0.0,0.0,0.0,0.0,0.0,0.0,0.0,0.0,0.0,0.0,0.0,0.0,0.0,0.0,0.0,0.0,0.0,0.0,0.0,0.0,0.0,0.0,0.0,0.0,0.0,0.0,0.0,0.0,0.0,0.0,0.0,0.0,0.0,0.0,0.0,0.0,0.0,0.0,0.0,0.0,0.0,0.0,0.0,0.0,0.0,0.0,0.0,0.0,0.0,0.0,0.0,0.0,0.0,0.0,0.0,0.0,0.0,0.0,0.0,0.0,0.0,0.0,0.0,0.0,0.0,0.0,0.0,0.0,0.0,0.0,0.0,0.0,0.0,0.0,0.0,0.0,0.0,0.0,0.0,0.0,0.0,0.0,0.0,0.0,0.0,0.0,0.0,0.0,0.0,0.0,0.0,0.0,0.0,0.0,0.0,0.0,0.0,0.0,0.0,0.0,0.0,0.0,0.0,0.0,0.0,0.0,0.0,0.0,0.0,0.0,0.0,0.0,0.0,0.0,0.0,0.0,0.0,0.0,0.0,0.0,0.0,0.0,0.0,0.0,0.0,0.0,0.0,0.0,0.0,0.0,0.0,0.0,0.0,0.0,0.0,0.0,0.0,0.0,0.0,0.0,0.0,0.0,0.0,0.0,0.0,0.0,0.0,0.0,0.0,0.0,0.0,0.0,0.0,0.0,0.0,0.0,0.0,0.0,0.0,0.0,0.0,0.0,0.0,0.0,0.0,0.0,0.0,0.0,0.0,0.0,0.0,0.0,0.0,0.0,0.0,0.0,0.0,0.0,0.0,0.0,0.0,0.0,0.0,0.0,0.0,0.0,0.0,0.0,0.0,0.0,0.0,0.0,0.0,0.0,0.0,0.0,0.0,0.0,0.0,0.0,0.0,0.0,0.0,0.0,0.0,0.0,0.0,0.0,0.0,0.0,0.0,0.0,0.0,0.0,0.0,0.0,0.0,0.0,0.0,0.0,0.0,0.0,0.0,0.0,0.0,0.0,0.0,0.0,0.0,0.0,0.0,0.0,0.0,0.0,0.0,0.0,0.0,0.0,0.0,0.0,0.0,0.0,0.0,0.0,0.0,0.0,0.0,0.0,0.0,0.0,0.0,0.0,0.0,0.0,0.0,0.0,0.0,0.0,0.0,0.0,0.0,0.0,0.0,0.0,0.0,0.0,0.0,0.0,0.0,0.0,0.0,0.0,0.0,0.0,0.0,0.0,0.0,0.0,0.0,0.0,0.0,0.0,0.0,0.0,0.0,0.0,0.0,0.0,0.0,0.0,0.0,0.0,0.0,0.0,0.0,0.0,0.0,0.0,0.0,0.0,0.0,0.0,0.0,0.0,0.0,0.0,0.0,0.0,0.0,0.0,0.0,0.0,0.0,0.0,0.0,0.0,0.0,0.0,0.0,0.0,0.0,0.0,0.0,0.0,0.0,0.0,0.0,0.0,0.0,0.0,0.0,0.0,0.0,0.0,0.0,0.0,0.0,0.0,0.0,0.0,0.0,0.0,0.0,0.0,0.0,0.0,0.0,0.0,0.0,0.0,0.0,0.0,0.0,0.0,0.0,0.0,0.0,0.0,0.0,0.0,0.0,0.0,0.0,0.0,0.0,0.0,0.0,0.0,0.0,0.0,0.0,0.0,0.0,0.0,0.0,0.0,0.0,0.0,0.0,0.0,0.0,0.0,0.0,0.0,0.0,0.0,0.0,0.0,0.0,0.0,0.0,0.0,0.0,0.0,0.0,0.0,0.0,0.0,0.0,0.0,0.0,0.0,0.0,0.0,0.0,0.0,0.0,0.0,0.0,0.0,0.0,0.0,0.0,0.0,0.0,0.0,0.0,0.0,0.0,0.0,0.0,0.0,0.0,0.0,0.0,0.0,0.0,0.0,0.0,0.0,0.0,0.0,0.0,0.0,0.0,0.0,0.0,0.0,0.0,0.0,0.0,0.0,0.0,0.0,0.0,0.0,0.0,0.0,0.0,0.0,0.0,0.0,0.0,0.0,0.0,0.0,0.0,0.0,0.0,0.0,0.0,0.0,0.0,0.0,0.0,0.0,0.0,0.0,0.0,0.0,0.0,0.0,0.0,0.0,0.0,0.0,0.0,0.0,0.0,0.0,0.0,0.0,0.0,0.0,0.0,0.0,0.0,0.0,0.0,0.0,0.0,0.0,0.0,0.0,0.0,0.0,0.0,0.0,0.0,0.0,0.0,0.0,0.0,0.0,0.0,0.0,0.0,0.0,0.0,0.0,0.0,0.0,0.0,0.0,0.0,0.0,0.0,0.0,0.0,0.0,0.0,0.0,0.0,0.0,0.0,0.0,0.0,0.0,0.0,0.0,0.0,0.0,0.0,0.0,0.0,0.0,0.0,0.0,0.0,0.0,0.0,0.0,0.0,0.0,0.0,0.0,0.0,0.0,0.0,0.0,0.0,0.0,0.0,0.0,0.0,0.0,0.0,0.0,0.0,0.0,0.0,0.0,0.0,0.0,0.0,0.0,0.0,0.0,0.0,0.0,0.0,0.0,0.0,0.0,0.0,0.0,0.0,0.0,0.0,0.0,0.0,0.0,0.0,0.0,0.0,0.0,0.0,0.0,0.0,0.0,0.0,0.0,0.0,0.0,0.0,0.0,0.0,0.0,0.0,0.0,0.0,0.0,0.0,0.0,0.0,0.0,0.0,0.0,0.0,0.0,0.0,0.0,0.0,0.0,0.0,0.0,0.0,0.0,0.0,0.0,0.0,0.0,0.0,0.0,0.0,0.0,0.0,0.0,0.0,0.0,0.0,0.0,0.0,0.0,0.0,0.0,0.0,0.0,0.0,0.0,0.0,0.0,0.0,0.0,0.0,0.0,0.0,0.0,0.0,0.0,0.0,0.0,0.0,0.0,0.0,0.0,0.0,0.0,0.0,0.0,0.0,0.0,0.0,0.0,0.0,0.0,-2.8432,0.0,0.0,0.0,0.0,0.0,0.0,0.0,0.0,0.0,0.0,0.0,0.0,0.0,0.0,0.0,0.0,0.0,0.0,0.0,0.0,0.0,0.0,0.0,0.0,0.0,0.0,0.0,0.0,0.0,0.0,0.0,0.0,0.0,0.0,0.0,0.0,0.0,0.0,0.0,0.0,0.0,0.0,0.0,0.0,0.0,0.0,0.0,0.0,0.0,0.0,0.0,0.0,0.0,0.0,0.0,0.0,0.0,0.0,0.0,0.0,0.0,0.0,0.0,0.0,0.0,0.0,0.0,0.0,0.0,0.0,0.0,0.0,0.0,0.0,0.0,0.0,0.0,0.0,0.0,0.0,0.0,0.0,0.0,0.0,0.0,0.0,0.0,0.0,0.0,0.0,0.0,0.0,0.0,0.0,0.0,0.0,0.0,0.0,0.0,0.0,0.0,0.0,0.0,0.0,0.0,0.0,0.0,0.0,0.0,0.0,-2.7918,-2.7843,-2.7767,-2.7733,-2.7681,0.0,0.0,0.0,0.0,0.0,0.0,0.0,0.0,0.0,0.0,0.0,0.0,0.0,0.0,0.0,0.0,0.0,0.0,0.0,0.0,0.0,0.0,0.0,0.0,0.0,0.0,0.0,0.0,0.0,0.0,0.0,0.0,0.0,0.0,0.0,0.0,0.0,0.0,0.0,0.0,0.0,0.0,0.0,0.0,0.0,0.0,0.0,0.0,0.0,0.0,0.0,0.0,0.0,0.0,0.0,0.0,0.0,0.0,0.0,0.0,0.0,0.0,0.0,0.0,0.0,0.0,0.0,0.0,0.0,0.0,0.0,0.0,0.0,0.0,0.0,0.0,0.0,0.0,0.0,0.0,0.0,0.0,0.0,0.0,0.0,0.0,0.0,0.0,0.0,0.0,0.0,0.0,0.0,0.0,0.0,0.0,0.0,0.0,0.0,0.0,0.0,0.0,0.0,0.0,0.0,0.0,0.0,0.0,0.0,0.0,0.0,0.0,-2.7189,-2.7111,-2.7255,0.0,0.0,0.0,0.0,0.0,0.0,0.0,0.0,0.0,0.0,0.0,0.0,0.0,0.0,0.0,0.0,0.0,0.0,0.0,0.0,0.0,0.0,0.0,0.0,0.0,0.0,0.0,0.0,0.0,0.0,0.0,0.0,0.0,0.0,0.0,0.0,0.0,0.0,0.0,0.0,0.0,0.0,0.0,0.0,0.0,0.0,0.0,0.0,0.0,0.0,0.0,0.0,0.0,0.0,0.0,0.0,0.0,0.0,0.0,0.0,0.0,0.0,0.0,0.0,0.0,0.0,0.0,0.0,0.0,0.0,0.0,0.0,0.0,0.0,0.0,0.0,0.0,0.0,0.0,0.0,0.0,0.0,0.0,0.0,0.0,0.0,0.0,0.0,0.0,0.0,0.0,0.0,0.0,0.0,0.0,0.0,0.0,0.0,0.0,0.0,0.0,0.0,0.0,0.0,0.0,0.0,0.0,0.0,0.0,0.0,-2.744,-2.8066,-2.7335,0.0,-2.7584,0.0,0.0,0.0,0.0,0.0,0.0,0.0,0.0,0.0,0.0,0.0,0.0,0.0,0.0,0.0,0.0,0.0,0.0,0.0,0.0,0.0,0.0,0.0,0.0,0.0,0.0,0.0,0.0,0.0,0.0,0.0,0.0,0.0,0.0,0.0,0.0,0.0,0.0,0.0,0.0,0.0,0.0,0.0,0.0,0.0,0.0,0.0,0.0,0.0,0.0,0.0,0.0,0.0,0.0,0.0,0.0,0.0,0.0,0.0,0.0,0.0,0.0,0.0,0.0,0.0,0.0,0.0,0.0,0.0,0.0,0.0,0.0,0.0,0.0,0.0,0.0,0.0,0.0,0.0,0.0,0.0,0.0,0.0,0.0,0.0,0.0,0.0,0.0,0.0,0.0,0.0,0.0,0.0,0.0,0.0,0.0,0.0,0.0,0.0,0.0,0.0,0.0,0.0,0.0,0.0,0.0,0.0,0.0,0.0,0.0,-2.7103,-2.736,-2.6949,-2.6929,0.0,0.0,0.0,0.0,0.0,0.0,0.0,0.0,0.0,0.0,0.0,0.0,0.0,0.0,0.0,0.0,0.0,0.0,0.0,0.0,0.0,0.0,0.0,0.0,0.0,0.0,0.0,0.0,0.0,0.0,0.0,0.0,0.0,0.0,0.0,0.0,0.0,0.0,0.0,0.0,0.0,0.0,0.0,0.0,0.0,0.0,0.0,0.0,0.0,0.0,0.0,0.0,0.0,0.0,0.0,0.0,0.0,0.0,0.0,0.0,0.0,0.0,0.0,0.0,0.0,0.0,0.0,0.0,0.0,0.0,0.0,0.0,0.0,0.0,0.0,0.0,0.0,0.0,0.0,0.0,0.0,0.0,0.0,0.0,0.0,0.0,0.0,0.0,0.0,0.0,0.0,0.0,0.0,0.0,0.0,0.0,0.0,0.0,0.0,0.0,0.0,0.0,0.0,0.0,0.0,0.0,0.0,0.0,0.0,0.0,-2.7317,-2.6782,-2.669,-2.6731,-2.6892,-2.7195,0.0,0.0,0.0,0.0,0.0,0.0,0.0,0.0,0.0,0.0,0.0,0.0,0.0,0.0,0.0,0.0,0.0,0.0,0.0,0.0,0.0,0.0,0.0,0.0,0.0,0.0,0.0,0.0,0.0,0.0,0.0,0.0,0.0,0.0,0.0,0.0,0.0,0.0,0.0,0.0,0.0,0.0,0.0,0.0,0.0,0.0,0.0,0.0,0.0,0.0,0.0,0.0,0.0,0.0,0.0,0.0,0.0,0.0,0.0,0.0,0.0,0.0,0.0,0.0,0.0,0.0,0.0,0.0,0.0,0.0,0.0,0.0,0.0,0.0,0.0,0.0,0.0,0.0,0.0,0.0,0.0,0.0,0.0,0.0,0.0,0.0,0.0,0.0,0.0,0.0,0.0,0.0,0.0,0.0,0.0,0.0,0.0,0.0,0.0,0.0,0.0,0.0,0.0,0.0,0.0,0.0,0.0,0.0,-2.8164,-2.7225,-2.6588,-2.6359,-2.6874,-2.7178,0.0,0.0,0.0,0.0,0.0,0.0,0.0,0.0,0.0,0.0,0.0,0.0,0.0,0.0,0.0,0.0,0.0,0.0,0.0,0.0,0.0,0.0,0.0,0.0,0.0,0.0,0.0,0.0,0.0,0.0,0.0,0.0,0.0,0.0,0.0,0.0,0.0,0.0,0.0,0.0,0.0,0.0,0.0,0.0,0.0,0.0,0.0,0.0,0.0,0.0,0.0,0.0,0.0,0.0,0.0,0.0,0.0,0.0,0.0,0.0,0.0,0.0,0.0,0.0,0.0,0.0,0.0,0.0,0.0,0.0,0.0,0.0,0.0,0.0,0.0,0.0,0.0,0.0,0.0,0.0,0.0,0.0,0.0,0.0,0.0,0.0,0.0,0.0,0.0,0.0,0.0,0.0,0.0,0.0,0.0,0.0,0.0,0.0,0.0,0.0,0.0,0.0,0.0,0.0,0.0,0.0,0.0,0.0,0.0,-2.7876,-2.7455,-2.7091,-2.6909,-2.7106,-2.7117,0.0,0.0,0.0,0.0,0.0,0.0,0.0,0.0,0.0,0.0,0.0,0.0,0.0,0.0,0.0,0.0,0.0,0.0,0.0,0.0,0.0,0.0,0.0,0.0,0.0,0.0,0.0,0.0,0.0,0.0,0.0,0.0,0.0,0.0,0.0,0.0,0.0,0.0,0.0,0.0,0.0,0.0,0.0,0.0,0.0,0.0,0.0,0.0,0.0,0.0,0.0,0.0,0.0,0.0,0.0,0.0,0.0,0.0,0.0,0.0,0.0,0.0,0.0,0.0,0.0,0.0,0.0,0.0,0.0,0.0,0.0,0.0,0.0,0.0,0.0,0.0,0.0,0.0,0.0,0.0,0.0,0.0,0.0,0.0,0.0,0.0,0.0,0.0,0.0,0.0,0.0,0.0,0.0,0.0,0.0,0.0,0.0,0.0,0.0,0.0,0.0,0.0,0.0,0.0,0.0,0.0,0.0,0.0,0.0,-2.8316,0.0,-2.8051,-2.7839,-2.779,-2.7555,0.0,0.0,0.0,0.0,0.0,0.0,0.0,0.0,0.0,0.0,0.0,0.0,0.0,0.0,0.0,0.0,0.0,0.0,0.0,0.0,0.0,0.0,0.0,0.0,0.0,0.0,0.0,0.0,0.0,0.0,0.0,0.0,0.0,0.0,0.0,0.0,0.0,0.0,0.0,0.0,0.0,0.0,0.0,0.0,0.0,0.0,0.0,0.0,0.0,0.0,0.0,0.0,0.0,0.0,0.0,0.0,0.0,0.0,0.0,0.0,0.0,0.0,0.0,0.0,0.0,0.0,0.0,0.0,0.0,0.0,0.0,0.0,0.0,0.0,0.0,0.0,0.0,0.0,0.0,0.0,0.0,0.0,0.0,0.0,0.0,0.0,0.0,0.0,0.0,0.0,0.0,0.0,0.0,0.0,0.0,0.0,0.0,0.0,0.0,0.0,0.0,0.0,0.0,0.0,0.0,0.0,0.0,0.0,-2.9281,-2.9556,-2.954,-2.942,-2.9228,-2.9013,-2.8549,0.0,0.0,0.0,0.0,0.0,0.0,0.0,0.0,0.0,0.0,0.0,0.0,0.0,0.0,0.0,0.0,0.0,0.0,0.0,0.0,0.0,0.0,0.0,0.0,0.0,0.0,0.0,0.0,0.0,0.0,0.0,0.0,0.0,0.0,0.0,0.0,0.0,0.0,0.0,0.0,0.0,0.0,0.0,0.0,0.0,0.0,0.0,0.0,0.0,0.0,0.0,0.0,0.0,0.0,0.0,0.0,0.0,0.0,0.0,0.0,0.0,0.0,0.0,0.0,0.0,0.0,0.0,0.0,0.0,0.0,0.0,0.0,0.0,0.0,0.0,0.0,0.0,0.0,0.0,0.0,0.0,0.0,0.0,0.0,0.0,0.0,0.0,0.0,0.0,0.0,0.0,0.0,0.0,0.0,0.0,0.0,0.0,0.0,0.0,0.0,0.0,0.0,0.0,0.0,0.0,0.0,0.0,0.0,0.0,-3.0245,-3.0619,-3.0765,-3.0615,-3.001,-2.9488,0.0,0.0,0.0,0.0,0.0,0.0,0.0,0.0,0.0,0.0,0.0,0.0,0.0,0.0,0.0,0.0,0.0,0.0,0.0,0.0,0.0,0.0,0.0,0.0,0.0,0.0,0.0,0.0,0.0,0.0,0.0,0.0,0.0,0.0,0.0,0.0,0.0,0.0,0.0,0.0,0.0,0.0,0.0,0.0,0.0,0.0,0.0,0.0,0.0,0.0,0.0,0.0,0.0,0.0,0.0,0.0,0.0,0.0,0.0,0.0,0.0,0.0,0.0,0.0,0.0,0.0,0.0,0.0,0.0,0.0,0.0,0.0,0.0,0.0,0.0,0.0,0.0,0.0,0.0,0.0,0.0,0.0,0.0,0.0,0.0,0.0,0.0,0.0,0.0,0.0,0.0,0.0,0.0,0.0,0.0,0.0,0.0,0.0,0.0,0.0,0.0,0.0,0.0,0.0,0.0,0.0,0.0,0.0,0.0,-3.2757,-3.2934,-3.2995,-3.2848,-3.2293,-3.1372,-3.0099,0.0,0.0,0.0,0.0,0.0,0.0,0.0,0.0,0.0,0.0,0.0,0.0,0.0,0.0,0.0,0.0,0.0,0.0,0.0,0.0,0.0,0.0,0.0,0.0,0.0,0.0,0.0,0.0,0.0,0.0,0.0,0.0,0.0,0.0,0.0,0.0,0.0,0.0,0.0,0.0,0.0,0.0,0.0,0.0,0.0,0.0,0.0,0.0,0.0,0.0,0.0,0.0,0.0,0.0,0.0,0.0,0.0,0.0,0.0,0.0,0.0,0.0,0.0,0.0,0.0,0.0,0.0,0.0,0.0,0.0,0.0,0.0,0.0,0.0,0.0,0.0,0.0,0.0,0.0,0.0,0.0,0.0,0.0,0.0,0.0,0.0,0.0,0.0,0.0,0.0,0.0,0.0,0.0,0.0,0.0,0.0,0.0,0.0,0.0,0.0,0.0,0.0,0.0,0.0,0.0,0.0,0.0,0.0,-3.6757,-3.6332,-3.6039,-3.5727,-3.5438,-3.3929,0.0,0.0,0.0,0.0,0.0,0.0,0.0,0.0,0.0,0.0,0.0,0.0,0.0,0.0,0.0,0.0,0.0,0.0,0.0,0.0,0.0,0.0,0.0,0.0,0.0,0.0,0.0,0.0,0.0,0.0,0.0,0.0,0.0,0.0,0.0,0.0,0.0,0.0,0.0,0.0,0.0,0.0,0.0,0.0,0.0,0.0,0.0,0.0,0.0,0.0,0.0,0.0,0.0,0.0,0.0,0.0,0.0,0.0,0.0,0.0,0.0,0.0,0.0,0.0,0.0,0.0,0.0,0.0,0.0,0.0,0.0,0.0,0.0,0.0,0.0,0.0,0.0,0.0,0.0,0.0,0.0,0.0,0.0,0.0,0.0,0.0,0.0,0.0,0.0,0.0,0.0,0.0,0.0,0.0,0.0,0.0,0.0,0.0,0.0,0.0,0.0,0.0,0.0,0.0,0.0,0.0,0.0,0.0,0.0,-3.9716,-4.0222,-3.9833,-3.8539,-3.6868,-3.5257,0.0,0.0,0.0,0.0,0.0,0.0,0.0,0.0,0.0,0.0,0.0,0.0,0.0,0.0,0.0,0.0,0.0,0.0,0.0,0.0,0.0,0.0,0.0,0.0,0.0,0.0,0.0,0.0,0.0,0.0,0.0,0.0,0.0,0.0,0.0,0.0,0.0,0.0,0.0,0.0,0.0,0.0,0.0,0.0,0.0,0.0,0.0,0.0,0.0,0.0,0.0,0.0,0.0,0.0,0.0,0.0,0.0,0.0,0.0,0.0,0.0,0.0,0.0,0.0,0.0,0.0,0.0,0.0,0.0,0.0,0.0,0.0,0.0,0.0,0.0,0.0,0.0,0.0,0.0,0.0,0.0,0.0,0.0,0.0,0.0,0.0,0.0,0.0,0.0,0.0,0.0,0.0,0.0,0.0,0.0,0.0,0.0,0.0,0.0,0.0,0.0,0.0,0.0,0.0,0.0,0.0,0.0,0.0,-3.8942,-4.0838,-4.1804,-4.181,-4.085,-3.8683,-3.6506,0.0,0.0,0.0,0.0,0.0,0.0,0.0,0.0,0.0,0.0,0.0,0.0,0.0,0.0,0.0,0.0,0.0,0.0,0.0,0.0,0.0,0.0,0.0,0.0,0.0,0.0,0.0,0.0,0.0,0.0,0.0,0.0,0.0,0.0,0.0,0.0,0.0,0.0,0.0,0.0,0.0,0.0,0.0,0.0,0.0,0.0,0.0,0.0,0.0,0.0,0.0,0.0,0.0,0.0,0.0,0.0,0.0,0.0,0.0,0.0,0.0,0.0,0.0,0.0,0.0,0.0,0.0,0.0,0.0,0.0,0.0,0.0,0.0,0.0,0.0,0.0,0.0,0.0,0.0,0.0,0.0,0.0,0.0,0.0,0.0,0.0,0.0,0.0,0.0,0.0,0.0,0.0,0.0,0.0,0.0,0.0,0.0,0.0,0.0,0.0,0.0,0.0,0.0,0.0,0.0,0.0,0.0,0.0,-4.0113,-4.0829,-4.1976,-4.2435,-4.2253,-4.0266,-3.7496,0.0,0.0,0.0,0.0,0.0,0.0,0.0,0.0,0.0,0.0,0.0,0.0,0.0,0.0,0.0,0.0,0.0,0.0,0.0,0.0,0.0,0.0,0.0,0.0,0.0,0.0,0.0,0.0,0.0,0.0,0.0,0.0,0.0,0.0,0.0,0.0,0.0,0.0,0.0,0.0,0.0,0.0,0.0,0.0,0.0,0.0,0.0,0.0,0.0,0.0,0.0,0.0,0.0,0.0,0.0,0.0,0.0,0.0,0.0,0.0,0.0,0.0,0.0,0.0,0.0,0.0,0.0,0.0,0.0,0.0,0.0,0.0,0.0,0.0,0.0,0.0,0.0,0.0,0.0,0.0,0.0,0.0,0.0,0.0,0.0,0.0,0.0,0.0,0.0,0.0,0.0,0.0,0.0,0.0,0.0,0.0,0.0,0.0,0.0,0.0,0.0,0.0,0.0,0.0,0.0,0.0,0.0,0.0,-4.1112,-4.1636,-4.2468,-4.2311,-4.105,-3.9218,-3.7574,0.0,0.0,0.0,0.0,0.0,0.0,0.0,0.0,0.0,0.0,0.0,0.0,0.0,0.0,0.0,0.0,0.0,0.0,0.0,0.0,0.0,0.0,0.0,0.0,0.0,0.0,0.0,0.0,0.0,0.0,0.0,0.0,0.0,0.0,0.0,0.0,0.0,0.0,0.0,0.0,0.0,0.0,0.0,0.0,0.0,0.0,0.0,0.0,-1.9821,0.0,0.0,0.0,0.0,0.0,0.0,0.0,0.0,0.0,0.0,0.0,0.0,0.0,0.0,0.0,0.0,0.0,0.0,0.0,0.0,0.0,0.0,0.0,0.0,0.0,0.0,0.0,0.0,0.0,0.0,0.0,0.0,0.0,0.0,0.0,0.0,0.0,0.0,0.0,0.0,0.0,0.0,0.0,0.0,0.0,0.0,0.0,0.0,0.0,0.0,0.0,0.0,0.0,0.0,0.0,0.0,0.0,0.0,0.0,-4.1967,-4.2875,-4.318,-4.2898,-4.1986,-4.0111,-3.813,0.0,0.0,0.0,0.0,0.0,0.0,0.0,0.0,0.0,0.0,0.0,0.0,0.0,0.0,0.0,0.0,0.0,0.0,0.0,0.0,0.0,0.0,0.0,0.0,0.0,0.0,0.0,0.0,0.0,0.0,0.0,0.0,0.0,0.0,0.0,0.0,0.0,0.0,0.0,0.0,0.0,0.0,0.0,0.0,0.0,0.0,0.0,0.0,0.0,0.0,0.0,0.0,0.0,0.0,0.0,0.0,0.0,0.0,0.0,0.0,0.0,0.0,0.0,0.0,0.0,0.0,0.0,0.0,0.0,0.0,0.0,0.0,0.0,0.0,0.0,0.0,0.0,0.0,0.0,0.0,0.0,0.0,0.0,0.0,0.0,0.0,0.0,0.0,0.0,0.0,0.0,0.0,0.0,0.0,0.0,0.0,0.0,0.0,0.0,0.0,0.0,0.0,0.0,0.0,0.0,0.0,0.0,-4.0906,-4.2507,-4.3788,-4.3639,-4.3413,-4.3264,-4.1295,-3.8891,-3.602,0.0,0.0,0.0,0.0,0.0,0.0,0.0,0.0,0.0,0.0,0.0,0.0,0.0,0.0,0.0,0.0,0.0,0.0,0.0,0.0,0.0,0.0,0.0,0.0,0.0,0.0,0.0,0.0,0.0,0.0,0.0,0.0,0.0,0.0,0.0,0.0,0.0,0.0,-1.6877,-1.8134,0.0,0.0,0.0,0.0,0.0,0.0,0.0,0.0,-2.047,0.0,0.0,0.0,0.0,0.0,0.0,0.0,0.0,0.0,0.0,0.0,0.0,0.0,0.0,0.0,0.0,0.0,0.0,0.0,0.0,0.0,0.0,0.0,0.0,0.0,0.0,0.0,0.0,0.0,0.0,0.0,0.0,0.0,0.0,0.0,0.0,0.0,0.0,0.0,0.0,0.0,0.0,0.0,0.0,0.0,0.0,0.0,0.0,0.0,0.0,0.0,0.0,0.0,0.0,0.0,0.0,-3.9733,-4.1281,-4.2361,-4.2989,-4.2965,-4.2551,-4.1789,-4.0862,-3.9462,-3.7515,0.0,0.0,0.0,0.0,0.0,0.0,0.0,0.0,0.0,0.0,0.0,0.0,0.0,0.0,0.0,0.0,0.0,0.0,0.0,0.0,0.0,0.0,0.0,0.0,0.0,0.0,0.0,0.0,0.0,0.0,0.0,0.0,0.0,0.0,0.0,0.0,0.0,0.0,0.0,-1.8562,-1.9483,0.0,0.0,0.0,0.0,0.0,0.0,0.0,0.0,-2.0441,0.0,0.0,0.0,0.0,0.0,0.0,0.0,0.0,0.0,0.0,0.0,0.0,0.0,0.0,0.0,0.0,0.0,0.0,0.0,0.0,0.0,0.0,0.0,0.0,0.0,0.0,0.0,0.0,0.0,0.0,0.0,0.0,0.0,0.0,0.0,0.0,0.0,0.0,0.0,0.0,0.0,0.0,0.0,0.0,0.0,0.0,0.0,0.0,0.0,0.0,0.0,0.0,0.0,0.0,0.0,-4.0509,-4.2253,-4.3451,-4.3998,-4.3898,-4.3538,-4.3115,-4.2071,-4.0519,0.0,0.0,0.0,0.0,0.0,0.0,0.0,0.0,0.0,0.0,0.0,0.0,0.0,0.0,0.0,0.0,0.0,0.0,0.0,0.0,0.0,0.0,0.0,0.0,0.0,0.0,0.0,0.0,0.0,0.0,0.0,0.0,0.0,0.0,0.0,0.0,0.0,0.0,0.0,0.0,-1.9541,-2.0449,-2.187,0.0,0.0,0.0,0.0,0.0,0.0,-2.1643,-2.1041,0.0,0.0,0.0,0.0,0.0,0.0,0.0,0.0,0.0,0.0,0.0,0.0,0.0,0.0,0.0,0.0,0.0,0.0,0.0,0.0,0.0,0.0,0.0,0.0,0.0,0.0,0.0,0.0,0.0,0.0,0.0,0.0,0.0,0.0,0.0,0.0,0.0,0.0,0.0,0.0,0.0,0.0,0.0,0.0,0.0,0.0,0.0,0.0,0.0,0.0,0.0,0.0,0.0,0.0,0.0,-4.1135,-4.2992,-4.4248,-4.4892,-4.467,-4.4533,-4.444,-4.3048,-4.1229,0.0,0.0,0.0,0.0,0.0,0.0,0.0,0.0,0.0,0.0,0.0,0.0,0.0,0.0,0.0,0.0,0.0,0.0,0.0,0.0,0.0,0.0,0.0,0.0,0.0,0.0,0.0,0.0,0.0,0.0,0.0,0.0,0.0,0.0,0.0,0.0,0.0,0.0,0.0,0.0,0.0,-2.1339,-2.3015,-2.3171,0.0,0.0,0.0,0.0,-2.2849,-2.2243,0.0,0.0,0.0,0.0,0.0,0.0,0.0,0.0,0.0,0.0,0.0,0.0,0.0,0.0,0.0,0.0,0.0,0.0,0.0,0.0,0.0,0.0,0.0,0.0,0.0,0.0,0.0,0.0,0.0,0.0,0.0,0.0,0.0,0.0,0.0,0.0,0.0,0.0,0.0,0.0,0.0,0.0,0.0,0.0,0.0,0.0,0.0,0.0,0.0,0.0,0.0,0.0,0.0,0.0,0.0,0.0,-4.0978,-4.2488,-4.3551,-4.404,-4.4031,-4.3896,-4.3727,-4.2319,-4.0773,0.0,0.0,0.0,0.0,0.0,0.0,0.0,0.0,0.0,0.0,0.0,0.0,0.0,0.0,0.0,0.0,0.0,0.0,0.0,0.0,0.0,0.0,0.0,0.0,0.0,0.0,0.0,0.0,0.0,0.0,0.0,0.0,0.0,0.0,0.0,0.0,0.0,0.0,0.0,0.0,0.0,-2.1315,-2.3093,-2.3103,-2.2821,0.0,0.0,-2.2552,-2.2242,-2.2484,0.0,0.0,0.0,0.0,0.0,0.0,0.0,0.0,0.0,0.0,0.0,0.0,0.0,0.0,0.0,0.0,0.0,0.0,0.0,0.0,0.0,0.0,0.0,0.0,0.0,0.0,0.0,0.0,0.0,0.0,0.0,0.0,0.0,0.0,0.0,0.0,0.0,0.0,0.0,0.0,0.0,0.0,0.0,0.0,0.0,0.0,0.0,0.0,0.0,0.0,0.0,0.0,0.0,0.0,0.0,-3.9986,-4.1707,-4.3137,-4.3877,-4.3981,-4.3939,-4.3822,-4.3628,-4.2187,-4.0872,0.0,0.0,0.0,0.0,0.0,0.0,0.0,0.0,0.0,0.0,0.0,0.0,0.0,0.0,0.0,0.0,0.0,0.0,0.0,0.0,0.0,0.0,0.0,0.0,0.0,0.0,0.0,0.0,0.0,0.0,0.0,0.0,0.0,0.0,0.0,0.0,0.0,0.0,0.0,0.0,0.0,0.0,-2.3769,-2.4143,0.0,0.0,0.0,-2.3133,-2.3101,0.0,0.0,0.0,0.0,0.0,0.0,0.0,0.0,0.0,0.0,0.0,0.0,0.0,0.0,0.0,0.0,0.0,0.0,0.0,0.0,0.0,0.0,0.0,0.0,0.0,0.0,0.0,0.0,0.0,0.0,0.0,0.0,0.0,0.0,0.0,0.0,0.0,0.0,0.0,0.0,0.0,0.0,0.0,0.0,0.0,0.0,0.0,0.0,0.0,0.0,0.0,0.0,0.0,0.0,0.0,0.0,0.0,-4.2269,-4.3608,-4.4253,-4.4097,-4.3956,-4.3822,-4.3595,-4.2369,0.0,0.0,0.0,0.0,0.0,0.0,0.0,0.0,0.0,0.0,0.0,0.0,0.0,0.0,0.0,0.0,0.0,0.0,0.0,0.0,0.0,0.0,0.0,0.0,0.0,0.0,0.0,-2.0115,0.0,0.0,0.0,0.0,0.0,0.0,0.0,0.0,0.0,0.0,0.0,0.0,0.0,0.0,-2.3086,-2.3956,-2.4642,-2.5116,0.0,0.0,-2.3662,-2.3794,-2.3698,-2.3093,0.0,0.0,0.0,0.0,0.0,0.0,0.0,0.0,0.0,0.0,0.0,0.0,0.0,0.0,0.0,0.0,0.0,0.0,0.0,0.0,0.0,0.0,0.0,0.0,0.0,0.0,0.0,0.0,0.0,0.0,0.0,0.0,0.0,0.0,0.0,0.0,0.0,0.0,0.0,0.0,0.0,0.0,0.0,0.0,0.0,0.0,0.0,0.0,0.0,0.0,0.0,0.0,0.0,0.0,0.0,-4.2286,-4.3592,-4.4236,-4.4114,-4.3939,-4.3822,-4.3611,-4.285,-4.1789,0.0,0.0,0.0,0.0,0.0,0.0,0.0,0.0,0.0,0.0,0.0,0.0,0.0,0.0,0.0,0.0,0.0,0.0,0.0,0.0,0.0,0.0,0.0,0.0,0.0,0.0,0.0,0.0,0.0,0.0,0.0,0.0,0.0,0.0,0.0,0.0,0.0,0.0,0.0,0.0,0.0,-2.2204,-2.2903,-2.3777,-2.423,0.0,0.0,-2.427,-2.3909,-2.4178,-2.3907,-2.2359,0.0,0.0,0.0,0.0,0.0,0.0,0.0,0.0,0.0,0.0,0.0,0.0,0.0,0.0,0.0,0.0,0.0,0.0,0.0,0.0,0.0,0.0,0.0,0.0,0.0,0.0,0.0,0.0,0.0,0.0,0.0,0.0,0.0,0.0,0.0,0.0,0.0,0.0,0.0,0.0,0.0,0.0,0.0,0.0,0.0,0.0,0.0,0.0,0.0,0.0,0.0,0.0,0.0,-4.0815,-4.2269,-4.3736,-4.4384,-4.4196,-4.4097,-4.3939,-4.3763,-4.2974,-4.2253,0.0,0.0,0.0,0.0,0.0,0.0,0.0,0.0,0.0,0.0,0.0,0.0,0.0,0.0,0.0,0.0,0.0,0.0,0.0,0.0,0.0,0.0,0.0,0.0,0.0,0.0,0.0,0.0,-2.4932,-2.4755,-2.3559,0.0,0.0,0.0,0.0,0.0,0.0,0.0,0.0,0.0,0.0,-2.297,-2.3799,-2.4229,0.0,0.0,-2.4241,-2.4033,-2.407,-2.418,-2.3839,-2.2452,-2.1669,0.0,0.0,0.0,0.0,0.0,0.0,0.0,0.0,0.0,0.0,0.0,0.0,0.0,0.0,0.0,0.0,0.0,0.0,0.0,0.0,0.0,0.0,0.0,0.0,0.0,0.0,0.0,0.0,0.0,0.0,0.0,0.0,0.0,0.0,0.0,0.0,0.0,0.0,0.0,0.0,0.0,0.0,0.0,0.0,0.0,0.0,0.0,0.0,0.0,0.0,0.0,0.0,-4.1035,-4.2286,-4.3736,-4.444,-4.4253,-4.4097,-4.3998,-4.3822,-4.3206,-4.275,0.0,0.0,0.0,0.0,0.0,0.0,0.0,0.0,0.0,0.0,0.0,0.0,0.0,0.0,0.0,0.0,0.0,0.0,0.0,0.0,0.0,0.0,0.0,0.0,0.0,0.0,0.0,0.0,-2.5635,-2.5055,-2.3598,0.0,0.0,0.0,0.0,0.0,0.0,0.0,0.0,0.0,0.0,-2.3252,-2.3908,-2.4117,-2.4304,-2.4553,-2.4165,-2.3829,-2.3983,-2.4024,-2.3675,-2.2689,0.0,0.0,0.0,0.0,0.0,0.0,0.0,0.0,0.0,0.0,0.0,0.0,0.0,0.0,0.0,0.0,0.0,0.0,0.0,0.0,0.0,0.0,0.0,0.0,0.0,0.0,0.0,0.0,0.0,0.0,-3.1445,0.0,0.0,0.0,0.0,0.0,0.0,0.0,0.0,0.0,0.0,0.0,0.0,0.0,0.0,0.0,0.0,0.0,0.0,0.0,0.0,0.0,0.0,-4.1542,-4.2303,-4.3664,-4.427,-4.4097,-4.3939,-4.3839,-4.3628,-4.3611,-4.3264,-4.2535,0.0,0.0,0.0,0.0,0.0,0.0,0.0,0.0,0.0,0.0,0.0,0.0,0.0,0.0,0.0,0.0,0.0,0.0,0.0,0.0,0.0,0.0,0.0,0.0,0.0,0.0,-2.4503,-2.4954,-2.4974,0.0,0.0,0.0,0.0,0.0,0.0,0.0,0.0,0.0,0.0,-2.2159,-2.2819,-2.2839,-2.3216,-2.3484,-2.3232,-2.357,-2.3744,-2.3513,-2.3677,-2.369,0.0,0.0,0.0,0.0,0.0,0.0,0.0,0.0,0.0,0.0,0.0,0.0,0.0,0.0,0.0,0.0,0.0,0.0,0.0,0.0,0.0,0.0,0.0,0.0,0.0,0.0,0.0,-3.2349,-3.4104,0.0,0.0,0.0,0.0,0.0,0.0,0.0,0.0,0.0,0.0,0.0,-4.0322,-4.0188,0.0,0.0,0.0,0.0,0.0,0.0,0.0,0.0,0.0,0.0,0.0,0.0,-4.1559,-4.232,-4.3736,-4.444,-4.4253,-4.4097,-4.3939,-4.3822,-4.3704,-4.328,-4.2535,0.0,0.0,0.0,0.0,0.0,0.0,0.0,0.0,0.0,0.0,0.0,0.0,0.0,0.0,0.0,0.0,0.0,0.0,0.0,0.0,0.0,0.0,0.0,0.0,0.0,-2.6663,0.0,0.0,0.0,0.0,0.0,0.0,0.0,0.0,0.0,0.0,0.0,-2.1391,-2.1961,-2.2404,-2.2693,-2.2814,-2.3124,-2.3386,0.0,0.0,0.0,0.0,0.0,0.0,0.0,0.0,0.0,0.0,0.0,0.0,0.0,0.0,-1.52,-1.4408,-1.4373,-1.4515,-1.4732,0.0,0.0,0.0,0.0,0.0,0.0,0.0,0.0,0.0,0.0,0.0,0.0,0.0,0.0,-3.5662,0.0,-3.7353,0.0,0.0,0.0,0.0,0.0,0.0,0.0,0.0,-4.2006,-4.2394,-4.2104,-4.2035,-4.1965,0.0,-4.1204,-4.0104,0.0,0.0,0.0,0.0,0.0,0.0,0.0,0.0,-4.183,-4.2337,-4.3792,-4.4514,-4.4293,-4.4155,-4.4056,-4.3898,-4.3704,-4.3396,-4.2916,-4.2534,-4.1377,0.0,0.0,0.0,0.0,0.0,0.0,0.0,0.0,0.0,0.0,0.0,0.0,0.0,0.0,0.0,0.0,0.0,0.0,0.0,0.0,0.0,0.0,0.0,-2.7551,0.0,0.0,0.0,0.0,0.0,0.0,0.0,0.0,0.0,-2.158,-2.1824,-2.2334,-2.2881,-2.3076,-2.3183,-2.3188,0.0,0.0,0.0,0.0,0.0,0.0,0.0,-2.2423,-2.1876,-2.1651,-2.1248,-2.0043,-1.8545,-1.7383,-1.6906,0.0,0.0,-1.5363,-1.5233,-1.536,-1.5567,-1.5529,-1.5504,-1.5716,-1.5752,-1.5752,0.0,0.0,0.0,0.0,0.0,0.0,0.0,0.0,-3.837,-3.9127,0.0,-4.0256,0.0,0.0,0.0,0.0,0.0,-4.1535,0.0,0.0,-4.4082,-4.433,-4.347,-4.3436,-4.3453,-4.3403,-4.2692,-4.2337,-4.2236,-4.095,0.0,0.0,0.0,0.0,0.0,0.0,-4.2337,-4.2388,-4.3826,-4.4514,-4.431,-4.4155,-4.4056,-4.3839,-4.3645,-4.3492,-4.3476,-4.2697,-4.1852,-4.0958,-3.8785,0.0,0.0,0.0,0.0,0.0,0.0,0.0,0.0,0.0,0.0,0.0,0.0,0.0,0.0,0.0,0.0,0.0,0.0,0.0,0.0,-2.791,0.0,0.0,0.0,0.0,0.0,0.0,0.0,0.0,0.0,0.0,-2.2433,-2.3114,-2.3809,-2.3799,0.0,0.0,0.0,0.0,-2.3691,-2.296,-2.3063,-2.2969,-2.2203,-2.2176,-2.2339,-2.2312,0.0,0.0,-2.014,-1.9066,-1.8195,-1.7751,-1.7968,-1.7826,-1.6461,-1.6381,-1.6389,-1.6389,-1.6374,-1.6389,-1.6396,-1.6404,-1.6396,-3.5245,0.0,0.0,0.0,0.0,-3.4825,-3.661,-3.9566,-3.9347,-4.0299,-4.2173,-4.2281,0.0,0.0,0.0,0.0,0.0,0.0,-4.3199,-4.3401,-4.4224,-4.4507,-4.4231,-4.4248,-4.4248,-4.4231,-4.4028,-4.3927,-4.3893,-4.3504,-4.2642,-4.1373,0.0,0.0,0.0,0.0,-4.3098,-4.3166,-4.4079,-4.4457,-4.4155,-4.4097,-4.3713,-4.2974,-4.2396,-4.2126,-4.211,-4.1853,-4.1262,-4.0352,-3.9497,0.0,0.0,0.0,0.0,0.0,0.0,0.0,0.0,0.0,0.0,0.0,0.0,0.0,0.0,0.0,0.0,0.0,0.0,0.0,-3.0303,-2.9782,-2.9242,0.0,0.0,0.0,0.0,0.0,0.0,0.0,0.0,0.0,-2.4786,-2.4463,-2.4238,0.0,0.0,-2.4229,-2.357,-2.3437,-2.3135,-2.2566,-2.2082,0.0,-2.1408,-2.1181,-2.1021,-2.1109,-2.0716,-2.0192,-1.9435,-1.876,-1.8222,-1.8125,-1.8206,-1.8133,-1.7809,-1.7486,-1.7326,-1.7121,-1.7055,-1.7047,-1.7055,-1.7055,-1.7047,-3.8083,-3.6925,-3.5216,-3.5458,-3.699,-3.7022,-3.861,-4.1255,-4.137,-4.2209,-4.3586,-4.3919,-4.3471,-4.2569,-4.2311,0.0,0.0,0.0,-4.3773,-4.4113,-4.4406,-4.457,-4.457,-4.457,-4.457,-4.457,-4.457,-4.457,-4.457,-4.457,-4.4113,-4.3217,0.0,0.0,-4.232,-4.3047,-4.3365,-4.336,-4.4069,-4.4327,-4.4097,-4.4056,-4.3552,-4.2648,-4.2173,-4.1787,-4.1525,-4.1525,-4.1088,-4.0231,-3.9818,-3.8775,0.0,0.0,0.0,0.0,0.0,0.0,0.0,0.0,0.0,0.0,0.0,-2.8382,-2.8615,0.0,0.0,0.0,-3.0372,-3.111,-3.1976,-3.1245,0.0,0.0,0.0,0.0,0.0,0.0,0.0,-2.5375,-2.563,-2.5818,-2.5989,-2.5565,-2.5224,-2.512,-2.511,-2.4733,-2.3774,0.0,-2.334,-2.2365,-2.1778,-2.1378,-2.1178,-2.1007,-2.0769,-2.048,-2.0082,-1.9675,-1.9182,-1.8888,-1.8686,-1.8686,-1.8694,-1.865,-1.8518,-1.8335,-1.8101,-1.7786,-1.7713,-1.7677,-1.7552,-1.7523,-1.7494,-4.0524,-4.0201,-3.6938,-3.6829,-3.8774,-3.9312,-4.0707,-4.2785,-4.3881,-4.4406,-4.4406,-4.5086,-4.4922,-4.413,-4.3426,0.0,-4.4111,-4.3812,-4.4096,-4.4793,-4.4665,-4.457,-4.457,-4.457,-4.457,-4.457,-4.457,-4.457,-4.457,-4.457,-4.457,-4.4553,-4.3876,-4.3166,-4.254,-4.3166,-4.3411,-4.3317,-4.3973,-4.4196,-4.4097,-4.3881,-4.3372,-4.2506,-4.2459,-4.2061,-4.1393,-4.1327,-4.106,-4.0462,-3.9825,-3.9131,-3.8402,0.0,0.0,0.0,0.0,0.0,0.0,0.0,0.0,0.0,0.0,0.0,0.0,0.0,0.0,0.0,-3.1687,0.0,-3.3031,-3.2397,0.0,0.0,0.0,-2.9905,-2.8603,-2.8181,-2.7591,-2.6378,0.0,0.0,-2.6268,-2.6435,-2.639,-2.6197,-2.61,-2.5606,-2.4322,-2.4285,-2.3809,-2.2198,-2.192,-2.1709,-2.1183,-2.1065,-2.0845,-2.0128,-1.9887,-1.965,-1.9332,-1.9235,-1.9264,-1.9235,-1.9264,-1.9177,-1.8877,-1.8818,-1.8738,-1.843,-1.8321,-1.8196,-1.7925,-1.7852,-1.7779,-4.0593,-4.0653,-3.9811,-4.0065,-4.1007,-4.0781,-4.1834,-4.3614,-4.342,-4.3939,-4.4852,-4.5032,-4.4984,-4.4759,-4.448,-4.4443,-4.463,-4.4449,-4.4456,-4.4626,-4.4643,-4.457,-4.457,-4.457,-4.457,-4.457,-4.457,-4.457,-4.457,-4.457,-4.4497,-4.4367,-4.4181,-4.4069,-4.4045,-4.4215,-4.4316,-4.426,-4.4282,-4.4196,-4.3956,-4.3295,-4.2506,-4.1787,-4.126,-4.0668,-3.995,-3.9879,-3.9809,-3.9681,-3.9546,-3.9143,-3.8407,-3.7203,0.0,0.0,0.0,0.0,0.0,0.0,0.0,0.0,0.0,-3.0817,-3.0584,0.0,-3.1908,0.0,-3.2478,-3.293,-3.3056,-3.2397,0.0,0.0,-3.1001,-2.999,-2.8786,-2.8573,-2.8087,-2.6852,-2.691,-2.7012,-2.7012,-2.6914,-2.6794,-2.6699,-2.6496,-2.58,-2.4332,-2.38,-2.2994,-2.1514,-2.0901,-2.049,-2.049,-2.0395,-2.0181,-1.9583,-1.9583,-1.9576,-1.9376,-1.9272,-1.9272,-1.9272,-1.9272,-1.9242,-1.9169,-1.9162,-1.9133,-1.903,-1.865,-1.8284,-1.8203,-1.8182,-1.816,-4.0593,-4.0662,-4.0662,-4.0733,-4.0802,-4.108,-4.1819,-4.2769,-4.3075,-4.363,-4.4356,-4.4852,-4.5086,-4.5086,-4.4886,-4.4776,-4.4776,-4.4699,-4.457,-4.457,-4.457,-4.457,-4.457,-4.457,-4.457,-4.457,-4.457,-4.457,-4.457,-4.4253,-4.4253,-4.4423,-4.3798,-4.3856,-4.457,-4.4457,-4.4344,-4.4286,-4.4097,-4.3906,-4.3763,-4.3312,-4.2585,-4.1656,-4.1276,-4.0615,-3.9553,-3.9553,-3.9496,-3.9409,-3.9424,-3.9245,-3.8856,-3.8017,-3.7068,0.0,0.0,0.0,0.0,0.0,0.0,0.0,0.0,0.0,0.0,0.0,-3.2604,-3.2591,-3.2893,-3.3081,-3.3081,-3.2707,-3.2446,-3.2434,-3.2003,-3.1028,-2.9519,-2.9317,-2.8765,-2.7243,-2.7191,-2.7272,-2.7262,-2.7177,-2.7081,-2.7081,-2.6582,-2.5606,-2.4214,-2.38,-2.2994,-2.1216,-2.0601,-2.0395,-2.03,-2.0189,-1.9983,-1.9576,-1.948,-1.948,-1.9376,-1.9272,-1.9272,-1.9272,-1.9272,-1.9272,-1.9272,-1.9272,-1.9272,-1.9228,-1.8994,-1.8708,-1.8547,-1.8518,-1.8489,-4.0585,-4.0678,-4.077,-4.0447,-3.9955,-4.107,-4.1366,-4.1314,-4.2675,-4.3383,-4.3721,-4.4805,-4.5329,-4.5377,-4.5158,-4.5065,-4.5065,-4.4914,-4.4857,-4.4857,-4.4857,-4.4857,-4.4857,-4.4773,-4.4722,-4.4722,-4.4637,-4.457,-4.4587,-4.3972,-4.3972,-4.4497,-4.335,-4.329,-4.4327,-4.4097,-4.3923,-4.3898,-4.3687,-4.3552,-4.3568,-4.3492,-4.2974,-4.1868,-4.1722,-4.1075,-3.9753,-3.9681,-3.961,-3.9424,-3.9424,-3.9424,-3.9409,-3.8639,-3.8053,0.0,-3.5689,0.0,0.0,0.0,0.0,0.0,0.0,0.0,0.0,-3.284,-3.3081,-3.3081,-3.3081,-3.3081,-3.3081,-3.3081,-3.3081,-3.3081,-3.2982,-3.2164,-3.0441,-3.0079,-2.936,-2.7536,-2.7272,-2.7272,-2.7262,-2.7272,-2.7272,-2.7262,-2.6572,-2.5479,-2.4088,-2.38,-2.3103,-2.1224,-2.0925,-2.0712,-2.0403,-2.0189,-1.9975,-1.968,-1.948,-1.9272,-1.9272,-1.9272,-1.9272,-1.9272,-1.9272,-1.9272,-1.9272,-1.9272,-1.9272,-1.9272,-1.9242,-1.914,-1.8921,-1.8855,-1.876,-4.1167,-4.1447,-4.1986,-4.214,-4.2032,-4.2395,-4.181,-4.0735,-4.1517,-4.2877,-4.4517,-4.5277,-4.5919,-4.6462,-4.6421,-4.6421,-4.6438,-4.638,-4.638,-4.638,-4.6363,-4.638,-4.6329,-4.5754,-4.5483,-4.5449,-4.4874,-4.457,-4.457,-4.444,-4.4384,-4.4367,-4.4121,-4.3756,-4.3416,0.0,0.0,0.0,-4.3628,-4.3568,-4.3449,-4.319,-4.2555,-4.1704,-4.1507,0.0,-3.9753,-3.9681,-3.961,-3.9424,-3.9424,0.0,0.0,0.0,0.0,0.0,0.0,0.0,0.0,0.0,0.0,0.0,-3.306,-3.2536,-3.2298,-3.2742,-3.3081,-3.3081,-3.3081,-3.3081,-3.3081,-3.3081,-3.3081,-3.3081,-3.2351,-3.1448,-3.0351,-2.9441,-2.8538,-2.7441,-2.7272,-2.7272,-2.7272,-2.7272,-2.7272,-2.7272,-2.7167,-2.6167,-2.4285,-2.3402,-2.2417,-2.1121,-2.0917,-2.0712,-2.0292,-2.0086,-1.9879,-1.9472,-1.9383,-1.9272,-1.9272,-1.9272,-1.9272,-1.9272,-1.9272,-1.9272,-1.9272,-1.9272,-1.9272,-1.9272,-1.9272,-1.9257,-1.9199,-1.9177,-1.9162,-4.125,0.0,-4.2287,-4.2417,0.0,-4.2505,-4.2069,-4.1086,-4.2268,-4.38,-4.5369,-4.5704,-4.6178,-4.6903,-4.6844,-4.6786,-4.6786,-4.6786,-4.6786,-4.6786,-4.6786,-4.6786,-4.6769,-4.6413,-4.6244,-4.621,-4.5483,-4.5145,-4.5111,-4.4421,-4.4179,-4.444,-4.3739,-4.3366,-4.3306,-4.2724,-4.2474,-4.2585,-4.2912,-4.3052,-4.2974,-4.2851,-4.2412,-4.1704,-4.1225,0.0,0.0,0.0,0.0,0.0,0.0,0.0,0.0,0.0,0.0,-3.8599,-3.7777,-3.717,-3.7011,-3.5639,-3.4804,-3.4661,-3.3623,-3.2908,-3.2641,-3.2905,-3.3081,-3.3081,-3.3081,-3.3081,-3.3081,-3.3081,-3.3081,-3.3081,-3.2176,-3.1258,-3.026,-2.9349,-2.8362,-2.7536,-2.7272,-2.7272,-2.7272,-2.7272,-2.7272,-2.7262,-2.637,-2.5373,-2.4285,-2.3601,-2.2811,-2.1224,-2.0712,-2.0506,-2.0197,-1.9983,-1.9783,-1.9376,-1.9272,-1.9272,-1.9272,-1.9272,-1.9272,-1.9272,-1.9272,-1.9272,-1.9272,-1.9272,-1.9272,-1.9272,-1.9272,-1.9272,-1.9272,-1.9272,-1.9272,-4.1243,-4.1459,-4.2332,-4.2471,-4.2171,-4.2725,-4.2648,-4.2212,0.0,0.0,0.0,-4.5827,-4.6246,-4.6955,-4.6836,-4.6853,-4.6989,-4.6989,-4.7056,-4.7175,-4.7192,-4.7175,-4.7175,-4.7056,-4.6989,-4.6955,-4.6244,-4.5906,-4.5855,-4.4524,-4.4173,-4.4626,-4.3339,-4.2831,-4.2998,-4.2062,-4.1444,-4.1194,-4.1917,-4.2396,-4.238,-4.2333,-4.2061,-4.1591,-4.094,-4.0339,-3.9753,-3.9681,-3.9625,-3.9424,-3.9424,-3.9424,-3.9424,-3.9424,-3.9337,-3.9147,-3.8513,-3.8164,-3.8144,-3.6535,-3.5364,-3.4966,-3.3797,-3.3081,-3.3081,-3.3081,-3.3081,-3.3081,-3.3081,-3.3081,-3.3081,-3.3081,-3.3068,-3.2896,-3.1989,-3.0991,-2.9988,-2.9084,-2.8081,-2.7452,-2.7272,-2.7272,-2.7272,-2.7272,-2.7272,-2.7071,-2.5781,-2.4097,-2.3899,-2.3493,-2.2702,-2.1216,-2.0719,-2.0506,-2.0189,-1.9983,-1.968,-1.9376,-1.9272,-1.9272,-1.9272,-1.9272,-1.9272,-1.9272,-1.9272,-1.9272,-1.9272,-1.9272,-1.9272,-1.9272,-1.9272,-1.9272,-1.9272,-1.9272,-1.9272,-4.1256,-4.2207,-4.2932,-4.3593,-4.4172,-4.4264,-4.4249,-4.4139,-4.3867,-4.4098,-4.4936,-4.5472,-4.6142,-4.6832,-4.6817,-4.7141,-4.775,-4.7767,-4.8088,-4.8697,-4.8697,-4.8697,-4.8663,-4.8054,-4.7767,-4.7699,-4.7005,-4.6633,-4.6566,-4.5756,-4.5476,-4.5318,-4.4097,-4.2691,-4.1377,-4.0478,-3.995,-3.9737,-4.0857,-4.1475,-4.1475,-4.1174,-4.0972,-4.0684,-4.0409,-4.0076,-3.9681,-3.9681,-3.9625,-3.9424,-3.9424,-3.9424,-3.9424,-3.9424,-3.9424,-3.9337,-3.9247,-3.9175,-3.9192,-3.8115,-3.6682,-3.4937,-3.3738,-3.3081,-3.3081,-3.3081,-3.3081,-3.3081,-3.3081,-3.3081,-3.3081,-3.3081,-3.2797,-3.1989,-3.0991,-2.9988,-2.9084,-2.8164,-2.7536,-2.7357,-2.7272,-2.7272,-2.7272,-2.7272,-2.7272,-2.7167,-2.5984,-2.4805,-2.302,-2.192,-2.1318,-2.1019,-2.0925,-2.0609,-2.0292,-2.0086,-1.9887,-1.9368,-1.9376,-1.9383,-1.9272,-1.9272,-1.9272,-1.9272,-1.9272,-1.9272,-1.9272,-1.9272,-1.9272,-1.9272,-1.9272,-1.9272,-1.9272,-1.9272,-1.9272,-4.1194,-4.2166,-4.3006,-4.3771,-4.4572,-4.4572,-4.4572,-4.4586,-4.4282,-4.4595,-4.5199,-4.5158,-4.5568,-4.6209,-4.6267,-4.6458,-4.6776,-4.7113,-4.7479,-4.7817,-4.8223,-4.8409,-4.8426,-4.8477,-4.8494,-4.846,-4.775,-4.7411,-4.7327,-4.665,-4.59,-4.5109,-4.3268,-4.1901,-4.0992,-4.0146,-3.9625,-3.9409,-4.0339,-4.0873,-4.0873,-4.0684,-4.0562,-4.0493,-4.0021,-3.9681,-3.9553,-3.9553,-3.9481,-3.9424,-3.9424,-3.9424,-3.9424,-3.9424,-3.9424,-3.9424,-3.9424,-3.9424,-3.9424,-3.7904,-3.6332,-3.4841,-3.3725,-3.3081,-3.3081,-3.3081,-3.3081,-3.3081,-3.3081,-3.3081,-3.3081,-3.3081,-3.2884,-3.2438,-3.1536,-3.0531,-2.9624,-2.8631,-2.7893,-2.7452,-2.7272,-2.7272,-2.7272,-2.7272,-2.7272,-2.7156,-2.5974,-2.4088,-2.2021,-2.1224,-2.0925,-2.0925,-2.0822,-2.0609,-2.03,-2.0189,-1.9983,-1.9776,-1.9576,-1.9583,-1.9472,-1.9368,-1.9272,-1.9272,-1.9272,-1.9272,-1.9272,-1.9272,-1.9272,-1.9272,-1.9272,-1.9272,-1.9272,-1.9272,-1.9272,-4.0873,-4.1713,-4.2371,-4.3349,-4.4328,-4.4496,-4.4572,-4.4572,-4.4556,-4.4933,-4.5311,-4.4741,-4.4782,-4.5233,-4.5128,-4.5148,-4.5404,-4.6022,-4.6439,-4.6641,-4.7318,-4.7665,-4.7733,-4.8409,-4.8748,-4.8731,-4.8342,-4.8095,-4.781,-4.7137,-4.594,-4.4327,-4.2375,-4.1242,-4.09,-4.0097,-3.9553,-3.9409,-3.995,-4.027,-4.0285,-4.027,-4.0216,-4.0216,-3.9681,-3.9424,-3.9424,-3.9424,-3.9424,-3.9424,-3.9424,-3.9424,-3.9424,-3.9424,-3.9424,-3.9424,-3.9424,-3.9352,-3.9265,-3.7648,-3.6146,-3.5061,-3.4037,-3.3386,-3.3167,-3.3081,-3.3081,-3.3081,-3.3081,-3.3081,-3.3081,-3.3081,-3.2982,-3.281,-3.2077,-3.108,-2.9988,-2.9176,-2.8351,-2.7536,-2.7272,-2.7272,-2.7272,-2.7272,-2.7167,-2.6668,-2.5275,-2.3393,-2.1725,-2.113,-2.0925,-2.0822,-2.0719,-2.0617,-2.0522,-2.03,-2.0189,-2.0086,-1.9879,-1.9783,-1.968,-1.948,-1.9383,-1.9376,-1.9272,-1.9272,-1.9272,-1.9272,-1.9272,-1.9272,-1.9272,-1.9272,-1.9272,-1.9272,-1.9272,-3.9954,-4.0689,-4.0845,-4.185,-4.3442,-4.4251,-4.4572,-4.4572,-4.4572,-4.4648,-4.4659,-4.3984,-4.3715,-4.3701,-4.3122,-4.3262,-4.3958,-4.4587,-4.5241,-4.5913,-4.6599,-4.6904,-4.6989,-4.7682,-4.8037,-4.8139,-4.8612,-4.8488,-4.7897,-4.7104,-4.5669,-4.3532,-4.2217,-4.1386,-4.0713,-3.9926,-3.9424,-3.9424,-3.9496,-3.9481,-3.9481,-3.9481,-3.9481,-3.9481,-3.9424,-3.9424,-3.9424,-3.9424,-3.9424,-3.9424,-3.9424,-3.9424,-3.9424,-3.9424,-3.9424,-3.9424,-3.9424,-3.9352,-3.9104,-3.8219,-3.7049,-3.5922,-3.4992,-3.4121,-3.324,-3.3081,-3.3081,-3.3081,-3.3081,-3.3081,-3.3081,-3.3081,-3.2797,-3.2089,-3.1813,-3.0902,-2.936,-2.8724,-2.8362,-2.7441,-2.7272,-2.7272,-2.7272,-2.7272,-2.6965,-2.6081,-2.4982,-2.3601,-2.2426,-2.1428,-2.0925,-2.0925,-2.0814,-2.0719,-2.0624,-2.0522,-2.0411,-2.0189,-2.0086,-1.9983,-1.9887,-1.968,-1.9576,-1.9376,-1.9279,-1.9279,-1.9272,-1.9272,-1.9272,-1.9272,-1.9272,-1.9272,-1.9272,-1.9272,-1.9272,-3.9793,-4.0589,-4.0589,-4.1601,-4.3284,-4.4251,-4.4572,-4.4572,-4.4572,-4.4572,-4.454,-4.3925,-4.336,-4.2996,-4.2224,-4.2125,-4.2445,-4.349,-4.4141,-4.4533,-4.5597,-4.6363,-4.6853,-4.7564,-4.8139,-4.8562,-4.8866,-4.8576,-4.7704,-4.6218,-4.5106,-4.4458,-4.2705,-4.1763,-4.1832,-4.1046,-4.0368,-3.9978,-4.002,-3.9809,-3.9496,-3.9424,-3.9424,-3.9424,-3.9424,-3.9424,-3.9424,-3.9424,-3.9424,-3.9424,-3.9424,-3.9424,-3.9424,-3.9424,-3.9424,-3.9424,-3.9424,-3.9352,-3.9265,-3.8219,-3.719,-3.6146,-3.5156,-3.4134,-3.324,-3.3081,-3.3081,-3.3081,-3.3081,-3.3081,-3.3081,-3.3081,-3.2896,-3.2537,-3.245,-3.1713,-2.9818,-2.9532,-2.9084,-2.7631,-2.7272,-2.7272,-2.7272,-2.7272,-2.688,-2.5887,-2.4786,-2.3701,-2.2627,-2.1632,-2.1027,-2.0925,-2.0925,-2.0822,-2.0719,-2.0719,-2.0719,-2.0609,-2.0403,-2.0308,-2.0205,-1.9887,-1.968,-1.9576,-1.9376,-1.9383,-1.9272,-1.9272,-1.9272,-1.9272,-1.9272,-1.9272,-1.9272,-1.9272,-1.9272,-3.9618,-4.0273,-4.0518,-4.1518,-4.2951,-4.3849,-4.4419,-4.4572,-4.4572,-4.4572,-4.451,-4.3864,-4.331,-4.2782,-4.1944,-4.1429,-4.1425,-4.2458,-4.3075,-4.3323,-4.4541,-4.558,-4.6515,-4.7259,-4.8003,-4.8585,-4.868,-4.8306,-4.7407,-4.5617,-4.4922,-4.525,-4.3547,-4.2802,-4.3198,-4.2419,-4.1561,-4.0849,-4.0791,-4.0344,-3.9511,-3.9424,-3.9424,-3.9424,-3.9424,-3.9424,-3.9424,-3.9424,-3.9424,-3.9424,-3.9424,-3.9424,-3.9424,-3.9424,-3.9424,-3.9424,-3.9337,-3.9337,-3.9352,-3.8383,-3.7434,-3.6526,-3.5386,-3.4454,-3.3654,-3.324,-3.3081,-3.3081,-3.3081,-3.3081,-3.3081,-3.3081,-3.3081,-3.3068,-3.2896,-3.1989,-3.0441,-2.9988,-2.9073,-2.7631,-2.7272,-2.7272,-2.7272,-2.7262,-2.6965,-2.6274,-2.4982,-2.3899,-2.292,-2.1818,-2.0925,-2.0925,-2.0925,-2.0925,-2.0925,-2.0925,-2.0925,-2.0925,-2.0719,-2.0617,-2.0522,-2.0101,-1.9783,-1.968,-1.9583,-1.9376,-1.9272,-1.9272,-1.9272,-1.9272,-1.9272,-1.9272,-1.9272,-1.9272,-1.9272,-3.9292,-3.9469,-4.0273,-4.1127,-4.2155,-4.3046,-4.3849,-4.448,-4.4572,-4.4572,-4.4479,-4.3895,-4.3556,-4.3402,-4.2227,-4.1256,-4.0739,-4.1358,-4.2029,-4.2583,-4.3339,-4.4365,-4.5771,-4.6498,-4.7259,-4.7888,-4.7958,-4.7489,-4.6588,-4.5561,-4.5358,-4.5802,-4.4867,-4.448,-4.4457,-4.3826,-4.2887,-4.1694,-4.1524,-4.0888,-3.9601,-3.9454,-3.9454,-3.9424,-3.9424,-3.9424,-3.9424,-3.9424,-3.9424,-3.9424,-3.9424,-3.9424,-3.9424,-3.9424,-3.9424,-3.9352,-3.925,-3.909,-3.9104,-3.8782,-3.8234,-3.7204,-3.6253,-3.5386,-3.4301,-3.3496,-3.3167,-3.3081,-3.3081,-3.3081,-3.3081,-3.3081,-3.3081,-3.3068,-3.2251,-3.1359,-3.0351,-2.9441,-2.8445,-2.7536,-2.7272,-2.7272,-2.7272,-2.7272,-2.7262,-2.6774,-2.5373,-2.4088,-2.3701,-2.2215,-2.1224,-2.0925,-2.0925,-2.0925,-2.0925,-2.0925,-2.0925,-2.0925,-2.0822,-2.0822,-2.0624,-2.0418,-2.0101,-1.9887,-1.9783,-1.9576,-1.9376,-1.9272,-1.9272,-1.9272,-1.9272,-1.9272,-1.9272,-1.9272,-1.9272,-3.9305,-3.9394,-4.0273,-4.0774,-4.1281,-4.2695,-4.3457,-4.3771,-4.4343,-4.4572,-4.4526,-4.431,-4.3987,-4.3541,-4.3079,-4.2248,-4.1287,-4.1429,-4.1641,-4.1949,-4.3015,-4.4045,-4.5023,-4.5784,-4.6502,-4.7112,-4.721,-4.6726,-4.5753,-4.4827,-4.4977,-4.5681,-4.5008,-4.4825,-4.5135,-4.4622,-4.3566,-4.2271,-4.2096,-4.1473,-4.0171,-4.0053,-3.9858,-3.9454,-3.9424,-3.9424,-3.9424,-3.9424,-3.9424,-3.9424,-3.9424,-3.9424,-3.9424,-3.9424,-3.9424,-3.9352,-3.9192,-3.909,-3.909,-3.8797,-3.8173,-3.7281,-3.6253,-3.5305,-3.4454,-3.3654,-3.3081,-3.3081,-3.3081,-3.3081,-3.3081,-3.3081,-3.3081,-3.2982,-3.2176,-3.1169,-3.026,-2.9268,-2.8362,-2.7547,-2.7272,-2.7272,-2.7272,-2.7272,-2.7272,-2.7167,-2.6081,-2.4894,-2.4097,-2.2811,-2.1623,-2.1019,-2.0925,-2.0925,-2.0925,-2.0925,-2.0925,-2.0925,-2.0925,-2.0822,-2.0719,-2.0624,-2.0308,-2.0205,-2.0094,-1.9783,-1.9583,-1.9168,-1.9168,-1.9272,-1.9272,-1.9063,-1.9272,-1.9272,-1.9272,-3.9305,-3.9394,-3.9954,-4.036,-4.076,-4.2208,-4.3031,-4.3364,-4.4236,-4.4572,-4.4572,-4.4572,-4.4326,-4.3895,-4.3664,-4.3125,-4.2243,-4.175,-4.1496,-4.1607,-4.2458,-4.3424,-4.4315,-4.4825,-4.5434,-4.6028,-4.6047,-4.573,-4.5243,-4.4556,-4.4843,-4.5769,-4.539,-4.539,-4.5602,-4.5421,-4.446,-4.3106,-4.2753,-4.2056,-4.0935,-4.0502,-4.0217,-3.9768,-3.9544,-3.9424,-3.9424,-3.9424,-3.9424,-3.9424,-3.9424,-3.9424,-3.9424,-3.9424,-3.9424,-3.9352,-3.9177,-3.9104,-3.8943,-3.8664,-3.8098,-3.7141,-3.6174,-3.5237,-3.4481,-3.3581,-3.3167,-3.3081,-3.3081,-3.3081,-3.3081,-3.3081,-3.3081,-3.2896,-3.1901,-3.089,-3.0249,-2.9002,-2.8081,-2.7452,-2.7272,-2.7272,-2.7272,-2.7272,-2.7272,-2.7272,-2.637,-2.5294,-2.4196,-2.3211,-2.2123,-2.113,-2.0925,-2.0925,-2.0925,-2.0925,-2.0925,-2.0925,-2.0925,-2.0925,-2.0925,-2.0719,-2.0617,-2.0514,-2.0308,-2.0094,-1.968,-1.916,-1.9063,-1.9168,-1.8855,-1.8534,-1.8855,-1.9272,-1.9272,-3.9305,-3.9305,-3.9305,-3.9793,-4.0603,-4.1547,-4.2482,-4.3269,-4.4097,-4.448,-4.4572,-4.4572,-4.4526,-4.4402,-4.3925,-4.3556,-4.326,-4.2273,-4.1681,-4.1566,-4.1623,-4.2381,-4.3572,-4.3734,-4.4107,-4.4754,-4.4564,-4.4528,-4.4613,-4.4646,-4.4962,-4.5697,-4.6182,-4.604,-4.5713,-4.6016,-4.55,-4.3858,-4.3392,-4.2741,-4.1535,-4.0861,-4.0502,-4.0292,-3.9798,-3.9484,-3.9439,-3.9424,-3.9424,-3.9424,-3.9424,-3.9424,-3.9424,-3.9424,-3.9424,-3.9352,-3.9192,-3.9017,-3.8767,-3.8501,-3.7886,-3.6844,-3.6029,-3.5169,-3.4468,-3.3654,-3.3081,-3.3081,-3.3081,-3.3081,-3.3081,-3.3081,-3.3081,-3.2896,-3.1536,-3.0351,-2.9897,-2.8538,-2.7367,-2.7272,-2.7272,-2.7272,-2.7262,-2.7167,-2.7071,-2.687,-2.6177,-2.5089,-2.3998,-2.3011,-2.2123,-2.1224,-2.0925,-2.0925,-2.0925,-2.0925,-2.0925,-2.0925,-2.0925,-2.0925,-2.0925,-2.0822,-2.0719,-2.0617,-1.9879,-1.9672,-1.9569,-1.9153,-1.8639,-1.8639,-1.822,-1.8325,-1.8855,-1.9272,-1.9272,-3.9305,-3.9305,-3.9305,-3.9455,-3.9779,-4.0617,-4.1547,-4.2467,-4.3364,-4.4004,-4.4496,-4.4572,-4.4572,-4.4541,-4.4326,-4.4018,-4.3556,-4.3094,-4.2469,-4.1728,-4.1527,-4.1718,-4.2234,-4.2696,-4.2963,-4.3185,-4.351,-4.3499,-4.3472,-4.3822,-4.4541,-4.5478,-4.5316,-4.539,-4.5624,-4.539,-4.4507,-4.3576,-4.3406,-4.2934,-4.2179,-4.1863,-4.1324,-4.0487,-4.0187,-3.9903,-3.9454,-3.9424,-3.9424,-3.9424,-3.9424,-3.9424,-3.9424,-3.9424,-3.9424,-3.9337,-3.9177,-3.8708,-3.7994,-3.7677,-3.7218,-3.6122,-3.5237,-3.4703,-3.4397,-3.3569,-3.3167,-3.3081,-3.3081,-3.3081,-3.3081,-3.3081,-3.3081,-3.3081,-3.1436,-3.017,-2.9897,-2.8456,-2.7452,-2.7272,-2.7272,-2.7272,-2.7167,-2.6774,-2.6284,-2.6081,-2.5285,-2.4295,-2.3211,-2.282,-2.2123,-2.1121,-2.1019,-2.0925,-2.0925,-2.0925,-2.0925,-2.0925,-2.0925,-2.0925,-2.0925,-2.0925,-2.0822,-2.0609,-1.9879,-1.9561,-1.9457,-1.893,-1.8311,-1.8318,-1.8325,-1.8639,-1.9168,-1.9272,-1.9272,-3.9305,-3.9305,-3.9305,-3.9305,-3.938,-4.0187,-4.0944,-4.1645,-4.279,-4.36,-4.4097,-4.448,-4.4572,-4.4572,-4.4572,-4.4356,-4.3941,-4.371,-4.311,-4.232,-4.1697,-4.1455,-4.1236,-4.1528,-4.179,-4.1763,-4.2088,-4.244,-4.2634,-4.3025,-4.3791,-4.454,-4.4586,-4.4586,-4.4812,-4.4586,-4.4082,-4.3409,-4.3329,-4.3135,-4.2761,-4.2491,-4.1968,-4.119,-4.0666,-4.0217,-3.9783,-3.9559,-3.9424,-3.9424,-3.9424,-3.9424,-3.9424,-3.9424,-3.9424,-3.9352,-3.9177,-3.8782,-3.7767,-3.7615,-3.6738,-3.5561,-3.4786,-3.4314,-3.3979,-3.3326,-3.3167,-3.3081,-3.3081,-3.3081,-3.3081,-3.2723,-3.2624,-3.2525,-3.1169,-2.9988,-2.9165,-2.8081,-2.7452,-2.7272,-2.7272,-2.7167,-2.6668,-2.6284,-2.5499,-2.5187,-2.4492,-2.3701,-2.282,-2.2526,-2.1827,-2.1224,-2.1019,-2.0925,-2.0925,-2.0925,-2.0925,-2.0925,-2.0925,-2.0925,-2.0925,-2.0925,-2.0822,-2.0719,-2.0189,-2.0094,-1.9879,-1.8401,-1.7667,-1.7989,-1.8527,-1.8534,-1.8848,-1.9168,-1.9272,-3.9305,-3.9305,-3.9305,-3.9305,-3.938,-4.01,-4.0518,-4.093,-4.2275,-4.3111,-4.3521,-4.4097,-4.4496,-4.4572,-4.4572,-4.4526,-4.4449,-4.3987,-4.3602,-4.3156,-4.2366,-4.1472,-4.0716,-4.0632,-4.0619,-4.0701,-4.0825,-4.1355,-4.2239,-4.2479,-4.2764,-4.3648,-4.4143,-4.4159,-4.3849,-4.4143,-4.4004,-4.3409,-4.3344,-4.3314,-4.3254,-4.2761,-4.2372,-4.2207,-4.1145,-4.0457,-4.0247,-3.9738,-3.9424,-3.9424,-3.9424,-3.9424,-3.9424,-3.9424,-3.9424,-3.9424,-3.9424,-3.8738,-3.8113,-3.7553,-3.6674,-3.4855,-3.4468,-3.4217,-3.3326,-3.3167,-3.3081,-3.3081,-3.3081,-3.3081,-3.2797,-3.2264,-3.1713,-3.1359,-3.0453,-2.9257,-2.7726,-2.7347,-2.7357,-2.7262,-2.7262,-2.687,-2.5887,-2.5596,-2.4894,-2.4295,-2.38,-2.3003,-2.2518,-2.203,-2.1818,-2.142,-2.0917,-2.0925,-2.0925,-2.0925,-2.0925,-2.0925,-2.0925,-2.0925,-2.0925,-2.0925,-2.0925,-2.0719,-2.0506,-2.0403,-1.9879,-1.8401,-1.8087,-1.8833,-1.8945,-1.8632,-1.8639,-1.9168,-1.9272,-3.9305,-3.9305,-3.9305,-3.9305,-3.9305,-3.9543,-4.0027,-4.0589,-4.1099,-4.2193,-4.3096,-4.3521,-4.4097,-4.4572,-4.4572,-4.4572,-4.451,-4.4387,-4.4002,-4.3587,-4.3279,-4.1976,-4.0692,-4.0347,-4.0142,-4.01,-4.0435,-4.1024,-4.1624,-4.2102,-4.2952,-4.4113,-4.3771,-4.3849,-4.4143,-4.3771,-4.3551,-4.3329,-4.3344,-4.3344,-4.3314,-4.318,-4.2821,-4.2312,-4.1534,-4.0861,-4.0397,-3.9768,-3.9424,-3.9424,-3.9424,-3.9424,-3.9424,-3.9424,-3.9424,-3.9424,-3.9337,-3.862,-3.7281,-3.6802,-3.5762,-3.4037,-3.3738,-3.3398,-3.3167,-3.3081,-3.3081,-3.3081,-3.3081,-3.281,-3.2176,-3.1725,-3.0991,-2.9726,-2.9268,-2.8631,-2.7631,-2.7272,-2.7272,-2.7262,-2.6572,-2.6081,-2.5392,-2.4402,-2.342,-2.292,-2.2417,-2.1912,-2.1623,-2.153,-2.1318,-2.1224,-2.0925,-2.0925,-2.0925,-2.0925,-2.0925,-2.0925,-2.0925,-2.0925,-2.0925,-2.0925,-2.0925,-2.0822,-2.0181,-1.9975,-1.9443,-1.8394,-1.9034,-1.968,-1.8945,-1.8422,-1.8848,-1.9272,-1.9272,-3.9305,-3.9305,-3.9305,-3.9305,-3.9305,-3.9305,-3.9631,-4.0114,-4.0859,-4.1713,-4.279,-4.36,-4.4097,-4.4556,-4.4572,-4.4572,-4.4572,-4.4511,-4.4281,-4.3898,-4.3455,-4.2294,-4.0924,-4.0335,-3.991,-3.9655,-3.9929,-4.0396,-4.0965,-4.1639,-4.2575,-4.3364,-4.3431,-4.3536,-4.3849,-4.3551,-4.3344,-4.3344,-4.3344,-4.3344,-4.3344,-4.3344,-4.3165,-4.2626,-4.1893,-4.098,-4.0083,-3.9604,-3.9424,-3.9424,-3.9424,-3.9424,-3.9424,-3.9424,-3.9424,-3.9424,-3.9104,-3.8248,-3.6972,-3.616,-3.5129,-3.3869,-3.3313,-3.3154,-3.3167,-3.3081,-3.3081,-3.3081,-3.3081,-3.281,-3.2264,-3.1536,-3.017,-2.8538,-2.8092,-2.7893,-2.7357,-2.7272,-2.7071,-2.6668,-2.6081,-2.5206,-2.4609,-2.322,-2.2417,-2.1928,-2.1428,-2.1121,-2.1019,-2.0925,-2.0925,-2.0925,-2.0925,-2.0925,-2.0925,-2.0925,-2.0925,-2.0925,-2.0925,-2.0925,-2.0925,-2.0925,-2.0925,-2.0712,-2.0071,-1.9642,-1.9435,-1.9228,-1.9339,-1.9457,-1.8624,-1.8527,-1.9063,-1.9272,-1.9272,-3.9359,-3.9305,-3.9305,-3.9305,-3.9305,-3.9305,-3.9305,-3.9631,-4.0972,-4.1728,-4.2222,-4.3693,-4.4251,-4.4496,-4.4419,-4.4572,-4.4511,-4.4358,-4.4266,-4.393,-4.3335,-4.2318,-4.1319,-4.0368,-3.9953,-3.9676,-3.9499,-3.9948,-4.0606,-4.1175,-4.1758,-4.2569,-4.306,-4.3254,-4.3379,-4.3329,-4.3344,-4.3344,-4.3344,-4.3344,-4.3344,-4.3329,-4.3195,-4.2836,-4.1773,-4.0666,-3.9813,-3.9424,-3.9424,-3.9424,-3.9424,-3.9424,-3.9424,-3.9352,-3.9207,-3.9046,-3.8501,-3.7644,-3.6766,-3.5789,-3.4815,-3.3869,-3.3484,-3.3326,-3.3167,-3.3081,-3.3081,-3.3081,-3.3081,-3.2896,-3.2164,-3.0979,-2.9257,-2.7809,-2.7357,-2.7357,-2.7167,-2.7156,-2.6764,-2.579,-2.5596,-2.4313,-2.322,-2.2333,-2.203,-2.142,-2.1027,-2.1027,-2.0925,-2.0925,-2.0925,-2.0925,-2.0925,-2.0925,-2.0925,-2.0925,-2.0925,-2.0925,-2.0925,-2.0925,-2.0925,-2.0925,-2.0925,-2.0712,-2.0388,-2.0388,-2.049,-2.0285,-1.9975,-1.9665,-1.9153,-1.916,-1.9272,-1.9272,-1.9272,-3.9712,-3.9305,-3.9305,-3.9305,-3.9305,-3.9305,-3.9305,-3.9394,-4.046,-4.1029,-4.1365,-4.2856,-4.36,-4.3693,-4.4189,-4.4358,-4.4358,-4.4127,-4.405,-4.3974,-4.3151,-4.2712,-4.2078,-4.1083,-4.0452,-4.0171,-3.9649,-4.0038,-4.0846,-4.0891,-4.1489,-4.2851,-4.2716,-4.2851,-4.3269,-4.3344,-4.3344,-4.3344,-4.3344,-4.3314,-4.3269,-4.3254,-4.3,-4.2476,-4.1309,-4.0307,-3.9634,-3.9424,-3.9424,-3.9424,-3.9352,-3.9192,-3.9265,-3.8811,-3.859,-3.8352,-3.7706,-3.683,-3.6042,-3.54,-3.4664,-3.3797,-3.3398,-3.3154,-3.3167,-3.3081,-3.3081,-3.3081,-3.3081,-3.2438,-3.0979,-2.9073,-2.8081,-2.7441,-2.7272,-2.6965,-2.6274,-2.6081,-2.5984,-2.5401,-2.4205,-2.302,-2.2518,-2.1725,-2.1326,-2.0917,-2.0925,-2.0925,-2.0925,-2.0925,-2.0925,-2.0925,-2.0925,-2.0925,-2.0925,-2.0925,-2.0925,-2.0925,-2.0925,-2.0925,-2.0925,-2.0925,-2.0925,-2.0925,-2.0814,-2.0917,-2.0917,-2.0498,-1.9975,-1.9879,-1.968,-1.948,-1.9272,-1.9272,-1.9272,-3.9848,-3.9319,-3.9305,-3.9305,-3.9305,-3.9305,-3.9305,-3.9557,-4.0717,-4.1281,-4.1616,-4.3111,-4.3849,-4.3771,-4.4112,-4.4281,-4.4127,-4.3988,-4.3754,-4.36,-4.3127,-4.3007,-4.2812,-4.2001,-4.1325,-4.0831,-4.0202,-4.0382,-4.0651,-4.0726,-4.1085,-4.2342,-4.2357,-4.2761,-4.324,-4.3344,-4.3344,-4.3344,-4.3329,-4.3225,-4.294,-4.2865,-4.2342,-4.1594,-4.0741,-4.0098,-3.9499,-3.8973,-3.8885,-3.8723,-3.8486,-3.8634,-3.9119,-3.8649,-3.8277,-3.8037,-3.7,-3.6188,-3.5561,-3.4841,-3.4121,-3.3641,-3.324,-3.3167,-3.3081,-3.3081,-3.2797,-3.2537,-3.2264,-3.1625,-2.9715,-2.8806,-2.7904,-2.7357,-2.7262,-2.687,-2.5984,-2.5693,-2.5197,-2.4402,-2.3211,-2.2426,-2.1725,-2.1224,-2.1019,-2.0925,-2.0925,-2.0925,-2.0925,-2.0925,-2.0925,-2.0925,-2.0925,-2.0925,-2.0925,-2.0925,-2.0925,-2.0925,-2.0925,-2.0925,-2.0925,-2.0925,-2.0925,-2.0925,-2.0925,-2.0925,-2.0814,-2.0395,-2.0086,-1.9983,-1.9783,-1.948,-1.9272,-1.9272,-1.9272,-3.997,-3.9427,-3.9346,-3.9305,-3.9305,-3.9305,-3.9305,-3.9557,-4.124,-4.1728,-4.214,-4.3756,-4.4251,-4.4112,-4.4205,-4.4143,-4.391,-4.3754,-4.3503,-4.3379,-4.3284,-4.3225,-4.3075,-4.2641,-4.2192,-4.1639,-4.0905,-4.0696,-4.0651,-4.0606,-4.1115,-4.1624,-4.2087,-4.2686,-4.3195,-4.3329,-4.324,-4.312,-4.3075,-4.2791,-4.2327,-4.2177,-4.1609,-4.0771,-4.0292,-3.9801,-3.9135,-3.8575,-3.8188,-3.7947,-3.7295,-3.7753,-3.8397,-3.8337,-3.7796,-3.772,-3.6229,-3.5413,-3.4924,-3.4275,-3.3628,-3.3398,-3.324,-3.3068,-3.3081,-3.281,-3.2438,-3.1801,-3.1258,-3.0453,-2.8899,-2.8351,-2.7893,-2.7241,-2.6965,-2.6476,-2.5499,-2.5197,-2.4205,-2.312,-2.2325,-2.1725,-2.1326,-2.0925,-2.0925,-2.0925,-2.0925,-2.0925,-2.0925,-2.0925,-2.0925,-2.0925,-2.0925,-2.0925,-2.0925,-2.0925,-2.0925,-2.0925,-2.0925,-2.0925,-2.0925,-2.0925,-2.0925,-2.0925,-2.0925,-2.0925,-2.0814,-2.0395,-2.0189,-2.0086,-1.9783,-1.948,-1.9376,-1.9376,-1.9376,-4.0608,-3.9997,-3.9509,-3.9305,-3.9305,-3.9305,-3.9305,-3.9645,-4.1156,-4.1547,-4.1281,-4.3412,-4.402,-4.36,-4.3879,-4.3801,-4.3491,-4.3319,-4.3284,-4.3314,-4.3344,-4.3344,-4.3284,-4.3165,-4.3,-4.2716,-4.1908,-4.1309,-4.1235,-4.1265,-4.1474,-4.2058,-4.2237,-4.2626,-4.3075,-4.3284,-4.291,-4.2581,-4.2521,-4.2192,-4.1698,-4.1323,-4.113,-4.0218,-3.9845,-3.9239,-3.8663,-3.8277,-3.7872,-3.7204,-3.6972,-3.7035,-3.7127,-3.661,-3.6308,-3.607,-3.5277,-3.4551,-3.4301,-3.3882,-3.3484,-3.3411,-3.324,-3.3068,-3.2896,-3.2363,-3.1813,-3.108,-3.0091,-2.9002,-2.8735,-2.7987,-2.704,-2.637,-2.5887,-2.5197,-2.3809,-2.322,-2.312,-2.2325,-2.1725,-2.1224,-2.1019,-2.0925,-2.0925,-2.0925,-2.0925,-2.0925,-2.0925,-2.0925,-2.0925,-2.0925,-2.0925,-2.0925,-2.0925,-2.0925,-2.0925,-2.0925,-2.0925,-2.0925,-2.0925,-2.0925,-2.0925,-2.0925,-2.0925,-2.0925,-2.0712,-2.0395,-2.0292,-2.0189,-1.9887,-1.9576,-1.9576,-1.9583,-1.948,-4.0743,-4.0146,-3.9536,-3.9305,-3.9305,-3.9305,-3.9305,-3.9469,-4.0717,-4.1212,-4.1713,-4.2936,-4.3419,-4.3067,-4.3163,-4.3163,-4.2914,-4.2836,-4.3015,-4.3225,-4.3344,-4.3344,-4.3299,-4.3299,-4.3344,-4.3165,-4.2656,-4.2102,-4.1863,-4.1504,-4.1773,-4.2117,-4.2073,-4.2192,-4.2581,-4.2417,-4.2222,-4.1893,-4.1818,-4.1549,-4.0816,-4.0293,-3.9787,-3.9757,-3.9254,-3.8619,-3.8277,-3.7706,-3.7155,-3.6346,-3.5789,-3.5655,-3.5494,-3.5413,-3.5277,-3.5426,-3.4799,-3.416,-3.3979,-3.3641,-3.3484,-3.324,-3.3167,-3.281,-3.2438,-3.1813,-3.1169,-3.0091,-2.8991,-2.7998,-2.7904,-2.7136,-2.6274,-2.579,-2.5294,-2.4205,-2.302,-2.2526,-2.2224,-2.1818,-2.142,-2.1019,-2.1019,-2.0925,-2.0925,-2.0925,-2.0925,-2.0925,-2.0925,-2.0925,-2.0925,-2.0925,-2.0925,-2.0925,-2.0925,-2.0925,-2.0925,-2.0925,-2.0925,-2.0925,-2.0925,-2.0925,-2.0925,-2.0925,-2.0925,-2.0925,-2.0822,-2.0617,-2.0403,-2.0292,-1.9983,-1.9879,-1.9783,-1.968,-1.9576,-4.0825,-4.0309,-3.9604,-3.9305,-3.9305,-3.9305,-3.9305,-3.9469,-4.0201,-4.0958,-4.163,-4.226,-4.2704,-4.2647,-4.2483,-4.2331,-4.2254,-4.2177,-4.2432,-4.2716,-4.2821,-4.2895,-4.2925,-4.294,-4.2821,-4.2686,-4.2671,-4.2746,-4.2297,-4.1878,-4.1878,-4.1893,-4.1579,-4.1594,-4.1968,-4.1788,-4.1399,-4.119,-4.116,-4.0846,-4.007,-3.918,-3.8738,-3.9265,-3.859,-3.8127,-3.7796,-3.7063,-3.6281,-3.5494,-3.495,-3.4481,-3.4397,-3.4397,-3.4716,-3.5182,-3.4716,-3.423,-3.3894,-3.3641,-3.3484,-3.3227,-3.2884,-3.2351,-3.1713,-3.108,-3.0181,-2.8724,-2.7904,-2.7357,-2.7347,-2.6562,-2.5887,-2.5197,-2.4492,-2.3692,-2.2518,-2.1928,-2.1623,-2.1326,-2.1019,-2.0925,-2.0925,-2.0925,-2.0925,-2.0925,-2.0925,-2.0925,-2.0925,-2.0925,-2.0925,-2.0925,-2.0925,-2.0925,-2.0925,-2.0925,-2.0925,-2.0925,-2.0925,-2.0925,-2.0925,-2.0925,-2.0925,-2.0925,-2.0925,-2.0925,-2.0822,-2.0727,-2.0514,-2.03,-2.0189,-2.0078,-1.9783,-1.9783,-1.968,-4.1069,-4.0892,-3.978,-3.9305,-3.9305,-3.9305,-3.9305,-3.938,-3.9954,-4.0788,-4.1547,-4.1417,-4.1851,-4.2145,-4.1715,-4.1565,-4.1504,-4.1504,-4.1624,-4.1848,-4.1833,-4.1848,-4.1698,-4.1609,-4.1833,-4.1893,-4.1803,-4.1953,-4.2102,-4.2117,-4.1893,-4.1609,-4.1444,-4.1414,-4.1429,-4.1205,-4.1085,-4.0621,-4.0516,-4.0202,-3.9606,-3.9252,-3.9119,-3.9046,-3.8501,-3.7706,-3.7063,-3.636,-3.5588,-3.4799,-3.4481,-3.4397,-3.4397,-3.4397,-3.4397,-3.4481,-3.4327,-3.4076,-3.3979,-3.3738,-3.3386,-3.3043,-3.2438,-3.1889,-3.108,-2.9897,-2.8724,-2.7631,-2.7357,-2.7357,-2.7262,-2.7051,-2.6071,-2.4982,-2.3989,-2.2802,-2.1725,-2.153,-2.1224,-2.1121,-2.0925,-2.0925,-2.0925,-2.0925,-2.0925,-2.0925,-2.0925,-2.0925,-2.0925,-2.0925,-2.0925,-2.0925,-2.0925,-2.0925,-2.0925,-2.0925,-2.0925,-2.0925,-2.0925,-2.0925,-2.0925,-2.0925,-2.0925,-2.0925,-2.0925,-2.0925,-2.0822,-2.0719,-2.0624,-2.0514,-2.0403,-2.0086,-1.9783,-1.9783,-1.9783,-4.092,-4.0513,-3.9658,-3.9305,-3.9305,-3.9305,-3.9203,-3.9189,-3.9353,-4.0201,-4.0887,-4.0182,-4.0114,-4.0592,-4.0323,-4.0487,-4.0741,-4.0816,-4.1055,-4.128,-4.1324,-4.1354,-4.1429,-4.1384,-4.1384,-4.1294,-4.1399,-4.1549,-4.1773,-4.1773,-4.1609,-4.1369,-4.101,-4.0801,-4.0771,-4.0442,-4.0157,-3.9903,-3.9813,-3.9694,-3.9252,-3.8575,-3.8263,-3.8664,-3.7491,-3.6766,-3.6281,-3.5976,-3.5277,-3.4551,-3.4397,-3.4397,-3.4397,-3.4371,-3.4293,-3.3927,-3.3762,-3.3822,-3.4011,-3.3713,-3.3275,-3.2599,-3.1889,-3.1169,-3.0079,-2.8806,-2.7809,-2.7357,-2.7367,-2.7272,-2.6965,-2.6167,-2.5178,-2.4187,-2.3493,-2.2409,-2.142,-2.1121,-2.0925,-2.0925,-2.0925,-2.0925,-2.0925,-2.0925,-2.0925,-2.0925,-2.0925,-2.0925,-2.0925,-2.0925,-2.0925,-2.0925,-2.0925,-2.0925,-2.0925,-2.0925,-2.0925,-2.0925,-2.0925,-2.0925,-2.0925,-2.0925,-2.0925,-2.0925,-2.0925,-2.0917,-2.0917,-2.0822,-2.0719,-2.0719,-2.0617,-2.0403,-2.0094,-2.0094,-2.0197,-4.0435,-3.9825,-3.9481,-3.9305,-3.9305,-3.9203,-3.91,-3.8908,-3.8819,-3.9604,-4.0335,-3.9733,-3.9159,-3.902,-3.9239,-3.9491,-4.0142,-4.0157,-4.0442,-4.0756,-4.0891,-4.0831,-4.0741,-4.0801,-4.0816,-4.0905,-4.0711,-4.0771,-4.0801,-4.0861,-4.0891,-4.1085,-4.0442,-4.0202,-4.0038,-3.9813,-3.9544,-3.9529,-3.9499,-3.9309,-3.8885,-3.7947,-3.7706,-3.7323,-3.6624,-3.5669,-3.5669,-3.5345,-3.4868,-3.4551,-3.4397,-3.4345,-3.4188,-3.4097,-3.3849,-3.3561,-3.332,-3.3454,-3.3604,-3.3456,-3.2893,-3.2103,-3.108,-3.0,-2.8724,-2.7631,-2.7272,-2.7272,-2.7272,-2.7272,-2.7061,-2.5868,-2.5373,-2.4384,-2.3194,-2.2106,-2.1216,-2.1019,-2.0917,-2.0925,-2.0925,-2.0925,-2.0925,-2.0925,-2.0925,-2.0925,-2.0925,-2.0925,-2.0925,-2.0925,-2.0925,-2.0925,-2.0925,-2.0925,-2.0925,-2.0925,-2.0925,-2.0925,-2.0925,-2.0925,-2.0925,-2.0925,-2.0925,-2.0925,-2.0925,-2.0925,-2.0917,-2.0925,-2.0925,-2.0822,-2.0719,-2.0719,-2.0617,-2.0617,-2.0514,-3.9527,-3.8962,-3.9216,-3.9305,-3.9292,-3.9011,-3.8908,-3.8819,-3.8472,-3.9197,-4.0478,-4.0325,-3.9642,-3.9044,-3.8719,-3.8929,-3.9529,-3.9484,-3.9649,-3.9679,-3.9574,-3.9768,-3.9828,-3.9828,-3.9723,-3.9723,-3.9858,-3.9798,-3.9634,-3.9903,-4.0083,-4.0307,-3.9918,-3.9619,-3.9529,-3.9514,-3.9265,-3.9265,-3.9207,-3.8811,-3.8427,-3.7872,-3.7553,-3.6908,-3.6201,-3.5655,-3.5669,-3.5032,-3.4634,-3.4397,-3.4397,-3.4254,-3.4005,-3.3822,-3.3522,-3.3273,-3.3099,-3.3196,-3.3212,-3.304,-3.2481,-3.152,-3.026,-2.8724,-2.7809,-2.7452,-2.7272,-2.7272,-2.7272,-2.7272,-2.7262,-2.6965,-2.5974,-2.4786,-2.3502,-2.2509,-2.1717,-2.1113,-2.0917,-2.0917,-2.0925,-2.0925,-2.0925,-2.0925,-2.0925,-2.0925,-2.0925,-2.0925,-2.0925,-2.0925,-2.0925,-2.0925,-2.0925,-2.0925,-2.0925,-2.0925,-2.0925,-2.0925,-2.0925,-2.0925,-2.0925,-2.0925,-2.0925,-2.0925,-2.0925,-2.0925,-2.1019,-2.1224,-2.1326,-2.0925,-2.0822,-2.0719,-2.0719,-2.0617,-2.0617,-3.9395,-3.8769,-3.9127,-3.9203,-3.9011,-3.8908,-3.8729,-3.8472,-3.8291,-3.8362,-3.892,-4.009,-3.9971,-3.8938,-3.8914,-3.9046,-3.9409,-3.9424,-3.9424,-3.9424,-3.9439,-3.9424,-3.9424,-3.9424,-3.9439,-3.9424,-3.9424,-3.9424,-3.9469,-3.9424,-3.9514,-3.9634,-3.9471,-3.9484,-3.9424,-3.9352,-3.9119,-3.8738,-3.8664,-3.8263,-3.7448,-3.6844,-3.6531,-3.6215,-3.5345,-3.495,-3.4799,-3.4551,-3.4397,-3.4397,-3.4397,-3.4214,-3.3979,-3.3744,-3.3443,-3.3156,-3.2953,-3.2881,-3.2975,-3.2657,-3.1978,-3.0273,-2.8862,-2.7715,-2.7357,-2.7262,-2.7272,-2.7272,-2.7272,-2.7272,-2.7262,-2.6668,-2.5693,-2.4796,-2.3908,-2.302,-2.2316,-2.1717,-2.1216,-2.1224,-2.1019,-2.0925,-2.0925,-2.0925,-2.0925,-2.0925,-2.0925,-2.0925,-2.0925,-2.0925,-2.0925,-2.0925,-2.0925,-2.0925,-2.0925,-2.0925,-2.0925,-2.0925,-2.0925,-2.0925,-2.0925,-2.0925,-2.0925,-2.0925,-2.1027,-2.1121,-2.1326,-2.1725,-2.1725,-2.1318,-2.1019,-2.0814,-2.0712,-2.0814,-2.0712,-3.9053,-3.8629,-3.8948,-3.9024,-3.8832,-3.8832,-3.8562,-3.8213,-3.8135,-3.7821,-3.7585,-3.9621,-3.9777,-3.8643,-3.8412,-3.9031,-3.9265,-3.9424,-3.9424,-3.9424,-3.9424,-3.9424,-3.9424,-3.9424,-3.9424,-3.9424,-3.9424,-3.9424,-3.9424,-3.9424,-3.9237,-3.9164,-3.9265,-3.9352,-3.9352,-3.9119,-3.8738,-3.8352,-3.7872,-3.74,-3.6582,-3.6042,-3.5507,-3.5345,-3.4703,-3.4564,-3.4481,-3.4397,-3.4397,-3.4397,-3.4371,-3.4293,-3.4071,-3.3822,-3.3535,-3.3219,-3.3034,-3.2791,-3.2816,-3.2403,-3.1553,-3.0136,-2.8701,-2.7882,-2.7357,-2.7272,-2.7272,-2.7272,-2.7272,-2.7262,-2.7251,-2.6764,-2.638,-2.5771,-2.4805,-2.3917,-2.322,-2.2518,-2.192,-2.1623,-2.1326,-2.0917,-2.0925,-2.0925,-2.0925,-2.0925,-2.0925,-2.0925,-2.0925,-2.0925,-2.0925,-2.0925,-2.0925,-2.0925,-2.0925,-2.1019,-2.1019,-2.0925,-2.0925,-2.0925,-2.0925,-2.0987,-2.0995,-2.0925,-2.1019,-2.1326,-2.1574,-2.1686,-2.1736,-2.1607,-2.1481,-2.144,-2.1522,-2.1615,-2.1216,-3.8421,-3.8615,-3.8602,-3.8602,-3.8602,-3.8589,-3.8408,-3.8213,-3.8226,-3.7834,-3.764,-3.8844,-3.8989,-3.8269,-3.7857,-3.8323,-3.9104,-3.9352,-3.9352,-3.928,-3.9352,-3.9352,-3.9424,-3.9424,-3.9424,-3.9424,-3.9352,-3.9352,-3.928,-3.9352,-3.9046,-3.8738,-3.9046,-3.9424,-3.9352,-3.859,-3.8202,-3.8037,-3.7309,-3.6517,-3.5896,-3.5575,-3.5114,-3.4716,-3.4468,-3.4397,-3.4397,-3.4397,-3.4397,-3.4397,-3.4397,-3.4228,-3.3888,-3.3718,-3.3417,-3.3038,-3.3096,-3.317,-3.3122,-3.2204,-3.1168,-3.003,-2.8571,-2.7987,-2.7452,-2.7272,-2.7272,-2.7272,-2.7272,-2.7272,-2.7262,-2.7156,-2.6955,-2.637,-2.5392,-2.4707,-2.3908,-2.3311,-2.271,-2.2021,-2.142,-2.0917,-2.0925,-2.0925,-2.0925,-2.0925,-2.0925,-2.0925,-2.0925,-2.0925,-2.0925,-2.1121,-2.1121,-2.1326,-2.142,-2.1216,-2.1216,-2.1019,-2.1167,-2.1492,-2.1443,-2.1469,-2.1325,-2.1033,-2.1334,-2.1753,-2.1678,-2.1612,-2.2158,-2.2805,-2.2395,-2.2238,-2.234,-2.2306,-2.1879,-3.8135,-3.8161,-3.8512,-3.8434,-3.8161,-3.833,-3.8226,-3.8226,-3.9006,-3.8833,-3.8073,-3.9505,-3.9547,-3.8687,-3.8337,-3.8397,-3.856,-3.9265,-3.9265,-3.8738,-3.9119,-3.9352,-3.9352,-3.9352,-3.9352,-3.9424,-3.9352,-3.9046,-3.859,-3.9046,-3.8885,-3.8575,-3.8575,-3.9352,-3.9031,-3.8248,-3.7372,-3.7218,-3.6503,-3.5736,-3.4937,-3.4868,-3.4716,-3.4397,-3.4397,-3.4397,-3.4397,-3.4397,-3.4397,-3.4397,-3.4397,-3.428,-3.4031,-3.3888,-3.3679,-3.3574,-3.3697,-3.3251,-3.287,-3.2042,-3.0868,-2.9466,-2.8457,-2.7893,-2.7357,-2.7367,-2.7272,-2.7272,-2.7272,-2.7272,-2.7262,-2.7262,-2.6965,-2.6187,-2.5401,-2.4903,-2.4295,-2.389,-2.3393,-2.2719,-2.2021,-2.1522,-2.1326,-2.1717,-2.1818,-2.1522,-2.1514,-2.1121,-2.0925,-2.0925,-2.0925,-2.1224,-2.142,-2.1827,-2.2005,-2.1963,-2.2212,-2.2312,-2.2498,-2.2672,-2.253,-2.1987,-2.1982,-2.1956,-2.2091,-2.2215,-2.2496,-2.2766,-2.3777,-2.4192,-2.3481,-2.291,-2.277,-2.2681,-2.2442,-3.8057,-3.8057,-3.8253,-3.8253,-3.807,-3.8122,-3.8044,-3.8239,-3.9724,-3.9236,-3.7806,-3.9396,-3.9286,-3.793,-3.7782,-3.8248,-3.7782,-3.8575,-3.8885,-3.8277,-3.8649,-3.9031,-3.9265,-3.9119,-3.8885,-3.9046,-3.9192,-3.8958,-3.7857,-3.8575,-3.8412,-3.7857,-3.7782,-3.7767,-3.7767,-3.7448,-3.6802,-3.6425,-3.5669,-3.5032,-3.4551,-3.4481,-3.4481,-3.4397,-3.4397,-3.4397,-3.4397,-3.4397,-3.4397,-3.4397,-3.4397,-3.4397,-3.4267,-3.4175,-3.4058,-3.4162,-3.4009,-3.3308,-3.2562,-3.184,-3.047,-2.8752,-2.8129,-2.7788,-2.7452,-2.7367,-2.7272,-2.7272,-2.7272,-2.7272,-2.7272,-2.7272,-2.6976,-2.6187,-2.6091,-2.5586,-2.5479,-2.508,-2.4492,-2.371,-2.302,-2.2518,-2.2123,-2.2518,-2.2911,-2.2509,-2.2106,-2.1607,-2.12,-2.1285,-2.1363,-2.1643,-2.2055,-2.2451,-2.276,-2.2815,-2.3098,-2.356,-2.3588,-2.3481,-2.3053,-2.2407,-2.2609,-2.2765,-2.2668,-2.2771,-2.3511,-2.4088,-2.4342,-2.4425,-2.4126,-2.3626,-2.3261,-2.3187,-2.3131,-3.7979,-3.8122,-3.7979,-3.7979,-3.8122,-3.8122,-3.8044,-3.8057,-3.9711,-3.8837,-3.6371,-3.8214,-3.799,-3.6301,-3.5976,-3.6439,-3.7127,-3.7947,-3.7962,-3.8127,-3.8188,-3.8649,-3.8811,-3.8664,-3.8516,-3.859,-3.8649,-3.8397,-3.7204,-3.7691,-3.7691,-3.683,-3.6108,-3.6267,-3.6582,-3.666,-3.6267,-3.5816,-3.5114,-3.4634,-3.4397,-3.4397,-3.4397,-3.4397,-3.4397,-3.4397,-3.4397,-3.4397,-3.4397,-3.4397,-3.4397,-3.4397,-3.4384,-3.4397,-3.4397,-3.4314,-3.4204,-3.3348,-3.2389,-3.1601,-3.0687,-2.9466,-2.9017,-2.8258,-2.7631,-2.7357,-2.7357,-2.7357,-2.7272,-2.7272,-2.7272,-2.7272,-2.7272,-2.7071,-2.7071,-2.6965,-2.687,-2.638,-2.5781,-2.5089,-2.4501,-2.3998,-2.3601,-2.38,-2.3998,-2.3402,-2.2976,-2.249,-2.218,-2.2255,-2.2329,-2.2494,-2.2858,-2.3299,-2.3459,-2.3644,-2.4004,-2.4438,-2.3805,-2.3606,-2.3112,-2.3047,-2.3211,-2.3246,-2.2973,-2.3213,-2.3848,-2.4128,-2.4048,-2.4115,-2.427,-2.4195,-2.3867,-2.3923,-2.3842,-3.79,-3.7979,-3.79,-3.79,-3.7979,-3.7965,-3.7979,-3.8018,-3.8742,-3.7892,-3.6171,-3.7552,-3.7456,-3.661,-3.6568,-3.6646,-3.7063,-3.7539,-3.7169,-3.7246,-3.7567,-3.8113,-3.8352,-3.8202,-3.8202,-3.8202,-3.8188,-3.7933,-3.7127,-3.7218,-3.683,-3.6042,-3.5803,-3.5722,-3.5575,-3.5736,-3.5736,-3.5507,-3.4799,-3.4481,-3.4397,-3.4397,-3.4397,-3.4397,-3.4397,-3.4397,-3.4397,-3.4397,-3.4397,-3.4397,-3.4397,-3.4397,-3.4397,-3.4397,-3.4397,-3.4397,-3.4217,-3.3784,-3.2649,-3.2202,-3.1565,-3.0485,-3.0033,-2.8969,-2.8175,-2.7547,-2.7536,-2.7357,-2.7367,-2.7272,-2.7272,-2.7272,-2.7272,-2.7272,-2.7272,-2.7272,-2.7167,-2.6976,-2.638,-2.5984,-2.5294,-2.5089,-2.4786,-2.4992,-2.4992,-2.4492,-2.3943,-2.3637,-2.3233,-2.3296,-2.3081,-2.3241,-2.3573,-2.3956,-2.4365,-2.4545,-2.4904,-2.5138,-2.4404,-2.4016,-2.4167,-2.4058,-2.4038,-2.3841,-2.3621,-2.3782,-2.4257,-2.4262,-2.4226,-2.4252,-2.4405,-2.4477,-2.4405,-2.4412,-2.4404,-3.79,-3.79,-3.79,-3.79,-3.79,-3.79,-3.7782,-3.7689,-3.8094,-3.7511,-3.6332,-3.7002,-3.6874,-3.5871,-3.5803,-3.5803,-3.5883,-3.661,-3.6545,-3.6466,-3.678,-3.7246,-3.7477,-3.74,-3.7092,-3.7246,-3.7309,-3.6986,-3.6346,-3.5883,-3.5575,-3.5264,-3.5803,-3.5264,-3.4868,-3.495,-3.5114,-3.495,-3.4703,-3.4481,-3.4397,-3.4397,-3.4397,-3.4397,-3.4397,-3.4397,-3.4397,-3.4397,-3.4397,-3.4397,-3.4397,-3.4397,-3.4397,-3.4397,-3.4314,-3.4314,-3.4243,-3.3882,-3.3177,-3.2562,-3.2091,-3.1376,-3.0652,-2.9418,-2.8713,-2.8175,-2.7809,-2.7441,-2.7357,-2.7272,-2.7272,-2.7272,-2.7272,-2.7272,-2.7272,-2.7272,-2.7272,-2.7272,-2.6976,-2.6476,-2.6187,-2.5984,-2.5984,-2.6187,-2.6284,-2.5974,-2.5692,-2.5449,-2.4804,-2.4382,-2.3993,-2.3833,-2.4278,-2.4706,-2.4957,-2.4976,-2.4944,-2.4931,-2.4747,-2.4486,-2.4902,-2.4784,-2.4323,-2.4329,-2.4364,-2.4485,-2.442,-2.4485,-2.442,-2.455,-2.455,-2.4526,-2.4492,-2.4436,-2.4456,-3.79,-3.79,-3.79,-3.79,-3.79,-3.7835,-3.7508,-3.7088,-3.7698,-3.7391,-3.62,-3.635,-3.5829,-3.5168,-3.495,-3.4868,-3.5182,-3.583,-3.5976,-3.5669,-3.5896,-3.636,-3.6517,-3.6136,-3.6215,-3.6136,-3.6122,-3.6201,-3.495,-3.4868,-3.5114,-3.4397,-3.4551,-3.4481,-3.4564,-3.4481,-3.4634,-3.4634,-3.4551,-3.4397,-3.4397,-3.4397,-3.4397,-3.4397,-3.4397,-3.4397,-3.4397,-3.4397,-3.4397,-3.4397,-3.4397,-3.4397,-3.4397,-3.4397,-3.4327,-3.4243,-3.4243,-3.4063,-3.37,-3.3164,-3.2834,-3.2016,-3.0843,-3.0316,-2.9966,-2.862,-2.7987,-2.7631,-2.7452,-2.7536,-2.7536,-2.7452,-2.7452,-2.7357,-2.7367,-2.7367,-2.7272,-2.7272,-2.7167,-2.687,-2.687,-2.6668,-2.6678,-2.687,-2.6774,-2.6965,-2.6781,-2.6502,-2.603,-2.5268,-2.4834,-2.4375,-2.4486,-2.473,-2.4845,-2.4753,-2.4615,-2.4557,-2.4633,-2.4643,-2.4716,-2.4654,-2.456,-2.455,-2.455,-2.455,-2.4464,-2.455,-2.455,-2.455,-2.455,-2.455,-2.455,-2.455,-2.455,-3.79,-3.79,-3.79,-3.79,-3.7835,-3.7403,-3.7155,-3.6907,-3.6305,-3.591,-3.5476,-3.5147,-3.5219,-3.5141,-3.4634,-3.4634,-3.5277,-3.5277,-3.5182,-3.5182,-3.5345,-3.5575,-3.5976,-3.5655,-3.5588,-3.5749,-3.5736,-3.5494,-3.4716,-3.4799,-3.495,-3.4481,-3.4397,-3.4397,-3.4397,-3.4397,-3.4397,-3.4397,-3.4397,-3.4397,-3.4397,-3.4397,-3.4397,-3.4397,-3.4397,-3.4397,-3.4397,-3.4397,-3.4397,-3.4397,-3.4397,-3.4397,-3.4397,-3.4397,-3.4397,-3.4301,-3.4314,-3.423,-3.4147,-3.3869,-3.37,-3.3628,-3.2993,-3.255,-3.14,-2.9429,-2.8175,-2.7904,-2.7631,-2.7715,-2.7715,-2.7631,-2.7441,-2.7452,-2.7367,-2.7367,-2.7272,-2.7272,-2.7272,-2.7272,-2.7272,-2.7367,-2.7367,-2.7367,-2.7272,-2.7107,-2.6827,-2.6455,-2.6042,-2.5401,-2.5108,-2.4725,-2.4459,-2.466,-2.4716,-2.4716,-2.4592,-2.455,-2.4581,-2.4571,-2.455,-2.455,-2.455,-2.455,-2.455,-2.455,-2.455,-2.455,-2.455,-2.455,-2.455,-2.455,-2.455,-2.455,-2.455,-3.79,-3.79,-3.79,-3.7743,-3.7469,-3.7129,-3.6737,-3.6188,-3.5561,-3.5142,-3.4894,-3.4554,-3.4703,-3.5114,-3.4551,-3.4564,-3.5114,-3.5114,-3.4868,-3.4703,-3.4799,-3.495,-3.5114,-3.5196,-3.5032,-3.5114,-3.5101,-3.4868,-3.4551,-3.4634,-3.4716,-3.4397,-3.4397,-3.4397,-3.4397,-3.4397,-3.4397,-3.4397,-3.4397,-3.4397,-3.4397,-3.4397,-3.4397,-3.4397,-3.4397,-3.4397,-3.4397,-3.4397,-3.4397,-3.4397,-3.4397,-3.4397,-3.4397,-3.4397,-3.4397,-3.4397,-3.4397,-3.4397,-3.4397,-3.4397,-3.4384,-3.423,-3.37,-3.2636,-3.15,-2.9624,-2.898,-2.862,-2.7998,-2.7893,-2.7715,-2.7536,-2.7441,-2.7357,-2.7357,-2.7367,-2.7272,-2.7272,-2.7272,-2.7272,-2.7357,-2.7357,-2.7357,-2.7357,-2.7336,-2.7358,-2.7035,-2.6372,-2.5927,-2.544,-2.5192,-2.4985,-2.4609,-2.4485,-2.4612,-2.4612,-2.4571,-2.455,-2.455,-2.455,-2.455,-2.455,-2.455,-2.455,-2.455,-2.455,-2.455,-2.455,-2.455,-2.455,-2.455,-2.455,-2.455,-2.455,-2.455,-3.79,-3.79,-3.7808,-3.7495,-3.7011,-3.6815,-3.6227,-3.5417,-3.5208,-3.4894,-3.4502,-3.4424,-3.4397,-3.4397,-3.4397,-3.4397,-3.4481,-3.4634,-3.4468,-3.4384,-3.4481,-3.4634,-3.4551,-3.4481,-3.4564,-3.4564,-3.4551,-3.4551,-3.4397,-3.4564,-3.4564,-3.4397,-3.4397,-3.4397,-3.4397,-3.4397,-3.4397,-3.4397,-3.4397,-3.4397,-3.4397,-3.4397,-3.4397,-3.4397,-3.4397,-3.4397,-3.4397,-3.4397,-3.4397,-3.4397,-3.4397,-3.4397,-3.4397,-3.4397,-3.4397,-3.4397,-3.4397,-3.4397,-3.4397,-3.4397,-3.4314,-3.4063,-3.3164,-3.2364,-3.1412,-3.0609,-3.0056,-2.9257,-2.8631,-2.8092,-2.7914,-2.7641,-2.7547,-2.7441,-2.7452,-2.7357,-2.7357,-2.7357,-2.7357,-2.7357,-2.7452,-2.7441,-2.7347,-2.7347,-2.7369,-2.739,-2.6962,-2.6412,-2.5834,-2.5316,-2.4923,-2.4799,-2.4633,-2.455,-2.455,-2.455,-2.455,-2.455,-2.455,-2.455,-2.455,-2.455,-2.455,-2.455,-2.455,-2.455,-2.455,-2.455,-2.455,-2.455,-2.455,-2.455,-2.455,-2.455,-2.455,-3.79,-3.7861,-3.739,-3.709,-3.6854,-3.6044,-3.5482,-3.5247,-3.4763,-3.4476,-3.4424,-3.4397,-3.4397,-3.4397,-3.4397,-3.4397,-3.4397,-3.4397,-3.4397,-3.4397,-3.4397,-3.4397,-3.4397,-3.4397,-3.4397,-3.4397,-3.4397,-3.4397,-3.4397,-3.4397,-3.4397,-3.4397,-3.4397,-3.4397,-3.4397,-3.4397,-3.4397,-3.4397,-3.4397,-3.4397,-3.4397,-3.4397,-3.4397,-3.4397,-3.4397,-3.4397,-3.4397,-3.4397,-3.4397,-3.4397,-3.4397,-3.4397,-3.4397,-3.4397,-3.4397,-3.4397,-3.4397,-3.4397,-3.4397,-3.4397,-3.4314,-3.4314,-3.3687,-3.342,-3.2463,-3.1665,-3.0956,-3.0079,-2.936,-2.856,-2.829,-2.782,-2.7631,-2.7715,-2.7715,-2.7631,-2.7536,-2.7536,-2.7536,-2.7631,-2.7715,-2.762,-2.7441,-2.7369,-2.7233,-2.7128,-2.6587,-2.6038,-2.5622,-2.5186,-2.4674,-2.4612,-2.4636,-2.455,-2.455,-2.455,-2.455,-2.455,-2.455,-2.455,-2.455,-2.455,-2.455,-2.455,-2.455,-2.455,-2.455,-2.455,-2.455,-2.455,-2.455,-2.455,-2.455,-2.455,-2.455]},{"header":{"parameterUnit":"m.s-1","parameterCategory":1,"la1":31.0,"la2":29.5877,"lo1":-88.7671,"lo2":-86.6584,"dy":0.0162,"dx":0.0185,"nx":115,"ny":88,"refTime":"2023-08-02T00:00:00:Z","depth":0,"parameterNumber":3,"parameterNumberName":"V-component_of_WINDS"},"data":[0.0,0.0,0.0,0.0,0.0,0.0,0.0,0.0,0.0,0.0,0.0,0.0,0.0,0.0,0.0,0.0,0.0,0.0,0.0,0.0,0.0,0.0,0.0,0.0,0.0,0.0,0.0,0.0,0.0,0.0,0.0,0.0,0.0,0.0,0.0,0.0,0.0,0.0,0.0,0.0,0.0,0.0,0.0,0.0,0.0,0.0,0.0,0.0,0.0,0.0,0.0,0.0,0.0,0.0,0.0,0.0,0.0,0.0,0.0,0.0,0.0,0.0,0.0,0.0,0.0,0.0,0.0,0.0,0.0,0.0,0.0,0.0,0.0,0.0,0.0,0.0,0.0,0.0,0.0,0.0,0.0,0.0,0.0,0.0,0.0,0.0,0.0,0.0,0.0,0.0,0.0,0.0,0.0,0.0,0.0,0.0,0.0,0.0,0.0,0.0,0.0,0.0,0.0,0.0,0.0,0.0,0.0,0.0,0.0,0.0,0.0,0.0,0.0,0.0,0.0,0.0,0.0,0.0,0.0,0.0,0.0,0.0,0.0,0.0,0.0,0.0,0.0,0.0,0.0,0.0,0.0,0.0,0.0,0.0,0.0,0.0,0.0,0.0,0.0,0.0,0.0,0.0,0.0,0.0,0.0,0.0,0.0,0.0,0.0,0.0,0.0,0.0,0.0,0.0,0.0,0.0,0.0,0.0,0.0,0.0,0.0,0.0,0.0,0.0,0.0,0.0,0.0,0.0,0.0,0.0,0.0,0.0,0.0,0.0,0.0,0.0,0.0,0.0,0.0,0.0,0.0,0.0,0.0,0.0,0.0,0.0,0.0,0.0,0.0,0.0,0.0,0.0,0.0,0.0,0.0,0.0,0.0,0.0,0.0,0.0,0.0,0.0,0.0,0.0,0.0,0.0,0.0,0.0,0.0,0.0,0.0,0.0,0.0,0.0,0.0,0.0,0.0,0.0,0.0,0.0,0.0,0.0,0.0,0.0,0.0,0.0,0.0,0.0,0.0,0.0,0.0,0.0,0.0,0.0,0.0,0.0,0.0,0.0,0.0,0.0,0.0,0.0,0.0,0.0,0.0,0.0,0.0,0.0,0.0,0.0,0.0,0.0,0.0,0.0,0.0,0.0,0.0,0.0,0.0,0.0,0.0,0.0,0.0,0.0,0.0,0.0,0.0,0.0,0.0,0.0,0.0,0.0,0.0,0.0,0.0,0.0,0.0,0.0,0.0,0.0,0.0,0.0,0.0,0.0,0.0,0.0,0.0,0.0,0.0,0.0,0.0,0.0,0.0,0.0,0.0,0.0,0.0,0.0,0.0,0.0,0.0,0.0,0.0,0.0,0.0,0.0,0.0,0.0,0.0,0.0,0.0,0.0,0.0,0.0,0.0,0.0,0.0,0.0,0.0,0.0,0.0,0.0,0.0,0.0,0.0,0.0,0.0,0.0,0.0,0.0,0.0,0.0,0.0,0.0,0.0,0.0,0.0,0.0,0.0,0.0,0.0,0.0,0.0,0.0,0.0,0.0,0.0,0.0,0.0,0.0,0.0,0.0,0.0,0.0,0.0,0.0,0.0,0.0,0.0,0.0,0.0,0.0,0.0,0.0,0.0,0.0,0.0,0.0,0.0,0.0,0.0,0.0,0.0,0.0,0.0,0.0,0.0,0.0,0.0,0.0,0.0,0.0,0.0,0.0,0.0,0.0,0.0,0.0,0.0,0.0,0.0,0.0,0.0,0.0,0.0,0.0,0.0,0.0,0.0,0.0,0.0,0.0,0.0,0.0,0.0,0.0,0.0,0.0,0.0,0.0,0.0,0.0,0.0,0.0,0.0,0.0,0.0,0.0,0.0,0.0,0.0,0.0,0.0,0.0,0.0,0.0,0.0,0.0,0.0,0.0,0.0,0.0,0.0,0.0,0.0,0.0,0.0,0.0,0.0,0.0,0.0,0.0,0.0,0.0,0.0,0.0,0.0,0.0,0.0,0.0,0.0,0.0,0.0,0.0,0.0,0.0,0.0,0.0,0.0,0.0,0.0,0.0,0.0,0.0,0.0,0.0,0.0,0.0,0.0,0.0,0.0,0.0,0.0,0.0,0.0,0.0,0.0,0.0,0.0,0.0,0.0,0.0,0.0,0.0,0.0,0.0,0.0,0.0,0.0,0.0,0.0,0.0,0.0,0.0,0.0,0.0,0.0,0.0,0.0,0.0,0.0,0.0,0.0,0.0,0.0,0.0,0.0,0.0,0.0,0.0,0.0,0.0,0.0,0.0,0.0,0.0,0.0,0.0,0.0,0.0,0.0,0.0,0.0,0.0,0.0,0.0,0.0,0.0,0.0,0.0,0.0,0.0,0.0,0.0,0.0,0.0,0.0,0.0,0.0,0.0,0.0,0.0,0.0,0.0,0.0,0.0,0.0,0.0,0.0,0.0,0.0,0.0,0.0,0.0,0.0,0.0,0.0,0.0,0.0,0.0,0.0,0.0,0.0,0.0,0.0,0.0,0.0,0.0,0.0,0.0,0.0,0.0,0.0,0.0,0.0,0.0,0.0,0.0,0.0,0.0,0.0,0.0,0.0,0.0,0.0,0.0,0.0,0.0,0.0,0.0,0.0,0.0,0.0,0.0,0.0,0.0,0.0,0.0,0.0,0.0,0.0,0.0,0.0,0.0,0.0,0.0,0.0,0.0,0.0,0.0,0.0,0.0,0.0,0.0,0.0,0.0,0.0,0.0,0.0,0.0,0.0,0.0,0.0,0.0,0.0,0.0,0.0,0.0,0.0,0.0,0.0,0.0,0.0,0.0,0.0,0.0,0.0,0.0,0.0,0.0,0.0,0.0,0.0,0.0,0.0,0.0,0.0,0.0,0.0,0.0,0.0,0.0,0.0,0.0,0.0,0.0,0.0,0.0,0.0,0.0,0.0,0.0,0.0,0.0,0.0,0.0,0.0,0.0,0.0,0.0,0.0,0.0,0.0,0.0,0.0,0.0,0.0,0.0,0.0,0.0,0.0,0.0,0.0,0.0,0.0,0.0,0.0,0.0,0.0,0.0,0.0,0.0,0.0,0.0,0.0,0.0,0.0,0.0,0.0,0.0,0.0,0.0,0.0,0.0,0.0,0.0,0.0,0.0,0.0,0.0,0.0,0.0,0.0,0.0,0.0,0.0,0.0,0.0,0.0,0.0,0.0,0.0,0.0,0.0,0.0,0.0,0.0,0.0,0.0,0.0,0.0,0.0,0.0,0.0,0.0,0.0,0.0,0.0,0.0,0.0,0.0,0.0,0.0,0.0,0.0,0.0,0.0,0.0,0.0,0.0,0.0,0.0,0.0,0.0,0.0,0.0,0.0,0.0,0.0,0.0,0.0,0.0,0.0,0.0,0.0,0.0,0.0,0.0,0.0,0.0,0.0,0.0,0.0,0.0,0.0,0.0,0.0,0.0,0.0,0.0,0.0,0.0,0.0,0.0,0.0,0.0,0.0,0.0,0.0,0.0,0.0,0.0,0.0,0.0,0.0,0.0,0.0,0.0,0.0,0.0,0.0,0.0,0.0,0.0,0.0,0.0,0.0,0.0,0.0,0.0,0.0,0.0,0.0,0.0,0.0,0.0,0.0,0.0,0.0,0.0,0.0,0.0,0.0,0.0,0.0,0.0,0.0,0.0,0.0,0.0,0.0,0.0,0.0,0.0,0.0,0.0,0.0,0.0,0.0,0.0,0.0,0.0,0.0,0.0,0.0,0.0,0.0,0.0,0.0,0.0,0.0,0.0,0.0,0.0,0.0,0.0,0.0,0.0,0.0,0.0,0.0,0.0,0.0,0.0,0.0,0.0,0.0,0.0,0.0,0.0,0.0,0.0,0.0,0.0,0.0,0.0,0.0,0.0,0.0,0.0,0.0,0.0,0.0,0.0,0.0,0.0,0.0,0.0,0.0,0.0,0.0,0.0,0.0,0.0,0.0,0.0,0.0,0.0,0.0,0.0,0.0,0.0,0.0,0.0,0.0,0.0,0.0,0.0,0.0,0.0,0.0,0.0,0.0,0.0,0.0,0.0,0.0,0.0,0.0,0.0,0.0,0.0,0.0,0.0,0.0,0.0,0.0,0.0,0.0,0.0,0.0,0.0,0.0,0.0,0.0,0.0,0.0,0.0,0.0,0.0,0.0,0.0,0.0,0.0,0.0,0.0,0.0,0.0,0.0,0.0,0.0,0.0,0.0,0.0,0.0,0.0,0.0,0.0,0.0,0.0,0.0,0.0,0.0,0.0,0.0,0.0,-1.1996,0.0,0.0,0.0,0.0,0.0,0.0,0.0,0.0,0.0,0.0,0.0,0.0,0.0,0.0,0.0,0.0,0.0,0.0,0.0,0.0,0.0,0.0,0.0,0.0,0.0,0.0,0.0,0.0,0.0,0.0,0.0,0.0,0.0,0.0,0.0,0.0,0.0,0.0,0.0,0.0,0.0,0.0,0.0,0.0,0.0,0.0,0.0,0.0,0.0,0.0,0.0,0.0,0.0,0.0,0.0,0.0,0.0,0.0,0.0,0.0,0.0,0.0,0.0,0.0,0.0,0.0,0.0,0.0,0.0,0.0,0.0,0.0,0.0,0.0,0.0,0.0,0.0,0.0,0.0,0.0,0.0,0.0,0.0,0.0,0.0,0.0,0.0,0.0,0.0,0.0,0.0,0.0,0.0,0.0,0.0,0.0,0.0,0.0,0.0,0.0,0.0,0.0,0.0,0.0,0.0,0.0,0.0,0.0,0.0,0.0,-1.135,-1.1533,-1.1715,-1.1843,-1.1964,0.0,0.0,0.0,0.0,0.0,0.0,0.0,0.0,0.0,0.0,0.0,0.0,0.0,0.0,0.0,0.0,0.0,0.0,0.0,0.0,0.0,0.0,0.0,0.0,0.0,0.0,0.0,0.0,0.0,0.0,0.0,0.0,0.0,0.0,0.0,0.0,0.0,0.0,0.0,0.0,0.0,0.0,0.0,0.0,0.0,0.0,0.0,0.0,0.0,0.0,0.0,0.0,0.0,0.0,0.0,0.0,0.0,0.0,0.0,0.0,0.0,0.0,0.0,0.0,0.0,0.0,0.0,0.0,0.0,0.0,0.0,0.0,0.0,0.0,0.0,0.0,0.0,0.0,0.0,0.0,0.0,0.0,0.0,0.0,0.0,0.0,0.0,0.0,0.0,0.0,0.0,0.0,0.0,0.0,0.0,0.0,0.0,0.0,0.0,0.0,0.0,0.0,0.0,0.0,0.0,0.0,0.0,0.0,0.0,0.0,0.0,0.0,-1.1822,-1.2,-1.2206,0.0,0.0,0.0,0.0,0.0,0.0,0.0,0.0,0.0,0.0,0.0,0.0,0.0,0.0,0.0,0.0,0.0,0.0,0.0,0.0,0.0,0.0,0.0,0.0,0.0,0.0,0.0,0.0,0.0,0.0,0.0,0.0,0.0,0.0,0.0,0.0,0.0,0.0,0.0,0.0,0.0,0.0,0.0,0.0,0.0,0.0,0.0,0.0,0.0,0.0,0.0,0.0,0.0,0.0,0.0,0.0,0.0,0.0,0.0,0.0,0.0,0.0,0.0,0.0,0.0,0.0,0.0,0.0,0.0,0.0,0.0,0.0,0.0,0.0,0.0,0.0,0.0,0.0,0.0,0.0,0.0,0.0,0.0,0.0,0.0,0.0,0.0,0.0,0.0,0.0,0.0,0.0,0.0,0.0,0.0,0.0,0.0,0.0,0.0,0.0,0.0,0.0,0.0,0.0,0.0,0.0,0.0,0.0,0.0,0.0,-1.1931,-1.2496,-1.2314,0.0,-1.3305,0.0,0.0,0.0,0.0,0.0,0.0,0.0,0.0,0.0,0.0,0.0,0.0,0.0,0.0,0.0,0.0,0.0,0.0,0.0,0.0,0.0,0.0,0.0,0.0,0.0,0.0,0.0,0.0,0.0,0.0,0.0,0.0,0.0,0.0,0.0,0.0,0.0,0.0,0.0,0.0,0.0,0.0,0.0,0.0,0.0,0.0,0.0,0.0,0.0,0.0,0.0,0.0,0.0,0.0,0.0,0.0,0.0,0.0,0.0,0.0,0.0,0.0,0.0,0.0,0.0,0.0,0.0,0.0,0.0,0.0,0.0,0.0,0.0,0.0,0.0,0.0,0.0,0.0,0.0,0.0,0.0,0.0,0.0,0.0,0.0,0.0,0.0,0.0,0.0,0.0,0.0,0.0,0.0,0.0,0.0,0.0,0.0,0.0,0.0,0.0,0.0,0.0,0.0,0.0,0.0,0.0,0.0,0.0,0.0,0.0,-1.2209,-1.2541,-1.2638,-1.3134,0.0,0.0,0.0,0.0,0.0,0.0,0.0,0.0,0.0,0.0,0.0,0.0,0.0,0.0,0.0,0.0,0.0,0.0,0.0,0.0,0.0,0.0,0.0,0.0,0.0,0.0,0.0,0.0,0.0,0.0,0.0,0.0,0.0,0.0,0.0,0.0,0.0,0.0,0.0,0.0,0.0,0.0,0.0,0.0,0.0,0.0,0.0,0.0,0.0,0.0,0.0,0.0,0.0,0.0,0.0,0.0,0.0,0.0,0.0,0.0,0.0,0.0,0.0,0.0,0.0,0.0,0.0,0.0,0.0,0.0,0.0,0.0,0.0,0.0,0.0,0.0,0.0,0.0,0.0,0.0,0.0,0.0,0.0,0.0,0.0,0.0,0.0,0.0,0.0,0.0,0.0,0.0,0.0,0.0,0.0,0.0,0.0,0.0,0.0,0.0,0.0,0.0,0.0,0.0,0.0,0.0,0.0,0.0,0.0,0.0,-1.2449,-1.2489,-1.273,-1.3182,-1.3776,-1.446,0.0,0.0,0.0,0.0,0.0,0.0,0.0,0.0,0.0,0.0,0.0,0.0,0.0,0.0,0.0,0.0,0.0,0.0,0.0,0.0,0.0,0.0,0.0,0.0,0.0,0.0,0.0,0.0,0.0,0.0,0.0,0.0,0.0,0.0,0.0,0.0,0.0,0.0,0.0,0.0,0.0,0.0,0.0,0.0,0.0,0.0,0.0,0.0,0.0,0.0,0.0,0.0,0.0,0.0,0.0,0.0,0.0,0.0,0.0,0.0,0.0,0.0,0.0,0.0,0.0,0.0,0.0,0.0,0.0,0.0,0.0,0.0,0.0,0.0,0.0,0.0,0.0,0.0,0.0,0.0,0.0,0.0,0.0,0.0,0.0,0.0,0.0,0.0,0.0,0.0,0.0,0.0,0.0,0.0,0.0,0.0,0.0,0.0,0.0,0.0,0.0,0.0,0.0,0.0,0.0,0.0,0.0,0.0,-1.2613,-1.2695,-1.2896,-1.3358,-1.4064,-1.4451,0.0,0.0,0.0,0.0,0.0,0.0,0.0,0.0,0.0,0.0,0.0,0.0,0.0,0.0,0.0,0.0,0.0,0.0,0.0,0.0,0.0,0.0,0.0,0.0,0.0,0.0,0.0,0.0,0.0,0.0,0.0,0.0,0.0,0.0,0.0,0.0,0.0,0.0,0.0,0.0,0.0,0.0,0.0,0.0,0.0,0.0,0.0,0.0,0.0,0.0,0.0,0.0,0.0,0.0,0.0,0.0,0.0,0.0,0.0,0.0,0.0,0.0,0.0,0.0,0.0,0.0,0.0,0.0,0.0,0.0,0.0,0.0,0.0,0.0,0.0,0.0,0.0,0.0,0.0,0.0,0.0,0.0,0.0,0.0,0.0,0.0,0.0,0.0,0.0,0.0,0.0,0.0,0.0,0.0,0.0,0.0,0.0,0.0,0.0,0.0,0.0,0.0,0.0,0.0,0.0,0.0,0.0,0.0,0.0,-1.3147,-1.3391,-1.3729,-1.4083,-1.4337,-1.4647,0.0,0.0,0.0,0.0,0.0,0.0,0.0,0.0,0.0,0.0,0.0,0.0,0.0,0.0,0.0,0.0,0.0,0.0,0.0,0.0,0.0,0.0,0.0,0.0,0.0,0.0,0.0,0.0,0.0,0.0,0.0,0.0,0.0,0.0,0.0,0.0,0.0,0.0,0.0,0.0,0.0,0.0,0.0,0.0,0.0,0.0,0.0,0.0,0.0,0.0,0.0,0.0,0.0,0.0,0.0,0.0,0.0,0.0,0.0,0.0,0.0,0.0,0.0,0.0,0.0,0.0,0.0,0.0,0.0,0.0,0.0,0.0,0.0,0.0,0.0,0.0,0.0,0.0,0.0,0.0,0.0,0.0,0.0,0.0,0.0,0.0,0.0,0.0,0.0,0.0,0.0,0.0,0.0,0.0,0.0,0.0,0.0,0.0,0.0,0.0,0.0,0.0,0.0,0.0,0.0,0.0,0.0,0.0,0.0,-1.4118,0.0,-1.468,-1.5037,-1.5168,-1.5352,0.0,0.0,0.0,0.0,0.0,0.0,0.0,0.0,0.0,0.0,0.0,0.0,0.0,0.0,0.0,0.0,0.0,0.0,0.0,0.0,0.0,0.0,0.0,0.0,0.0,0.0,0.0,0.0,0.0,0.0,0.0,0.0,0.0,0.0,0.0,0.0,0.0,0.0,0.0,0.0,0.0,0.0,0.0,0.0,0.0,0.0,0.0,0.0,0.0,0.0,0.0,0.0,0.0,0.0,0.0,0.0,0.0,0.0,0.0,0.0,0.0,0.0,0.0,0.0,0.0,0.0,0.0,0.0,0.0,0.0,0.0,0.0,0.0,0.0,0.0,0.0,0.0,0.0,0.0,0.0,0.0,0.0,0.0,0.0,0.0,0.0,0.0,0.0,0.0,0.0,0.0,0.0,0.0,0.0,0.0,0.0,0.0,0.0,0.0,0.0,0.0,0.0,0.0,0.0,0.0,0.0,0.0,0.0,-1.4281,-1.5468,-1.5624,-1.5891,-1.6201,-1.6583,-1.6566,0.0,0.0,0.0,0.0,0.0,0.0,0.0,0.0,0.0,0.0,0.0,0.0,0.0,0.0,0.0,0.0,0.0,0.0,0.0,0.0,0.0,0.0,0.0,0.0,0.0,0.0,0.0,0.0,0.0,0.0,0.0,0.0,0.0,0.0,0.0,0.0,0.0,0.0,0.0,0.0,0.0,0.0,0.0,0.0,0.0,0.0,0.0,0.0,0.0,0.0,0.0,0.0,0.0,0.0,0.0,0.0,0.0,0.0,0.0,0.0,0.0,0.0,0.0,0.0,0.0,0.0,0.0,0.0,0.0,0.0,0.0,0.0,0.0,0.0,0.0,0.0,0.0,0.0,0.0,0.0,0.0,0.0,0.0,0.0,0.0,0.0,0.0,0.0,0.0,0.0,0.0,0.0,0.0,0.0,0.0,0.0,0.0,0.0,0.0,0.0,0.0,0.0,0.0,0.0,0.0,0.0,0.0,0.0,0.0,-1.6336,-1.6711,-1.7054,-1.7321,-1.7239,-1.7283,0.0,0.0,0.0,0.0,0.0,0.0,0.0,0.0,0.0,0.0,0.0,0.0,0.0,0.0,0.0,0.0,0.0,0.0,0.0,0.0,0.0,0.0,0.0,0.0,0.0,0.0,0.0,0.0,0.0,0.0,0.0,0.0,0.0,0.0,0.0,0.0,0.0,0.0,0.0,0.0,0.0,0.0,0.0,0.0,0.0,0.0,0.0,0.0,0.0,0.0,0.0,0.0,0.0,0.0,0.0,0.0,0.0,0.0,0.0,0.0,0.0,0.0,0.0,0.0,0.0,0.0,0.0,0.0,0.0,0.0,0.0,0.0,0.0,0.0,0.0,0.0,0.0,0.0,0.0,0.0,0.0,0.0,0.0,0.0,0.0,0.0,0.0,0.0,0.0,0.0,0.0,0.0,0.0,0.0,0.0,0.0,0.0,0.0,0.0,0.0,0.0,0.0,0.0,0.0,0.0,0.0,0.0,0.0,0.0,-1.8533,-1.8538,-1.8668,-1.8965,-1.8832,-1.8664,-1.8354,0.0,0.0,0.0,0.0,0.0,0.0,0.0,0.0,0.0,0.0,0.0,0.0,0.0,0.0,0.0,0.0,0.0,0.0,0.0,0.0,0.0,0.0,0.0,0.0,0.0,0.0,0.0,0.0,0.0,0.0,0.0,0.0,0.0,0.0,0.0,0.0,0.0,0.0,0.0,0.0,0.0,0.0,0.0,0.0,0.0,0.0,0.0,0.0,0.0,0.0,0.0,0.0,0.0,0.0,0.0,0.0,0.0,0.0,0.0,0.0,0.0,0.0,0.0,0.0,0.0,0.0,0.0,0.0,0.0,0.0,0.0,0.0,0.0,0.0,0.0,0.0,0.0,0.0,0.0,0.0,0.0,0.0,0.0,0.0,0.0,0.0,0.0,0.0,0.0,0.0,0.0,0.0,0.0,0.0,0.0,0.0,0.0,0.0,0.0,0.0,0.0,0.0,0.0,0.0,0.0,0.0,0.0,0.0,-2.176,-2.0977,-2.0703,-2.1045,-2.1188,-2.0589,0.0,0.0,0.0,0.0,0.0,0.0,0.0,0.0,0.0,0.0,0.0,0.0,0.0,0.0,0.0,0.0,0.0,0.0,0.0,0.0,0.0,0.0,0.0,0.0,0.0,0.0,0.0,0.0,0.0,0.0,0.0,0.0,0.0,0.0,0.0,0.0,0.0,0.0,0.0,0.0,0.0,0.0,0.0,0.0,0.0,0.0,0.0,0.0,0.0,0.0,0.0,0.0,0.0,0.0,0.0,0.0,0.0,0.0,0.0,0.0,0.0,0.0,0.0,0.0,0.0,0.0,0.0,0.0,0.0,0.0,0.0,0.0,0.0,0.0,0.0,0.0,0.0,0.0,0.0,0.0,0.0,0.0,0.0,0.0,0.0,0.0,0.0,0.0,0.0,0.0,0.0,0.0,0.0,0.0,0.0,0.0,0.0,0.0,0.0,0.0,0.0,0.0,0.0,0.0,0.0,0.0,0.0,0.0,0.0,-2.3394,-2.3574,-2.3464,-2.3157,-2.2372,-2.1712,0.0,0.0,0.0,0.0,0.0,0.0,0.0,0.0,0.0,0.0,0.0,0.0,0.0,0.0,0.0,0.0,0.0,0.0,0.0,0.0,0.0,0.0,0.0,0.0,0.0,0.0,0.0,0.0,0.0,0.0,0.0,0.0,0.0,0.0,0.0,0.0,0.0,0.0,0.0,0.0,0.0,0.0,0.0,0.0,0.0,0.0,0.0,0.0,0.0,0.0,0.0,0.0,0.0,0.0,0.0,0.0,0.0,0.0,0.0,0.0,0.0,0.0,0.0,0.0,0.0,0.0,0.0,0.0,0.0,0.0,0.0,0.0,0.0,0.0,0.0,0.0,0.0,0.0,0.0,0.0,0.0,0.0,0.0,0.0,0.0,0.0,0.0,0.0,0.0,0.0,0.0,0.0,0.0,0.0,0.0,0.0,0.0,0.0,0.0,0.0,0.0,0.0,0.0,0.0,0.0,0.0,0.0,0.0,-2.2938,-2.4296,-2.5118,-2.5371,-2.5033,-2.3821,-2.2701,0.0,0.0,0.0,0.0,0.0,0.0,0.0,0.0,0.0,0.0,0.0,0.0,0.0,0.0,0.0,0.0,0.0,0.0,0.0,0.0,0.0,0.0,0.0,0.0,0.0,0.0,0.0,0.0,0.0,0.0,0.0,0.0,0.0,0.0,0.0,0.0,0.0,0.0,0.0,0.0,0.0,0.0,0.0,0.0,0.0,0.0,0.0,0.0,0.0,0.0,0.0,0.0,0.0,0.0,0.0,0.0,0.0,0.0,0.0,0.0,0.0,0.0,0.0,0.0,0.0,0.0,0.0,0.0,0.0,0.0,0.0,0.0,0.0,0.0,0.0,0.0,0.0,0.0,0.0,0.0,0.0,0.0,0.0,0.0,0.0,0.0,0.0,0.0,0.0,0.0,0.0,0.0,0.0,0.0,0.0,0.0,0.0,0.0,0.0,0.0,0.0,0.0,0.0,0.0,0.0,0.0,0.0,0.0,-2.4102,-2.4654,-2.5849,-2.6517,-2.6403,-2.5161,-2.3658,0.0,0.0,0.0,0.0,0.0,0.0,0.0,0.0,0.0,0.0,0.0,0.0,0.0,0.0,0.0,0.0,0.0,0.0,0.0,0.0,0.0,0.0,0.0,0.0,0.0,0.0,0.0,0.0,0.0,0.0,0.0,0.0,0.0,0.0,0.0,0.0,0.0,0.0,0.0,0.0,0.0,0.0,0.0,0.0,0.0,0.0,0.0,0.0,0.0,0.0,0.0,0.0,0.0,0.0,0.0,0.0,0.0,0.0,0.0,0.0,0.0,0.0,0.0,0.0,0.0,0.0,0.0,0.0,0.0,0.0,0.0,0.0,0.0,0.0,0.0,0.0,0.0,0.0,0.0,0.0,0.0,0.0,0.0,0.0,0.0,0.0,0.0,0.0,0.0,0.0,0.0,0.0,0.0,0.0,0.0,0.0,0.0,0.0,0.0,0.0,0.0,0.0,0.0,0.0,0.0,0.0,0.0,0.0,-2.4217,-2.5018,-2.5643,-2.5675,-2.5155,-2.4625,-2.3937,0.0,0.0,0.0,0.0,0.0,0.0,0.0,0.0,0.0,0.0,0.0,0.0,0.0,0.0,0.0,0.0,0.0,0.0,0.0,0.0,0.0,0.0,0.0,0.0,0.0,0.0,0.0,0.0,0.0,0.0,0.0,0.0,0.0,0.0,0.0,0.0,0.0,0.0,0.0,0.0,0.0,0.0,0.0,0.0,0.0,0.0,0.0,0.0,-2.5484,0.0,0.0,0.0,0.0,0.0,0.0,0.0,0.0,0.0,0.0,0.0,0.0,0.0,0.0,0.0,0.0,0.0,0.0,0.0,0.0,0.0,0.0,0.0,0.0,0.0,0.0,0.0,0.0,0.0,0.0,0.0,0.0,0.0,0.0,0.0,0.0,0.0,0.0,0.0,0.0,0.0,0.0,0.0,0.0,0.0,0.0,0.0,0.0,0.0,0.0,0.0,0.0,0.0,0.0,0.0,0.0,0.0,0.0,0.0,-2.4844,-2.5762,-2.6202,-2.6288,-2.5982,-2.5186,-2.4409,0.0,0.0,0.0,0.0,0.0,0.0,0.0,0.0,0.0,0.0,0.0,0.0,0.0,0.0,0.0,0.0,0.0,0.0,0.0,0.0,0.0,0.0,0.0,0.0,0.0,0.0,0.0,0.0,0.0,0.0,0.0,0.0,0.0,0.0,0.0,0.0,0.0,0.0,0.0,0.0,0.0,0.0,0.0,0.0,0.0,0.0,0.0,0.0,0.0,0.0,0.0,0.0,0.0,0.0,0.0,0.0,0.0,0.0,0.0,0.0,0.0,0.0,0.0,0.0,0.0,0.0,0.0,0.0,0.0,0.0,0.0,0.0,0.0,0.0,0.0,0.0,0.0,0.0,0.0,0.0,0.0,0.0,0.0,0.0,0.0,0.0,0.0,0.0,0.0,0.0,0.0,0.0,0.0,0.0,0.0,0.0,0.0,0.0,0.0,0.0,0.0,0.0,0.0,0.0,0.0,0.0,0.0,-2.4336,-2.5541,-2.6441,-2.6873,-2.7127,-2.7034,-2.6055,-2.4777,-2.3392,0.0,0.0,0.0,0.0,0.0,0.0,0.0,0.0,0.0,0.0,0.0,0.0,0.0,0.0,0.0,0.0,0.0,0.0,0.0,0.0,0.0,0.0,0.0,0.0,0.0,0.0,0.0,0.0,0.0,0.0,0.0,0.0,0.0,0.0,0.0,0.0,0.0,0.0,-2.4328,-2.5306,0.0,0.0,0.0,0.0,0.0,0.0,0.0,0.0,-2.7664,0.0,0.0,0.0,0.0,0.0,0.0,0.0,0.0,0.0,0.0,0.0,0.0,0.0,0.0,0.0,0.0,0.0,0.0,0.0,0.0,0.0,0.0,0.0,0.0,0.0,0.0,0.0,0.0,0.0,0.0,0.0,0.0,0.0,0.0,0.0,0.0,0.0,0.0,0.0,0.0,0.0,0.0,0.0,0.0,0.0,0.0,0.0,0.0,0.0,0.0,0.0,0.0,0.0,0.0,0.0,0.0,-2.3288,-2.4316,-2.5328,-2.6215,-2.6329,-2.6331,-2.6113,-2.5533,-2.4898,-2.4246,0.0,0.0,0.0,0.0,0.0,0.0,0.0,0.0,0.0,0.0,0.0,0.0,0.0,0.0,0.0,0.0,0.0,0.0,0.0,0.0,0.0,0.0,0.0,0.0,0.0,0.0,0.0,0.0,0.0,0.0,0.0,0.0,0.0,0.0,0.0,0.0,0.0,0.0,0.0,-2.5431,-2.6329,0.0,0.0,0.0,0.0,0.0,0.0,0.0,0.0,-2.9058,0.0,0.0,0.0,0.0,0.0,0.0,0.0,0.0,0.0,0.0,0.0,0.0,0.0,0.0,0.0,0.0,0.0,0.0,0.0,0.0,0.0,0.0,0.0,0.0,0.0,0.0,0.0,0.0,0.0,0.0,0.0,0.0,0.0,0.0,0.0,0.0,0.0,0.0,0.0,0.0,0.0,0.0,0.0,0.0,0.0,0.0,0.0,0.0,0.0,0.0,0.0,0.0,0.0,0.0,0.0,-2.3624,-2.5013,-2.5979,-2.6699,-2.69,-2.7074,-2.6941,-2.6289,-2.5565,0.0,0.0,0.0,0.0,0.0,0.0,0.0,0.0,0.0,0.0,0.0,0.0,0.0,0.0,0.0,0.0,0.0,0.0,0.0,0.0,0.0,0.0,0.0,0.0,0.0,0.0,0.0,0.0,0.0,0.0,0.0,0.0,0.0,0.0,0.0,0.0,0.0,0.0,0.0,0.0,-2.6529,-2.7509,-2.9154,0.0,0.0,0.0,0.0,0.0,0.0,-3.1053,-3.0615,0.0,0.0,0.0,0.0,0.0,0.0,0.0,0.0,0.0,0.0,0.0,0.0,0.0,0.0,0.0,0.0,0.0,0.0,0.0,0.0,0.0,0.0,0.0,0.0,0.0,0.0,0.0,0.0,0.0,0.0,0.0,0.0,0.0,0.0,0.0,0.0,0.0,0.0,0.0,0.0,0.0,0.0,0.0,0.0,0.0,0.0,0.0,0.0,0.0,0.0,0.0,0.0,0.0,0.0,0.0,-2.3869,-2.5451,-2.6587,-2.7107,-2.7508,-2.7693,-2.7769,-2.69,-2.6014,0.0,0.0,0.0,0.0,0.0,0.0,0.0,0.0,0.0,0.0,0.0,0.0,0.0,0.0,0.0,0.0,0.0,0.0,0.0,0.0,0.0,0.0,0.0,0.0,0.0,0.0,0.0,0.0,0.0,0.0,0.0,0.0,0.0,0.0,0.0,0.0,0.0,0.0,0.0,0.0,0.0,-2.8576,-3.0541,-3.0888,0.0,0.0,0.0,0.0,-3.2784,-3.2822,0.0,0.0,0.0,0.0,0.0,0.0,0.0,0.0,0.0,0.0,0.0,0.0,0.0,0.0,0.0,0.0,0.0,0.0,0.0,0.0,0.0,0.0,0.0,0.0,0.0,0.0,0.0,0.0,0.0,0.0,0.0,0.0,0.0,0.0,0.0,0.0,0.0,0.0,0.0,0.0,0.0,0.0,0.0,0.0,0.0,0.0,0.0,0.0,0.0,0.0,0.0,0.0,0.0,0.0,0.0,0.0,-2.4138,-2.5152,-2.6039,-2.6855,-2.6982,-2.7164,-2.7324,-2.6444,-2.5602,0.0,0.0,0.0,0.0,0.0,0.0,0.0,0.0,0.0,0.0,0.0,0.0,0.0,0.0,0.0,0.0,0.0,0.0,0.0,0.0,0.0,0.0,0.0,0.0,0.0,0.0,0.0,0.0,0.0,0.0,0.0,0.0,0.0,0.0,0.0,0.0,0.0,0.0,0.0,0.0,0.0,-2.8545,-3.0507,-3.0939,-3.1124,0.0,0.0,-3.4072,-3.4414,-3.4956,0.0,0.0,0.0,0.0,0.0,0.0,0.0,0.0,0.0,0.0,0.0,0.0,0.0,0.0,0.0,0.0,0.0,0.0,0.0,0.0,0.0,0.0,0.0,0.0,0.0,0.0,0.0,0.0,0.0,0.0,0.0,0.0,0.0,0.0,0.0,0.0,0.0,0.0,0.0,0.0,0.0,0.0,0.0,0.0,0.0,0.0,0.0,0.0,0.0,0.0,0.0,0.0,0.0,0.0,0.0,-2.3202,-2.4323,-2.5283,-2.6104,-2.6688,-2.6794,-2.6986,-2.7262,-2.6361,-2.5664,0.0,0.0,0.0,0.0,0.0,0.0,0.0,0.0,0.0,0.0,0.0,0.0,0.0,0.0,0.0,0.0,0.0,0.0,0.0,0.0,0.0,0.0,0.0,0.0,0.0,0.0,0.0,0.0,0.0,0.0,0.0,0.0,0.0,0.0,0.0,0.0,0.0,0.0,0.0,0.0,0.0,0.0,-3.1831,-3.2478,0.0,0.0,0.0,-3.5116,-3.5743,0.0,0.0,0.0,0.0,0.0,0.0,0.0,0.0,0.0,0.0,0.0,0.0,0.0,0.0,0.0,0.0,0.0,0.0,0.0,0.0,0.0,0.0,0.0,0.0,0.0,0.0,0.0,0.0,0.0,0.0,0.0,0.0,0.0,0.0,0.0,0.0,0.0,0.0,0.0,0.0,0.0,0.0,0.0,0.0,0.0,0.0,0.0,0.0,0.0,0.0,0.0,0.0,0.0,0.0,0.0,0.0,0.0,-2.4404,-2.5559,-2.6197,-2.6496,-2.6805,-2.6986,-2.7241,-2.6475,0.0,0.0,0.0,0.0,0.0,0.0,0.0,0.0,0.0,0.0,0.0,0.0,0.0,0.0,0.0,0.0,0.0,0.0,0.0,0.0,0.0,0.0,0.0,0.0,0.0,0.0,0.0,-2.6096,0.0,0.0,0.0,0.0,0.0,0.0,0.0,0.0,0.0,0.0,0.0,0.0,0.0,0.0,-3.1921,-3.3124,-3.4074,-3.4888,0.0,0.0,-3.6263,-3.6992,-3.7378,-3.7136,0.0,0.0,0.0,0.0,0.0,0.0,0.0,0.0,0.0,0.0,0.0,0.0,0.0,0.0,0.0,0.0,0.0,0.0,0.0,0.0,0.0,0.0,0.0,0.0,0.0,0.0,0.0,0.0,0.0,0.0,0.0,0.0,0.0,0.0,0.0,0.0,0.0,0.0,0.0,0.0,0.0,0.0,0.0,0.0,0.0,0.0,0.0,0.0,0.0,0.0,0.0,0.0,0.0,0.0,0.0,-2.4414,-2.5549,-2.6187,-2.6506,-2.6794,-2.6986,-2.7251,-2.6775,-2.6113,0.0,0.0,0.0,0.0,0.0,0.0,0.0,0.0,0.0,0.0,0.0,0.0,0.0,0.0,0.0,0.0,0.0,0.0,0.0,0.0,0.0,0.0,0.0,0.0,0.0,0.0,0.0,0.0,0.0,0.0,0.0,0.0,0.0,0.0,0.0,0.0,0.0,0.0,0.0,0.0,0.0,-3.3388,-3.3955,-3.525,-3.6263,0.0,0.0,-3.7732,-3.8077,-3.8692,-3.8446,-3.6487,0.0,0.0,0.0,0.0,0.0,0.0,0.0,0.0,0.0,0.0,0.0,0.0,0.0,0.0,0.0,0.0,0.0,0.0,0.0,0.0,0.0,0.0,0.0,0.0,0.0,0.0,0.0,0.0,0.0,0.0,0.0,0.0,0.0,0.0,0.0,0.0,0.0,0.0,0.0,0.0,0.0,0.0,0.0,0.0,0.0,0.0,0.0,0.0,0.0,0.0,0.0,0.0,0.0,-2.3564,-2.4404,-2.5379,-2.6014,-2.6294,-2.6496,-2.6794,-2.7081,-2.6723,-2.6403,0.0,0.0,0.0,0.0,0.0,0.0,0.0,0.0,0.0,0.0,0.0,0.0,0.0,0.0,0.0,0.0,0.0,0.0,0.0,0.0,0.0,0.0,0.0,0.0,0.0,0.0,0.0,0.0,-3.2346,-3.2703,-3.2278,0.0,0.0,0.0,0.0,0.0,0.0,0.0,0.0,0.0,0.0,-3.5036,-3.6127,-3.678,0.0,0.0,-3.8051,-3.8275,-3.8897,-3.9265,-3.8902,-3.7367,-3.6243,0.0,0.0,0.0,0.0,0.0,0.0,0.0,0.0,0.0,0.0,0.0,0.0,0.0,0.0,0.0,0.0,0.0,0.0,0.0,0.0,0.0,0.0,0.0,0.0,0.0,0.0,0.0,0.0,0.0,0.0,0.0,0.0,0.0,0.0,0.0,0.0,0.0,0.0,0.0,0.0,0.0,0.0,0.0,0.0,0.0,0.0,0.0,0.0,0.0,0.0,0.0,0.0,-2.3691,-2.4414,-2.5379,-2.5917,-2.6197,-2.6496,-2.6699,-2.6986,-2.6867,-2.6713,0.0,0.0,0.0,0.0,0.0,0.0,0.0,0.0,0.0,0.0,0.0,0.0,0.0,0.0,0.0,0.0,0.0,0.0,0.0,0.0,0.0,0.0,0.0,0.0,0.0,0.0,0.0,0.0,-3.3408,-3.3552,-3.278,0.0,0.0,0.0,0.0,0.0,0.0,0.0,0.0,0.0,0.0,-3.6852,-3.7892,-3.8223,-3.852,-3.9102,-3.8861,-3.8885,-3.9523,-3.959,-3.9207,-3.8136,0.0,0.0,0.0,0.0,0.0,0.0,0.0,0.0,0.0,0.0,0.0,0.0,0.0,0.0,0.0,0.0,0.0,0.0,0.0,0.0,0.0,0.0,0.0,0.0,0.0,0.0,0.0,0.0,0.0,0.0,-1.752,0.0,0.0,0.0,0.0,0.0,0.0,0.0,0.0,0.0,0.0,0.0,0.0,0.0,0.0,0.0,0.0,0.0,0.0,0.0,0.0,0.0,0.0,-2.3984,-2.4424,-2.5464,-2.6207,-2.6496,-2.6794,-2.6996,-2.7262,-2.7251,-2.7034,-2.6579,0.0,0.0,0.0,0.0,0.0,0.0,0.0,0.0,0.0,0.0,0.0,0.0,0.0,0.0,0.0,0.0,0.0,0.0,0.0,0.0,0.0,0.0,0.0,0.0,0.0,0.0,-3.1789,-3.3115,-3.3904,0.0,0.0,0.0,0.0,0.0,0.0,0.0,0.0,0.0,0.0,-3.7246,-3.874,-3.8773,-3.9413,-3.9867,-4.0037,-3.9816,-3.9713,-3.9918,-3.9798,-3.9426,0.0,0.0,0.0,0.0,0.0,0.0,0.0,0.0,0.0,0.0,0.0,0.0,0.0,0.0,0.0,0.0,0.0,0.0,0.0,0.0,0.0,0.0,0.0,0.0,0.0,0.0,0.0,-2.1615,-2.1311,0.0,0.0,0.0,0.0,0.0,0.0,0.0,0.0,0.0,0.0,0.0,-2.2813,-2.2969,0.0,0.0,0.0,0.0,0.0,0.0,0.0,0.0,0.0,0.0,0.0,0.0,-2.3994,-2.4434,-2.5379,-2.5917,-2.6197,-2.6496,-2.6794,-2.6986,-2.7177,-2.7044,-2.6579,0.0,0.0,0.0,0.0,0.0,0.0,0.0,0.0,0.0,0.0,0.0,0.0,0.0,0.0,0.0,0.0,0.0,0.0,0.0,0.0,0.0,0.0,0.0,0.0,0.0,-3.3371,0.0,0.0,0.0,0.0,0.0,0.0,0.0,0.0,0.0,0.0,0.0,-3.6679,-3.7658,-3.8417,-3.9108,-3.9714,-4.0459,-4.0917,0.0,0.0,0.0,0.0,0.0,0.0,0.0,0.0,0.0,0.0,0.0,0.0,0.0,0.0,-3.6026,-3.3944,-3.4276,-3.5042,-3.5566,0.0,0.0,0.0,0.0,0.0,0.0,0.0,0.0,0.0,0.0,0.0,0.0,0.0,0.0,-2.2939,0.0,-2.2778,0.0,0.0,0.0,0.0,0.0,0.0,0.0,0.0,-2.3524,-2.4108,-2.4065,-2.4147,-2.4228,0.0,-2.3789,-2.3154,0.0,0.0,0.0,0.0,0.0,0.0,0.0,0.0,-2.415,-2.4443,-2.5283,-2.583,-2.6091,-2.64,-2.6602,-2.69,-2.7177,-2.7117,-2.6817,-2.6837,-2.687,0.0,0.0,0.0,0.0,0.0,0.0,0.0,0.0,0.0,0.0,0.0,0.0,0.0,0.0,0.0,0.0,0.0,0.0,0.0,0.0,0.0,0.0,0.0,-3.4636,0.0,0.0,0.0,0.0,0.0,0.0,0.0,0.0,0.0,-3.6273,-3.7422,-3.8684,-3.9631,-3.9969,-4.0358,-4.0985,0.0,0.0,0.0,0.0,0.0,0.0,0.0,-4.1297,-4.0927,-4.0935,-4.0816,-4.0421,-4.0228,-3.9978,-3.9588,0.0,0.0,-3.6636,-3.6775,-3.7546,-3.8052,-3.8194,-3.8373,-3.8898,-3.8989,-3.8989,0.0,0.0,0.0,0.0,0.0,0.0,0.0,0.0,-2.3398,-2.3162,0.0,-2.3008,0.0,0.0,0.0,0.0,0.0,-2.2435,0.0,0.0,-2.4814,-2.5208,-2.5098,-2.5078,-2.5088,-2.5059,-2.4648,-2.4443,-2.4385,-2.3643,0.0,0.0,0.0,0.0,0.0,0.0,-2.4443,-2.4473,-2.5303,-2.583,-2.61,-2.64,-2.6602,-2.6996,-2.7272,-2.7441,-2.7431,-2.7201,-2.757,-2.8679,-2.7793,0.0,0.0,0.0,0.0,0.0,0.0,0.0,0.0,0.0,0.0,0.0,0.0,0.0,0.0,0.0,0.0,0.0,0.0,0.0,0.0,-3.4775,0.0,0.0,0.0,0.0,0.0,0.0,0.0,0.0,0.0,0.0,-3.8083,-3.9834,-4.1238,-4.1221,0.0,0.0,0.0,0.0,-4.274,-4.3182,-4.3149,-4.3199,-4.3576,-4.3523,-4.3374,-4.3322,0.0,0.0,-4.3191,-4.2822,-4.2606,-4.2856,-4.3379,-4.3036,-3.9986,-4.004,-4.0564,-4.0564,-4.0528,-4.0564,-4.0582,-4.06,-4.0582,-2.6801,0.0,0.0,0.0,0.0,-2.4498,-2.4694,-2.4843,-2.5188,-2.5181,-2.4842,-2.4657,0.0,0.0,0.0,0.0,0.0,0.0,-2.4192,-2.443,-2.5276,-2.5567,-2.5537,-2.5547,-2.5547,-2.5537,-2.542,-2.5361,-2.5342,-2.5117,-2.4619,-2.3887,0.0,0.0,0.0,0.0,-2.4883,-2.4922,-2.5449,-2.5927,-2.64,-2.6496,-2.7051,-2.8175,-2.9002,-2.936,-2.9349,-2.9306,-2.9432,-2.9723,-2.9628,0.0,0.0,0.0,0.0,0.0,0.0,0.0,0.0,0.0,0.0,0.0,0.0,0.0,0.0,0.0,0.0,0.0,0.0,0.0,-3.6274,-3.6451,-3.6435,0.0,0.0,0.0,0.0,0.0,0.0,0.0,0.0,0.0,-4.1456,-4.1738,-4.1982,0.0,0.0,-4.2392,-4.274,-4.3391,-4.3973,-4.4289,-4.4533,0.0,-4.4882,-4.4406,-4.4071,-4.4008,-4.4173,-4.4307,-4.4431,-4.4466,-4.4542,-4.4581,-4.478,-4.4599,-4.3803,-4.3281,-4.2882,-4.2375,-4.2212,-4.2194,-4.2212,-4.2212,-4.2194,-2.9487,-2.8333,-2.6417,-2.5761,-2.5901,-2.5923,-2.6165,-2.6409,-2.6229,-2.5993,-2.5674,-2.5102,-2.4345,-2.3354,-2.3093,0.0,0.0,0.0,-2.4765,-2.4958,-2.5509,-2.5732,-2.5732,-2.5732,-2.5732,-2.5732,-2.5732,-2.5732,-2.5732,-2.5732,-2.5469,-2.4951,0.0,0.0,-2.4434,-2.4853,-2.5163,-2.5287,-2.57,-2.611,-2.6496,-2.6602,-2.7347,-2.8631,-2.9257,-2.9806,-3.017,-3.017,-3.0403,-3.0731,-3.0691,-3.0568,0.0,0.0,0.0,0.0,0.0,0.0,0.0,0.0,0.0,0.0,0.0,-3.166,-3.2629,0.0,0.0,0.0,-3.6037,-3.7075,-3.8108,-3.7903,0.0,0.0,0.0,0.0,0.0,0.0,0.0,-3.983,-4.1216,-4.2339,-4.2829,-4.297,-4.3036,-4.3074,-4.3057,-4.3274,-4.3786,0.0,-4.4836,-4.5352,-4.5658,-4.5846,-4.5939,-4.5567,-4.5311,-4.5463,-4.564,-4.5796,-4.6026,-4.6168,-4.625,-4.625,-4.6269,-4.616,-4.5834,-4.5381,-4.4802,-4.4023,-4.3842,-4.3751,-4.3444,-4.3371,-4.3299,-3.1661,-3.1408,-2.7962,-2.7128,-2.8042,-2.7145,-2.7457,-2.8319,-2.6628,-2.5897,-2.5897,-2.4735,-2.4137,-2.396,-2.3578,0.0,-2.4075,-2.4536,-2.4948,-2.5342,-2.5528,-2.5732,-2.5732,-2.5732,-2.5732,-2.5732,-2.5732,-2.5732,-2.5732,-2.5732,-2.5732,-2.5723,-2.5332,-2.4922,-2.456,-2.4922,-2.5317,-2.5516,-2.5902,-2.6294,-2.6496,-2.689,-2.7631,-2.8806,-2.891,-2.9452,-3.0351,-3.0441,-3.08,-3.1613,-3.1255,-3.1406,-3.2081,0.0,0.0,0.0,0.0,0.0,0.0,0.0,0.0,0.0,0.0,0.0,0.0,0.0,0.0,0.0,-3.7764,0.0,-3.9364,-3.8953,0.0,0.0,0.0,-3.8623,-3.9549,-3.9875,-4.0333,-4.1206,0.0,0.0,-4.2865,-4.3564,-4.4138,-4.4253,-4.431,-4.4575,-4.5266,-4.5197,-4.5494,-4.628,-4.6477,-4.6554,-4.6753,-4.6763,-4.6819,-4.7132,-4.7425,-4.7439,-4.7548,-4.7609,-4.7681,-4.7609,-4.7681,-4.7464,-4.6721,-4.6576,-4.6377,-4.5617,-4.5345,-4.5037,-4.4367,-4.4186,-4.4005,-3.1572,-3.1335,-3.0411,-2.9782,-2.9385,-2.9765,-2.8752,-2.6989,-2.7263,-2.6532,-2.5118,-2.4833,-2.4679,-2.4683,-2.4783,-2.4889,-2.4994,-2.5276,-2.5538,-2.5635,-2.5645,-2.5732,-2.5732,-2.5732,-2.5732,-2.5732,-2.5732,-2.5732,-2.5732,-2.5732,-2.582,-2.6004,-2.5895,-2.57,-2.543,-2.5527,-2.5586,-2.5682,-2.5954,-2.6294,-2.6805,-2.7715,-2.8806,-2.9806,-3.0531,-3.1347,-3.2351,-3.2438,-3.2525,-3.2711,-3.2599,-3.2411,-3.2227,-3.1775,0.0,0.0,0.0,0.0,0.0,0.0,0.0,0.0,0.0,-3.514,-3.5652,0.0,-3.7859,0.0,-3.8706,-3.9245,-3.9394,-3.8953,0.0,0.0,-3.8454,-3.8558,-3.944,-4.0243,-4.1058,-4.1946,-4.2857,-4.3439,-4.3439,-4.3706,-4.3939,-4.3998,-4.4097,-4.4463,-4.5283,-4.5477,-4.5868,-4.6666,-4.6944,-4.7125,-4.7125,-4.7187,-4.7258,-4.7572,-4.7572,-4.7554,-4.7657,-4.7699,-4.7699,-4.7699,-4.7699,-4.7627,-4.7446,-4.7428,-4.7355,-4.7102,-4.616,-4.5254,-4.5055,-4.5001,-4.4947,-3.1572,-3.1484,-3.1484,-3.0974,-3.033,-3.0676,-2.9829,-2.8308,-2.784,-2.6999,-2.5868,-2.5118,-2.4735,-2.4735,-2.5137,-2.5333,-2.5333,-2.5547,-2.5732,-2.5732,-2.5732,-2.5732,-2.5732,-2.5732,-2.5732,-2.5732,-2.5732,-2.5732,-2.5732,-2.6197,-2.6197,-2.5907,-2.6839,-2.6744,-2.5732,-2.5927,-2.612,-2.6217,-2.6496,-2.6774,-2.7081,-2.7726,-2.8724,-2.9988,-3.0543,-3.1448,-3.2896,-3.2896,-3.2995,-3.3068,-3.3081,-3.293,-3.2604,-3.2326,-3.2081,0.0,0.0,0.0,0.0,0.0,0.0,0.0,0.0,0.0,0.0,0.0,-3.8856,-3.8841,-3.92,-3.9424,-3.9424,-3.9152,-3.9013,-3.8998,-3.8822,-3.9183,-4.0259,-4.0912,-4.1659,-4.2762,-4.3304,-4.3645,-4.3628,-4.3704,-4.3763,-4.3763,-4.4023,-4.4575,-4.5302,-4.5477,-4.5868,-4.6824,-4.7098,-4.7187,-4.7249,-4.7276,-4.7363,-4.7554,-4.7615,-4.7615,-4.7657,-4.7699,-4.7699,-4.7699,-4.7699,-4.7699,-4.7699,-4.7699,-4.7699,-4.7591,-4.7011,-4.6305,-4.5906,-4.5834,-4.5761,-3.1995,-3.1781,-3.1853,-3.1601,-3.1216,-3.0949,-3.0749,-3.0293,-2.838,-2.7505,-2.7187,-2.5479,-2.474,-2.4895,-2.529,-2.5496,-2.5496,-2.58,-2.5898,-2.5898,-2.5898,-2.5898,-2.5898,-2.585,-2.582,-2.582,-2.5771,-2.5732,-2.5742,-2.6552,-2.6552,-2.582,-2.7484,-2.7579,-2.611,-2.6496,-2.6784,-2.69,-2.7167,-2.7347,-2.7357,-2.7441,-2.8175,-2.9726,-2.9897,-3.0812,-3.2624,-3.2711,-3.2797,-3.3081,-3.3081,-3.3081,-3.3068,-3.271,-3.2644,0.0,-3.1993,0.0,0.0,0.0,0.0,0.0,0.0,0.0,0.0,-3.8964,-3.9424,-3.9424,-3.9424,-3.9424,-3.9424,-3.9424,-3.9424,-3.9424,-3.9481,-4.0076,-4.1327,-4.1591,-4.2126,-4.3432,-4.3645,-4.3645,-4.3628,-4.3645,-4.3645,-4.3628,-4.4006,-4.458,-4.5303,-4.5477,-4.5835,-4.6842,-4.6998,-4.707,-4.7205,-4.7276,-4.7345,-4.7511,-4.7615,-4.7699,-4.7699,-4.7699,-4.7699,-4.7699,-4.7699,-4.7699,-4.7699,-4.7699,-4.7699,-4.7699,-4.7627,-4.7373,-4.683,-4.6667,-4.6432,-3.3486,-3.2382,-3.2803,-3.2923,-3.2839,-3.2531,-3.1363,-2.9596,-2.9614,-2.8921,-2.7682,-2.6537,-2.6245,-2.6555,-2.6666,-2.6666,-2.6676,-2.6777,-2.6777,-2.6777,-2.6768,-2.6777,-2.6748,-2.6416,-2.626,-2.624,-2.5908,-2.5732,-2.5732,-2.5917,-2.6014,-2.6004,-2.638,-2.6945,-2.7526,0.0,0.0,0.0,-2.7262,-2.7357,-2.7547,-2.7914,-2.8839,-3.0023,-3.0295,0.0,-3.2624,-3.2711,-3.2797,-3.3081,-3.3081,0.0,0.0,0.0,0.0,0.0,0.0,0.0,0.0,0.0,0.0,0.0,-3.704,-3.776,-3.8322,-3.902,-3.9424,-3.9424,-3.9424,-3.9424,-3.9424,-3.9424,-3.9424,-3.9424,-3.995,-4.0615,-4.1393,-4.2045,-4.271,-4.3492,-4.3645,-4.3645,-4.3645,-4.3645,-4.3645,-4.3645,-4.3687,-4.4202,-4.5197,-4.5683,-4.6217,-4.6888,-4.698,-4.707,-4.7232,-4.732,-4.7407,-4.7597,-4.7675,-4.7699,-4.7699,-4.7699,-4.7699,-4.7699,-4.7699,-4.7699,-4.7699,-4.7699,-4.7699,-4.7699,-4.7699,-4.7663,-4.7518,-4.7464,-4.7428,-3.4307,0.0,-3.3337,-3.314,0.0,-3.3059,-3.2281,-3.096,-3.0709,-2.9543,-2.7938,-2.7462,-2.7201,-2.6807,-2.691,-2.7012,-2.7012,-2.7012,-2.7012,-2.7012,-2.7012,-2.7012,-2.7002,-2.6797,-2.6699,-2.668,-2.626,-2.6064,-2.6045,-2.6297,-2.6284,-2.5917,-2.6935,-2.7494,-2.7589,-2.8412,-2.8784,-2.8724,-2.8269,-2.8092,-2.8175,-2.8362,-2.9013,-3.0023,-3.0644,0.0,0.0,0.0,0.0,0.0,0.0,0.0,0.0,0.0,0.0,-3.2967,-3.2695,-3.2885,-3.3618,-3.4566,-3.5571,-3.6845,-3.8004,-3.8701,-3.8901,-3.9215,-3.9424,-3.9424,-3.9424,-3.9424,-3.9424,-3.9424,-3.9424,-3.9424,-4.0091,-4.0737,-4.1459,-4.211,-4.2851,-4.3432,-4.3645,-4.3645,-4.3645,-4.3645,-4.3645,-4.3628,-4.4105,-4.4618,-4.5197,-4.558,-4.6003,-4.6842,-4.707,-4.716,-4.7294,-4.7363,-4.7468,-4.7657,-4.7699,-4.7699,-4.7699,-4.7699,-4.7699,-4.7699,-4.7699,-4.7699,-4.7699,-4.7699,-4.7699,-4.7699,-4.7699,-4.7699,-4.7699,-4.7699,-4.7699,-3.5225,-3.4788,-3.4127,-3.3482,-3.2947,-3.338,-3.332,-3.2831,0.0,0.0,0.0,-2.8497,-2.7925,-2.7109,-2.7041,-2.7051,-2.7129,-2.7129,-2.7168,-2.7236,-2.7246,-2.7236,-2.7236,-2.7168,-2.7129,-2.7109,-2.6699,-2.6504,-2.6475,-2.6885,-2.6673,-2.6025,-2.761,-2.8215,-2.7923,-2.9315,-3.0249,-3.0621,-2.9624,-2.9002,-2.8991,-2.9095,-2.9452,-3.0079,-3.0991,-3.1801,-3.2624,-3.2711,-3.281,-3.3081,-3.3081,-3.3081,-3.3081,-3.3081,-3.3154,-3.3288,-3.3038,-3.3322,-3.4345,-3.5128,-3.6144,-3.7496,-3.8708,-3.9424,-3.9424,-3.9424,-3.9424,-3.9424,-3.9424,-3.9424,-3.9424,-3.9424,-3.9409,-3.9553,-4.0216,-4.094,-4.1656,-4.2317,-4.3035,-4.3509,-4.3645,-4.3645,-4.3645,-4.3645,-4.3645,-4.3747,-4.4429,-4.532,-4.5425,-4.5614,-4.6035,-4.6824,-4.7088,-4.716,-4.7276,-4.7363,-4.7511,-4.7657,-4.7699,-4.7699,-4.7699,-4.7699,-4.7699,-4.7699,-4.7699,-4.7699,-4.7699,-4.7699,-4.7699,-4.7699,-4.7699,-4.7699,-4.7699,-4.7699,-4.7699,-3.731,-3.5416,-3.5706,-3.5301,-3.4511,-3.4583,-3.4571,-3.433,-3.246,-3.1746,-3.1611,-2.953,-2.8693,-2.884,-2.7578,-2.7217,-2.7568,-2.7578,-2.7764,-2.8115,-2.8115,-2.8115,-2.8096,-2.7744,-2.7578,-2.7539,-2.7139,-2.6924,-2.6885,-2.6684,-2.6388,-2.6428,-2.7023,-2.8391,-3.0339,-3.1625,-3.2351,-3.2612,-3.1069,-3.0272,-3.0272,-3.0746,-3.1015,-3.1359,-3.1713,-3.2164,-3.2711,-3.2711,-3.281,-3.3081,-3.3081,-3.3081,-3.3081,-3.3081,-3.3081,-3.3154,-3.3079,-3.3164,-3.3326,-3.4319,-3.5734,-3.763,-3.8811,-3.9424,-3.9424,-3.9424,-3.9424,-3.9424,-3.9424,-3.9424,-3.9424,-3.9424,-3.961,-4.0216,-4.094,-4.1656,-4.2317,-4.2958,-4.3432,-4.3568,-4.3645,-4.3645,-4.3645,-4.3645,-4.3645,-4.3687,-4.4333,-4.4981,-4.592,-4.6477,-4.6778,-4.6934,-4.6998,-4.7116,-4.7232,-4.732,-4.7425,-4.7639,-4.7657,-4.7675,-4.7699,-4.7699,-4.7699,-4.7699,-4.7699,-4.7699,-4.7699,-4.7699,-4.7699,-4.7699,-4.7699,-4.7699,-4.7699,-4.7699,-4.7699,-3.8246,-3.6816,-3.6407,-3.5763,-3.4823,-3.4823,-3.4823,-3.4678,-3.3825,-3.3149,-3.2689,-3.1327,-3.0448,-3.0008,-2.8491,-2.7915,-2.8106,-2.7614,-2.7412,-2.7607,-2.7842,-2.7949,-2.7959,-2.7988,-2.7998,-2.7978,-2.7568,-2.7373,-2.7324,-2.6934,-2.6902,-2.7239,-2.8368,-2.9612,-3.089,-3.2077,-3.281,-3.3068,-3.1801,-3.108,-3.108,-3.1359,-3.1548,-3.1637,-3.2264,-3.2711,-3.2896,-3.2896,-3.2982,-3.3081,-3.3081,-3.3081,-3.3081,-3.3081,-3.3081,-3.3081,-3.3081,-3.3081,-3.3081,-3.4581,-3.6174,-3.7691,-3.8797,-3.9424,-3.9424,-3.9424,-3.9424,-3.9424,-3.9424,-3.9424,-3.9424,-3.9424,-3.9538,-3.9879,-4.0547,-4.126,-4.1917,-4.2648,-4.3157,-4.3509,-4.3645,-4.3645,-4.3645,-4.3645,-4.3645,-4.3671,-4.4316,-4.5303,-4.6429,-4.6842,-4.6998,-4.6998,-4.7043,-4.7116,-4.7249,-4.7276,-4.7363,-4.745,-4.7554,-4.7572,-4.7597,-4.7639,-4.7699,-4.7699,-4.7699,-4.7699,-4.7699,-4.7699,-4.7699,-4.7699,-4.7699,-4.7699,-4.7699,-4.7699,-4.7699,-3.8957,-3.8056,-3.7322,-3.6213,-3.5102,-3.492,-3.4823,-3.4823,-3.4811,-3.4323,-3.3528,-3.2655,-3.1796,-3.0943,-2.9306,-2.8624,-2.851,-2.7653,-2.7219,-2.7337,-2.7457,-2.7519,-2.7559,-2.7949,-2.8144,-2.8135,-2.791,-2.7908,-2.8162,-2.7766,-2.8015,-2.8924,-3.0226,-3.1078,-3.1526,-3.2325,-3.2896,-3.3068,-3.2351,-3.1889,-3.1901,-3.1889,-3.1989,-3.1989,-3.2711,-3.3081,-3.3081,-3.3081,-3.3081,-3.3081,-3.3081,-3.3081,-3.3081,-3.3081,-3.3081,-3.3081,-3.3081,-3.3167,-3.324,-3.4802,-3.6304,-3.7434,-3.8472,-3.909,-3.9352,-3.9424,-3.9424,-3.9424,-3.9424,-3.9424,-3.9424,-3.9424,-3.9481,-3.9625,-4.0146,-4.0873,-4.1656,-4.2253,-4.2834,-4.3432,-4.3645,-4.3645,-4.3645,-4.3645,-4.3687,-4.3948,-4.4674,-4.5665,-4.659,-4.6906,-4.6998,-4.7043,-4.7088,-4.7133,-4.7196,-4.7249,-4.7276,-4.732,-4.7407,-4.7468,-4.7511,-4.7615,-4.7675,-4.7657,-4.7699,-4.7699,-4.7699,-4.7699,-4.7699,-4.7699,-4.7699,-4.7699,-4.7699,-4.7699,-4.7699,-3.9954,-3.9121,-3.893,-3.7848,-3.6131,-3.5199,-3.4823,-3.4823,-3.4823,-3.4726,-3.4423,-3.2695,-3.1907,-3.146,-2.9637,-2.8907,-2.9095,-2.8268,-2.7996,-2.8135,-2.7449,-2.708,-2.7129,-2.7529,-2.7734,-2.7793,-2.8066,-2.8704,-2.9495,-2.9291,-2.9942,-3.1628,-3.1958,-3.2334,-3.3116,-3.3059,-3.3081,-3.3081,-3.2995,-3.2982,-3.2982,-3.2982,-3.2982,-3.2982,-3.3081,-3.3081,-3.3081,-3.3081,-3.3081,-3.3081,-3.3081,-3.3081,-3.3081,-3.3081,-3.3081,-3.3081,-3.3081,-3.3167,-3.3398,-3.4262,-3.5467,-3.6554,-3.7525,-3.8397,-3.9265,-3.9424,-3.9424,-3.9424,-3.9424,-3.9424,-3.9424,-3.9424,-3.961,-4.0161,-4.0355,-4.1008,-4.2126,-4.2585,-4.2851,-4.3492,-4.3645,-4.3645,-4.3645,-4.3645,-4.3789,-4.4276,-4.4838,-4.558,-4.6235,-4.6749,-4.6998,-4.6998,-4.7025,-4.7088,-4.7151,-4.7196,-4.7223,-4.7276,-4.732,-4.7363,-4.7425,-4.7511,-4.7554,-4.7657,-4.7717,-4.7717,-4.7699,-4.7699,-4.7699,-4.7699,-4.7699,-4.7699,-4.7699,-4.7699,-4.7699,-4.0142,-3.9197,-3.9197,-3.8121,-3.632,-3.5199,-3.4823,-3.4823,-3.4823,-3.4823,-3.4642,-3.3553,-3.2972,-3.2547,-3.0537,-2.9633,-2.9721,-2.8242,-2.7583,-2.7693,-2.6993,-2.6768,-2.7051,-2.7461,-2.7793,-2.8037,-2.8213,-2.89,-2.9953,-3.0882,-3.1437,-3.1712,-3.2768,-3.3369,-3.3126,-3.2796,-3.2982,-3.3545,-3.2698,-3.2525,-3.2995,-3.3081,-3.3081,-3.3081,-3.3081,-3.3081,-3.3081,-3.3081,-3.3081,-3.3081,-3.3081,-3.3081,-3.3081,-3.3081,-3.3081,-3.3081,-3.3081,-3.3167,-3.324,-3.4262,-3.5292,-3.6304,-3.7372,-3.8412,-3.9265,-3.9424,-3.9424,-3.9424,-3.9424,-3.9424,-3.9424,-3.9424,-3.9553,-3.9824,-3.9895,-4.0409,-4.1803,-4.1981,-4.2317,-4.3372,-4.3645,-4.3645,-4.3645,-4.3645,-4.3864,-4.439,-4.4947,-4.5528,-4.6137,-4.6655,-4.6952,-4.6998,-4.6998,-4.7043,-4.7088,-4.7088,-4.7088,-4.7116,-4.7205,-4.7267,-4.7312,-4.7425,-4.7511,-4.7554,-4.7657,-4.7675,-4.7699,-4.7699,-4.7699,-4.7699,-4.7699,-4.7699,-4.7699,-4.7699,-4.7699,-4.0315,-3.9577,-3.9299,-3.8211,-3.6684,-3.5667,-3.5017,-3.4823,-3.4823,-3.4823,-3.4775,-3.427,-3.3837,-3.3275,-3.1607,-3.0796,-3.0374,-2.8773,-2.784,-2.76,-2.6895,-2.6715,-2.6855,-2.7285,-2.7715,-2.8192,-2.8532,-2.9313,-3.0493,-3.2239,-3.2638,-3.198,-3.3114,-3.344,-3.27,-3.2402,-3.2617,-3.3227,-3.2301,-3.2235,-3.3007,-3.3081,-3.3081,-3.3081,-3.3081,-3.3081,-3.3081,-3.3081,-3.3081,-3.3081,-3.3081,-3.3081,-3.3081,-3.3081,-3.3081,-3.3081,-3.3154,-3.3154,-3.3167,-3.4108,-3.5061,-3.5894,-3.7127,-3.8098,-3.8885,-3.9265,-3.9424,-3.9424,-3.9424,-3.9424,-3.9424,-3.9424,-3.9424,-3.9409,-3.9553,-4.0216,-4.1327,-4.1656,-4.2301,-4.3372,-4.3645,-4.3645,-4.3645,-4.3628,-4.3789,-4.4162,-4.4838,-4.5425,-4.597,-4.6525,-4.6998,-4.6998,-4.6998,-4.6998,-4.6998,-4.6998,-4.6998,-4.6998,-4.7088,-4.7133,-4.7196,-4.7356,-4.7468,-4.7511,-4.7572,-4.7657,-4.7699,-4.7699,-4.7699,-4.7699,-4.7699,-4.7699,-4.7699,-4.7699,-4.7699,-4.0688,-4.0516,-3.9577,-3.8689,-3.7625,-3.6602,-3.5667,-3.4908,-3.4823,-3.4823,-3.4751,-3.4294,-3.403,-3.3909,-3.2843,-3.2088,-3.1543,-3.0464,-2.9429,-2.8588,-2.761,-2.6921,-2.6426,-2.6846,-2.7285,-2.8068,-2.9245,-3.0546,-3.1869,-3.3254,-3.3563,-3.2821,-3.2748,-3.2614,-3.2448,-3.1988,-3.1879,-3.2575,-3.2442,-3.2524,-3.3082,-3.3106,-3.3106,-3.3081,-3.3081,-3.3081,-3.3081,-3.3081,-3.3081,-3.3081,-3.3081,-3.3081,-3.3081,-3.3081,-3.3081,-3.3167,-3.3227,-3.3386,-3.3398,-3.3713,-3.4275,-3.5305,-3.6253,-3.7127,-3.8263,-3.9046,-3.9352,-3.9424,-3.9424,-3.9424,-3.9424,-3.9424,-3.9424,-3.9409,-4.0005,-4.0684,-4.1393,-4.2045,-4.2772,-4.3432,-4.3645,-4.3645,-4.3645,-4.3645,-4.3628,-4.3906,-4.4618,-4.5303,-4.5528,-4.6315,-4.6842,-4.6998,-4.6998,-4.6998,-4.6998,-4.6998,-4.6998,-4.6998,-4.7043,-4.7043,-4.7151,-4.7241,-4.7356,-4.7425,-4.7468,-4.7554,-4.7657,-4.7699,-4.7699,-4.7699,-4.7699,-4.7699,-4.7699,-4.7699,-4.7699,-4.0702,-4.0616,-3.9577,-3.9033,-3.8496,-3.6951,-3.6143,-3.5763,-3.5114,-3.4823,-3.4787,-3.4619,-3.4366,-3.4018,-3.3657,-3.3008,-3.2112,-3.0796,-2.9977,-2.951,-2.7934,-2.7256,-2.7455,-2.7783,-2.8218,-2.887,-3.0221,-3.1666,-3.3089,-3.4397,-3.4201,-3.3189,-3.3609,-3.3625,-3.2943,-3.242,-3.2829,-3.4078,-3.3484,-3.3137,-3.3558,-3.3608,-3.3445,-3.3106,-3.3081,-3.3081,-3.3081,-3.3081,-3.3081,-3.3081,-3.3081,-3.3081,-3.3081,-3.3081,-3.3081,-3.3167,-3.3326,-3.3386,-3.3386,-3.3725,-3.4371,-3.5224,-3.6253,-3.7204,-3.8098,-3.8885,-3.9424,-3.9424,-3.9424,-3.9424,-3.9424,-3.9424,-3.9424,-3.9481,-4.0091,-4.0805,-4.1459,-4.219,-4.2851,-4.3449,-4.3645,-4.3645,-4.3645,-4.3645,-4.3645,-4.3687,-4.4276,-4.491,-4.532,-4.6003,-4.6637,-4.6934,-4.6998,-4.6998,-4.6998,-4.6998,-4.6998,-4.6998,-4.6998,-4.7043,-4.7088,-4.7151,-4.7267,-4.7312,-4.7338,-4.7468,-4.7572,-4.7741,-4.7741,-4.7699,-4.7699,-4.7783,-4.7699,-4.7699,-4.7699,-4.0702,-4.0616,-3.9954,-3.9489,-3.9019,-3.7507,-3.659,-3.6225,-3.5187,-3.4823,-3.4823,-3.4823,-3.4631,-3.4294,-3.4114,-3.3693,-3.2855,-3.1604,-3.0705,-3.0091,-2.8773,-2.82,-2.8368,-2.8694,-2.9084,-2.9748,-3.1206,-3.2619,-3.3784,-3.4811,-3.4409,-3.3101,-3.3586,-3.3586,-3.3132,-3.2548,-3.32,-3.4442,-3.4007,-3.3753,-3.4045,-3.3985,-3.3746,-3.337,-3.3181,-3.3081,-3.3081,-3.3081,-3.3081,-3.3081,-3.3081,-3.3081,-3.3081,-3.3081,-3.3081,-3.3167,-3.3313,-3.3398,-3.3556,-3.3907,-3.4454,-3.54,-3.6332,-3.7295,-3.8127,-3.8973,-3.9352,-3.9424,-3.9424,-3.9424,-3.9424,-3.9424,-3.9424,-3.9553,-4.0285,-4.0992,-4.1444,-4.2396,-4.3035,-4.3509,-4.3645,-4.3645,-4.3645,-4.3645,-4.3645,-4.3645,-4.4105,-4.4708,-4.5267,-4.5802,-4.6381,-4.6906,-4.6998,-4.6998,-4.6998,-4.6998,-4.6998,-4.6998,-4.6998,-4.6998,-4.6998,-4.7088,-4.7133,-4.7178,-4.7267,-4.7338,-4.7511,-4.7723,-4.7783,-4.7741,-4.7866,-4.797,-4.7866,-4.7699,-4.7699,-4.0702,-4.0702,-4.0702,-4.0142,-3.921,-3.8238,-3.7256,-3.6307,-3.5391,-3.4908,-3.4823,-3.4823,-3.4787,-3.4691,-3.4318,-3.403,-3.3647,-3.2879,-3.1695,-3.0478,-3.0102,-2.9676,-2.9252,-2.9361,-2.9751,-3.0329,-3.1934,-3.3402,-3.4388,-3.4569,-3.419,-3.3201,-3.2488,-3.2689,-3.3212,-3.2521,-3.2605,-3.3959,-3.4207,-3.4303,-3.4545,-3.4286,-3.3985,-3.3809,-3.3395,-3.3131,-3.3093,-3.3081,-3.3081,-3.3081,-3.3081,-3.3081,-3.3081,-3.3081,-3.3081,-3.3167,-3.3326,-3.3471,-3.37,-3.4063,-3.4716,-3.5736,-3.6503,-3.7386,-3.8113,-3.8885,-3.9424,-3.9424,-3.9424,-3.9424,-3.9424,-3.9424,-3.9424,-3.9553,-4.0547,-4.1393,-4.1722,-4.271,-4.3585,-4.3645,-4.3645,-4.3645,-4.3628,-4.3687,-4.3747,-4.3848,-4.4219,-4.4801,-4.5372,-4.5903,-4.6381,-4.6842,-4.6998,-4.6998,-4.6998,-4.6998,-4.6998,-4.6998,-4.6998,-4.6998,-4.6998,-4.7043,-4.7088,-4.7133,-4.7407,-4.7493,-4.7536,-4.7705,-4.7929,-4.7929,-4.809,-4.805,-4.7866,-4.7699,-4.7699,-4.0702,-4.0702,-4.0702,-4.0502,-4.0128,-3.9224,-3.8238,-3.7243,-3.6225,-3.5475,-3.492,-3.4823,-3.4823,-3.4799,-3.4631,-3.439,-3.403,-3.3669,-3.2883,-3.1731,-3.0729,-3.0171,-2.9986,-3.0314,-3.1215,-3.2394,-3.3387,-3.4292,-3.489,-3.5328,-3.4799,-3.3499,-3.3685,-3.3586,-3.33,-3.3586,-3.4461,-3.5445,-3.5623,-3.555,-3.5236,-3.5127,-3.4675,-3.3972,-3.3721,-3.3483,-3.3106,-3.3081,-3.3081,-3.3081,-3.3081,-3.3081,-3.3081,-3.3081,-3.3081,-3.3154,-3.3313,-3.3797,-3.4511,-3.4828,-3.5318,-3.6439,-3.7295,-3.7872,-3.8202,-3.8958,-3.9352,-3.9424,-3.9424,-3.9424,-3.9424,-3.9424,-3.9424,-3.9424,-4.06,-4.1525,-4.1722,-4.2789,-4.3509,-4.3645,-4.3645,-4.3645,-4.3687,-4.3906,-4.4179,-4.4276,-4.4691,-4.5214,-4.5802,-4.602,-4.6381,-4.6888,-4.6934,-4.6998,-4.6998,-4.6998,-4.6998,-4.6998,-4.6998,-4.6998,-4.6998,-4.6998,-4.7043,-4.7116,-4.7407,-4.7518,-4.756,-4.7752,-4.8014,-4.8032,-4.805,-4.7929,-4.7741,-4.7699,-4.7699,-4.0702,-4.0702,-4.0702,-4.0702,-4.0602,-3.9664,-3.8854,-3.816,-3.6871,-3.5941,-3.5391,-3.4908,-3.4823,-3.4823,-3.4823,-3.4655,-3.433,-3.415,-3.3681,-3.2915,-3.1707,-3.0956,-3.0793,-3.1152,-3.2067,-3.3369,-3.3931,-3.4521,-3.5301,-3.5625,-3.5304,-3.4642,-3.4678,-3.4678,-3.4385,-3.4678,-3.5379,-3.6263,-3.6358,-3.6194,-3.5881,-3.5655,-3.5215,-3.4562,-3.4123,-3.3746,-3.3382,-3.3194,-3.3081,-3.3081,-3.3081,-3.3081,-3.3081,-3.3081,-3.3081,-3.3167,-3.3313,-3.3713,-3.4759,-3.4924,-3.5789,-3.6986,-3.7796,-3.8277,-3.8575,-3.9192,-3.9352,-3.9424,-3.9424,-3.9424,-3.9424,-3.9696,-3.9753,-3.9809,-4.0805,-4.1656,-4.2237,-4.3035,-4.3509,-4.3645,-4.3645,-4.3687,-4.3948,-4.4179,-4.4614,-4.4746,-4.5108,-4.5528,-4.602,-4.6186,-4.6542,-4.6842,-4.6934,-4.6998,-4.6998,-4.6998,-4.6998,-4.6998,-4.6998,-4.6998,-4.6998,-4.6998,-4.7043,-4.7088,-4.7276,-4.7338,-4.7407,-4.7937,-4.8212,-4.8114,-4.7951,-4.797,-4.7847,-4.7741,-4.7699,-4.0702,-4.0702,-4.0702,-4.0702,-4.0602,-3.9752,-3.9299,-3.8841,-3.7402,-3.6496,-3.6036,-3.5391,-3.492,-3.4823,-3.4823,-3.4787,-3.4727,-3.4366,-3.4066,-3.3717,-3.2951,-3.2256,-3.1668,-3.1745,-3.2455,-3.3254,-3.3504,-3.4242,-3.5286,-3.5487,-3.5725,-3.5821,-3.5271,-3.5283,-3.5667,-3.5271,-3.5475,-3.6263,-3.637,-3.6345,-3.6295,-3.5881,-3.5554,-3.5416,-3.4525,-3.3947,-3.3771,-3.3345,-3.3081,-3.3081,-3.3081,-3.3081,-3.3081,-3.3081,-3.3081,-3.3081,-3.3081,-3.3823,-3.4468,-3.5019,-3.5883,-3.7706,-3.8113,-3.8337,-3.9192,-3.9352,-3.9424,-3.9424,-3.9424,-3.9424,-3.961,-4.0021,-4.0409,-4.0684,-4.1343,-4.2173,-4.3312,-4.3552,-4.3568,-4.3628,-4.3628,-4.3848,-4.439,-4.4558,-4.491,-4.5214,-4.5477,-4.5885,-4.6168,-4.6447,-4.6525,-4.6731,-4.698,-4.6998,-4.6998,-4.6998,-4.6998,-4.6998,-4.6998,-4.6998,-4.6998,-4.6998,-4.6998,-4.7088,-4.716,-4.7205,-4.7407,-4.7937,-4.8056,-4.7811,-4.7788,-4.7911,-4.7929,-4.7741,-4.7699,-4.0702,-4.0702,-4.0702,-4.0702,-4.0702,-4.0416,-3.9853,-3.9197,-3.8662,-3.7494,-3.6483,-3.6036,-3.5391,-3.4823,-3.4823,-3.4823,-3.4775,-3.4679,-3.4378,-3.4054,-3.3813,-3.2943,-3.2079,-3.195,-3.2362,-3.2909,-3.3332,-3.3968,-3.4926,-3.5328,-3.5407,-3.5246,-3.5763,-3.5667,-3.5271,-3.5763,-3.6061,-3.6358,-3.637,-3.637,-3.6345,-3.6232,-3.5931,-3.5504,-3.4851,-3.4286,-3.3897,-3.337,-3.3081,-3.3081,-3.3081,-3.3081,-3.3081,-3.3081,-3.3081,-3.3081,-3.3154,-3.3869,-3.5224,-3.5695,-3.671,-3.8472,-3.8811,-3.9104,-3.9352,-3.9424,-3.9424,-3.9424,-3.9424,-3.9625,-4.0091,-4.0424,-4.094,-4.1868,-4.219,-4.2648,-4.3372,-4.3645,-4.3645,-4.3628,-4.4006,-4.4276,-4.4652,-4.5178,-4.5717,-4.597,-4.6217,-4.6459,-4.6637,-4.6702,-4.6778,-4.6842,-4.6998,-4.6998,-4.6998,-4.6998,-4.6998,-4.6998,-4.6998,-4.6998,-4.6998,-4.6998,-4.6998,-4.7043,-4.7258,-4.7345,-4.7524,-4.7919,-4.771,-4.7511,-4.7788,-4.7992,-4.7847,-4.7699,-4.7699,-4.0702,-4.0702,-4.0702,-4.0702,-4.0702,-4.0702,-4.0329,-3.9766,-3.8944,-3.8056,-3.6871,-3.5941,-3.5391,-3.4811,-3.4823,-3.4823,-3.4823,-3.4932,-3.4752,-3.4606,-3.4411,-3.3642,-3.2698,-3.2372,-3.2463,-3.2835,-3.3208,-3.3746,-3.4374,-3.4939,-3.5096,-3.5273,-3.5961,-3.6048,-3.5667,-3.6061,-3.637,-3.637,-3.637,-3.637,-3.637,-3.637,-3.6219,-3.5768,-3.5152,-3.4387,-3.3633,-3.3232,-3.3081,-3.3081,-3.3081,-3.3081,-3.3081,-3.3081,-3.3081,-3.3081,-3.3398,-3.4288,-3.5548,-3.6318,-3.7343,-3.862,-3.9177,-3.9337,-3.9352,-3.9424,-3.9424,-3.9424,-3.9424,-3.9625,-4.0021,-4.0547,-4.1525,-4.271,-4.3052,-4.3157,-4.3568,-4.3645,-4.3747,-4.3948,-4.4276,-4.478,-4.5089,-4.5819,-4.6217,-4.6495,-4.6749,-4.6888,-4.6934,-4.6998,-4.6998,-4.6998,-4.6998,-4.6998,-4.6998,-4.6998,-4.6998,-4.6998,-4.6998,-4.6998,-4.6998,-4.6998,-4.6998,-4.707,-4.7284,-4.7421,-4.7506,-4.7591,-4.7567,-4.756,-4.7893,-4.7951,-4.7783,-4.7699,-4.7699,-4.0758,-4.0702,-4.0702,-4.0702,-4.0702,-4.0702,-4.0702,-4.0329,-3.8881,-3.8069,-3.752,-3.5858,-3.5199,-3.492,-3.5017,-3.4823,-3.4932,-3.5126,-3.5211,-3.51,-3.4936,-3.4268,-3.3609,-3.2982,-3.2934,-3.3145,-3.3144,-3.352,-3.4073,-3.455,-3.5039,-3.5562,-3.6132,-3.6295,-3.6238,-3.6358,-3.637,-3.637,-3.637,-3.637,-3.637,-3.6358,-3.6245,-3.5943,-3.5052,-3.4123,-3.3407,-3.3081,-3.3081,-3.3081,-3.3081,-3.3081,-3.3081,-3.3167,-3.3338,-3.3496,-3.4063,-3.495,-3.5816,-3.6738,-3.7663,-3.862,-3.9031,-3.9192,-3.9352,-3.9424,-3.9424,-3.9424,-3.9424,-3.9553,-4.0076,-4.0925,-4.2173,-4.3235,-4.3568,-4.3568,-4.3687,-4.3671,-4.3889,-4.4446,-4.4558,-4.5249,-4.5819,-4.6301,-4.6447,-4.6731,-4.6952,-4.6952,-4.6998,-4.6998,-4.6998,-4.6998,-4.6998,-4.6998,-4.6998,-4.6998,-4.6998,-4.6998,-4.6998,-4.6998,-4.6998,-4.6998,-4.6998,-4.707,-4.7169,-4.7169,-4.7125,-4.7214,-4.7345,-4.7475,-4.7705,-4.7723,-4.7699,-4.7699,-4.7699,-4.1123,-4.0702,-4.0702,-4.0702,-4.0702,-4.0702,-4.0702,-4.0616,-3.9414,-3.8765,-3.8405,-3.6764,-3.5941,-3.5858,-3.5307,-3.5126,-3.5126,-3.5416,-3.5512,-3.5451,-3.5256,-3.5053,-3.4532,-3.3866,-3.3495,-3.3558,-3.3269,-3.3596,-3.4274,-3.4311,-3.4813,-3.5956,-3.5843,-3.5956,-3.6307,-3.637,-3.637,-3.637,-3.637,-3.6345,-3.6307,-3.6295,-3.6081,-3.5642,-3.4663,-3.3822,-3.3257,-3.3081,-3.3081,-3.3081,-3.3167,-3.3326,-3.324,-3.3738,-3.3992,-3.423,-3.4855,-3.5722,-3.6517,-3.7141,-3.7829,-3.8708,-3.9104,-3.9337,-3.9352,-3.9424,-3.9424,-3.9424,-3.9424,-3.9879,-4.0925,-4.2301,-4.3035,-4.3492,-4.3645,-4.3789,-4.4162,-4.4276,-4.4333,-4.4669,-4.5284,-4.592,-4.6168,-4.659,-4.6795,-4.698,-4.6998,-4.6998,-4.6998,-4.6998,-4.6998,-4.6998,-4.6998,-4.6998,-4.6998,-4.6998,-4.6998,-4.6998,-4.6998,-4.6998,-4.6998,-4.6998,-4.6998,-4.6998,-4.7025,-4.698,-4.698,-4.7143,-4.7345,-4.7407,-4.7511,-4.7615,-4.7699,-4.7699,-4.7699,-4.1264,-4.0716,-4.0702,-4.0702,-4.0702,-4.0702,-4.0702,-4.043,-3.9149,-3.8496,-3.8134,-3.6496,-3.5667,-3.5763,-3.5404,-3.5223,-3.5416,-3.562,-3.5908,-3.5941,-3.5868,-3.5769,-3.5606,-3.4932,-3.437,-3.4261,-3.3734,-3.3884,-3.411,-3.4173,-3.4474,-3.5529,-3.5542,-3.5881,-3.6282,-3.637,-3.637,-3.637,-3.6358,-3.627,-3.6031,-3.5968,-3.5529,-3.4901,-3.4186,-3.3646,-3.3144,-3.3581,-3.3654,-3.381,-3.405,-3.3882,-3.3411,-3.3894,-3.4314,-3.4551,-3.5575,-3.6346,-3.6986,-3.7691,-3.8397,-3.887,-3.9265,-3.9352,-3.9424,-3.9424,-3.961,-3.9824,-4.0021,-4.0478,-4.1852,-4.2506,-4.3174,-4.3568,-4.3628,-4.3848,-4.4333,-4.4502,-4.4763,-4.5178,-4.5802,-4.6235,-4.659,-4.6842,-4.6934,-4.6998,-4.6998,-4.6998,-4.6998,-4.6998,-4.6998,-4.6998,-4.6998,-4.6998,-4.6998,-4.6998,-4.6998,-4.6998,-4.6998,-4.6998,-4.6998,-4.6998,-4.6998,-4.6998,-4.6998,-4.6998,-4.7025,-4.7187,-4.732,-4.7363,-4.7468,-4.7615,-4.7699,-4.7699,-4.7699,-4.139,-4.0828,-4.0744,-4.0702,-4.0702,-4.0702,-4.0702,-4.043,-3.8626,-3.8069,-3.7612,-3.575,-3.5199,-3.5404,-3.532,-3.5428,-3.5716,-3.5908,-3.6181,-3.6238,-3.632,-3.627,-3.6144,-3.578,-3.5403,-3.4939,-3.4324,-3.4148,-3.411,-3.4073,-3.45,-3.4926,-3.5316,-3.5818,-3.6245,-3.6358,-3.6282,-3.6182,-3.6144,-3.5906,-3.5516,-3.5391,-3.4914,-3.4211,-3.3809,-3.3694,-3.3573,-3.3979,-3.4384,-3.462,-3.5237,-3.4746,-3.4121,-3.4217,-3.4786,-3.4868,-3.6387,-3.7155,-3.7615,-3.8234,-3.8855,-3.9104,-3.9265,-3.9409,-3.9424,-3.9625,-3.9879,-4.0339,-4.0737,-4.1343,-4.2443,-4.2834,-4.3157,-4.3595,-4.3789,-4.4064,-4.4614,-4.4763,-4.5284,-4.587,-4.6284,-4.659,-4.6795,-4.6998,-4.6998,-4.6998,-4.6998,-4.6998,-4.6998,-4.6998,-4.6998,-4.6998,-4.6998,-4.6998,-4.6998,-4.6998,-4.6998,-4.6998,-4.6998,-4.6998,-4.6998,-4.6998,-4.6998,-4.6998,-4.6998,-4.6998,-4.7025,-4.7187,-4.7276,-4.732,-4.7468,-4.7615,-4.7657,-4.7657,-4.7657,-4.205,-4.1418,-4.0912,-4.0702,-4.0702,-4.0702,-4.0702,-4.0343,-3.8715,-3.8238,-3.8496,-3.6106,-3.5488,-3.5941,-3.5692,-3.5787,-3.6011,-3.6188,-3.632,-3.6345,-3.637,-3.637,-3.632,-3.6219,-3.6081,-3.5843,-3.5165,-3.4663,-3.46,-3.4625,-3.4801,-3.529,-3.5441,-3.5768,-3.6144,-3.632,-3.6006,-3.573,-3.568,-3.5403,-3.4989,-3.4828,-3.4512,-3.3897,-3.3582,-3.3662,-3.4056,-3.4314,-3.4703,-3.5305,-3.5548,-3.5453,-3.5386,-3.5976,-3.6308,-3.6545,-3.7337,-3.8037,-3.8263,-3.8634,-3.9031,-3.9119,-3.9265,-3.9409,-3.9553,-3.9965,-4.0355,-4.0873,-4.1607,-4.2396,-4.2601,-4.3096,-4.3697,-4.4105,-4.439,-4.4763,-4.5494,-4.5819,-4.587,-4.6284,-4.659,-4.6842,-4.6934,-4.6998,-4.6998,-4.6998,-4.6998,-4.6998,-4.6998,-4.6998,-4.6998,-4.6998,-4.6998,-4.6998,-4.6998,-4.6998,-4.6998,-4.6998,-4.6998,-4.6998,-4.6998,-4.6998,-4.6998,-4.6998,-4.6998,-4.6998,-4.707,-4.7187,-4.7232,-4.7276,-4.7425,-4.7554,-4.7554,-4.7572,-4.7615,-4.2191,-4.1573,-4.094,-4.0702,-4.0702,-4.0702,-4.0702,-4.0516,-3.9149,-3.8599,-3.8056,-3.6671,-3.5792,-3.5818,-3.5581,-3.5581,-3.585,-3.5943,-3.6094,-3.627,-3.637,-3.637,-3.6332,-3.6332,-3.637,-3.6219,-3.5793,-3.5328,-3.5127,-3.4826,-3.5052,-3.5341,-3.5303,-3.5403,-3.573,-3.5592,-3.5429,-3.5152,-3.509,-3.4864,-3.44,-3.4413,-3.4132,-3.3656,-3.3674,-3.4017,-3.4314,-3.4855,-3.5413,-3.6188,-3.6738,-3.6922,-3.7078,-3.7155,-3.7337,-3.7169,-3.781,-3.8441,-3.8575,-3.887,-3.9031,-3.9265,-3.9352,-3.9625,-3.9879,-4.0355,-4.0805,-4.1607,-4.238,-4.3113,-4.3174,-4.3638,-4.4162,-4.4446,-4.4708,-4.5284,-4.592,-4.6186,-4.6332,-4.6525,-4.6731,-4.6934,-4.6934,-4.6998,-4.6998,-4.6998,-4.6998,-4.6998,-4.6998,-4.6998,-4.6998,-4.6998,-4.6998,-4.6998,-4.6998,-4.6998,-4.6998,-4.6998,-4.6998,-4.6998,-4.6998,-4.6998,-4.6998,-4.6998,-4.6998,-4.6998,-4.7043,-4.7133,-4.7205,-4.7232,-4.7363,-4.7407,-4.7468,-4.7511,-4.7554,-4.2275,-4.1741,-4.1011,-4.0702,-4.0702,-4.0702,-4.0702,-4.0516,-3.9678,-3.8868,-3.8147,-3.7389,-3.6311,-3.5469,-3.5176,-3.5207,-3.5299,-3.5391,-3.5604,-3.5843,-3.5931,-3.5994,-3.6019,-3.6031,-3.5931,-3.5818,-3.5805,-3.5868,-3.5491,-3.514,-3.514,-3.5152,-3.4889,-3.4901,-3.5215,-3.5064,-3.4738,-3.4562,-3.4537,-3.4274,-3.3921,-3.3909,-3.3823,-3.324,-3.3992,-3.4481,-3.4786,-3.548,-3.6281,-3.7078,-3.7644,-3.8127,-3.8202,-3.8202,-3.7886,-3.74,-3.7886,-3.8352,-3.8649,-3.887,-3.9031,-3.925,-3.9538,-3.995,-4.0409,-4.0873,-4.1541,-4.2585,-4.3174,-4.3568,-4.3552,-4.3989,-4.439,-4.4763,-4.5108,-4.5511,-4.6168,-4.6495,-4.6637,-4.6795,-4.6934,-4.6998,-4.6998,-4.6998,-4.6998,-4.6998,-4.6998,-4.6998,-4.6998,-4.6998,-4.6998,-4.6998,-4.6998,-4.6998,-4.6998,-4.6998,-4.6998,-4.6998,-4.6998,-4.6998,-4.6998,-4.6998,-4.6998,-4.6998,-4.6998,-4.6998,-4.7043,-4.7106,-4.7178,-4.7249,-4.7276,-4.7302,-4.7468,-4.7468,-4.7511,-4.2528,-4.2345,-4.1193,-4.0702,-4.0702,-4.0702,-4.0702,-4.0602,-3.9954,-3.9046,-3.8238,-3.8119,-3.7026,-3.5521,-3.4848,-3.4723,-3.4826,-3.4826,-3.4926,-3.5115,-3.5102,-3.5115,-3.4989,-3.4914,-3.5102,-3.5152,-3.5077,-3.5203,-3.5328,-3.5341,-3.5152,-3.4914,-3.4776,-3.4751,-3.4763,-3.4575,-3.4474,-3.4085,-3.3997,-3.3734,-3.3381,-3.3376,-3.3411,-3.3496,-3.4063,-3.4855,-3.548,-3.6201,-3.7014,-3.781,-3.8127,-3.8202,-3.8202,-3.8202,-3.8202,-3.8127,-3.8292,-3.8516,-3.8575,-3.8811,-3.909,-3.9379,-3.9879,-4.027,-4.0873,-4.1722,-4.2585,-4.3372,-4.3568,-4.3568,-4.3628,-4.3713,-4.4259,-4.4838,-4.5355,-4.5985,-4.659,-4.6702,-4.6842,-4.6888,-4.6998,-4.6998,-4.6998,-4.6998,-4.6998,-4.6998,-4.6998,-4.6998,-4.6998,-4.6998,-4.6998,-4.6998,-4.6998,-4.6998,-4.6998,-4.6998,-4.6998,-4.6998,-4.6998,-4.6998,-4.6998,-4.6998,-4.6998,-4.6998,-4.6998,-4.6998,-4.7043,-4.7088,-4.7151,-4.7178,-4.7205,-4.732,-4.7468,-4.7468,-4.7468,-4.2374,-4.1952,-4.1067,-4.0702,-4.0702,-4.0702,-4.0773,-4.0759,-4.0574,-3.9678,-3.8801,-3.8803,-3.7571,-3.5441,-3.4287,-3.3972,-3.4186,-3.4248,-3.4449,-3.4638,-3.4675,-3.47,-3.4763,-3.4726,-3.4726,-3.465,-3.4738,-3.4864,-3.5052,-3.5052,-3.4914,-3.4713,-3.4412,-3.4236,-3.4211,-3.3935,-3.3696,-3.3483,-3.3407,-3.3307,-3.3376,-3.3979,-3.4301,-3.3907,-3.5114,-3.5816,-3.6281,-3.661,-3.7337,-3.8037,-3.8202,-3.8202,-3.8202,-3.8173,-3.8086,-3.768,-3.7827,-3.8062,-3.8442,-3.8782,-3.9133,-3.9722,-4.027,-4.0805,-4.1591,-4.2506,-4.3235,-4.3568,-4.3585,-4.3645,-4.3789,-4.4202,-4.4729,-4.525,-4.5614,-4.62,-4.6731,-4.6888,-4.6998,-4.6998,-4.6998,-4.6998,-4.6998,-4.6998,-4.6998,-4.6998,-4.6998,-4.6998,-4.6998,-4.6998,-4.6998,-4.6998,-4.6998,-4.6998,-4.6998,-4.6998,-4.6998,-4.6998,-4.6998,-4.6998,-4.6998,-4.6998,-4.6998,-4.6998,-4.6998,-4.698,-4.698,-4.7043,-4.7088,-4.7088,-4.7133,-4.7205,-4.7338,-4.7338,-4.7294,-4.2054,-4.1421,-4.0884,-4.0702,-4.0702,-4.0773,-4.0845,-4.1001,-4.1085,-4.0301,-3.9122,-3.8537,-3.716,-3.5444,-3.411,-3.3728,-3.3684,-3.3696,-3.3935,-3.4198,-3.4311,-3.4261,-3.4186,-3.4236,-3.4248,-3.4324,-3.4161,-3.4211,-3.4236,-3.4286,-3.4311,-3.4474,-3.3935,-3.3734,-3.3596,-3.3407,-3.3181,-3.3169,-3.3144,-3.3278,-3.3654,-3.462,-3.4855,-3.5264,-3.599,-3.6936,-3.6936,-3.7246,-3.772,-3.8037,-3.8202,-3.8144,-3.797,-3.7868,-3.7593,-3.7273,-3.7332,-3.7813,-3.815,-3.8487,-3.92,-3.9999,-4.0873,-4.1672,-4.2585,-4.3372,-4.3645,-4.3645,-4.3645,-4.3645,-4.373,-4.4356,-4.4618,-4.5144,-4.5767,-4.6346,-4.6824,-4.6934,-4.698,-4.6998,-4.6998,-4.6998,-4.6998,-4.6998,-4.6998,-4.6998,-4.6998,-4.6998,-4.6998,-4.6998,-4.6998,-4.6998,-4.6998,-4.6998,-4.6998,-4.6998,-4.6998,-4.6998,-4.6998,-4.6998,-4.6998,-4.6998,-4.6998,-4.6998,-4.6998,-4.6998,-4.698,-4.6998,-4.6998,-4.7043,-4.7088,-4.7088,-4.7133,-4.7133,-4.7178,-4.1652,-4.1057,-4.0787,-4.0702,-4.0688,-4.093,-4.1001,-4.1085,-4.1437,-4.0589,-3.8749,-3.7113,-3.6008,-3.5155,-3.4406,-3.3692,-3.3169,-3.3131,-3.3269,-3.3294,-3.3206,-3.337,-3.342,-3.342,-3.3332,-3.3332,-3.3445,-3.3395,-3.3257,-3.3483,-3.3633,-3.3822,-3.3495,-3.3244,-3.3169,-3.3156,-3.324,-3.324,-3.3338,-3.3738,-3.4147,-3.4703,-3.5019,-3.5642,-3.636,-3.6922,-3.6936,-3.7567,-3.7962,-3.8202,-3.8202,-3.8043,-3.7767,-3.7564,-3.723,-3.6954,-3.7084,-3.7521,-3.7871,-3.8176,-3.8882,-4.0163,-4.1459,-4.2585,-4.3235,-4.3509,-4.3645,-4.3645,-4.3645,-4.3645,-4.3628,-4.3789,-4.4316,-4.4947,-4.5631,-4.6151,-4.6572,-4.687,-4.698,-4.698,-4.6998,-4.6998,-4.6998,-4.6998,-4.6998,-4.6998,-4.6998,-4.6998,-4.6998,-4.6998,-4.6998,-4.6998,-4.6998,-4.6998,-4.6998,-4.6998,-4.6998,-4.6998,-4.6998,-4.6998,-4.6998,-4.6998,-4.6998,-4.6998,-4.6998,-4.6998,-4.6934,-4.6842,-4.6795,-4.6998,-4.7043,-4.7088,-4.7088,-4.7133,-4.7133,-4.1696,-4.1213,-4.0873,-4.0773,-4.093,-4.1001,-4.117,-4.1437,-4.1604,-4.0603,-3.8751,-3.6415,-3.5053,-3.4601,-3.3977,-3.3496,-3.3068,-3.3081,-3.3081,-3.3081,-3.3093,-3.3081,-3.3081,-3.3081,-3.3093,-3.3081,-3.3081,-3.3081,-3.3119,-3.3081,-3.3156,-3.3257,-3.3268,-3.3131,-3.3081,-3.3167,-3.3411,-3.3823,-3.3907,-3.4301,-3.5074,-3.5736,-3.6056,-3.6373,-3.7246,-3.7644,-3.781,-3.8037,-3.8202,-3.8202,-3.8202,-3.7999,-3.7738,-3.7476,-3.7143,-3.6823,-3.7083,-3.7329,-3.7767,-3.8068,-3.8792,-4.0357,-4.1995,-4.3295,-4.3568,-4.3628,-4.3645,-4.3645,-4.3645,-4.3645,-4.3628,-4.3948,-4.4502,-4.4964,-4.5442,-4.592,-4.6266,-4.6572,-4.6824,-4.6842,-4.6934,-4.6998,-4.6998,-4.6998,-4.6998,-4.6998,-4.6998,-4.6998,-4.6998,-4.6998,-4.6998,-4.6998,-4.6998,-4.6998,-4.6998,-4.6998,-4.6998,-4.6998,-4.6998,-4.6998,-4.6998,-4.6998,-4.6998,-4.6998,-4.6952,-4.6888,-4.6795,-4.659,-4.659,-4.6778,-4.6934,-4.7025,-4.707,-4.7025,-4.707,-4.1696,-4.1424,-4.1043,-4.0944,-4.11,-4.11,-4.1353,-4.1702,-4.18,-4.0735,-3.8751,-3.6465,-3.5037,-3.4491,-3.4134,-3.3484,-3.324,-3.3081,-3.3081,-3.3081,-3.3081,-3.3081,-3.3081,-3.3081,-3.3081,-3.3081,-3.3081,-3.3081,-3.3081,-3.3081,-3.3364,-3.3449,-3.324,-3.3167,-3.3167,-3.3411,-3.3823,-3.423,-3.4703,-3.5182,-3.5949,-3.6517,-3.7092,-3.7246,-3.7872,-3.8052,-3.8127,-3.8202,-3.8202,-3.8202,-3.8173,-3.8086,-3.7839,-3.7564,-3.7244,-3.7056,-3.7011,-3.7227,-3.775,-3.8616,-3.9314,-4.0727,-4.2153,-4.3141,-4.3568,-4.3645,-4.3645,-4.3645,-4.3645,-4.3628,-4.3611,-4.3889,-4.4121,-4.4412,-4.4981,-4.5459,-4.5819,-4.6168,-4.6477,-4.6637,-4.6795,-4.698,-4.6998,-4.6998,-4.6998,-4.6998,-4.6998,-4.6998,-4.6998,-4.6998,-4.6998,-4.6998,-4.6998,-4.6998,-4.6998,-4.6934,-4.6934,-4.6998,-4.6998,-4.6998,-4.6998,-4.6863,-4.688,-4.6998,-4.6934,-4.6795,-4.6531,-4.6242,-4.6348,-4.6602,-4.6595,-4.6507,-4.6684,-4.6619,-4.6824,-4.1564,-4.141,-4.1396,-4.1396,-4.1396,-4.1381,-4.1549,-4.1702,-4.1717,-4.075,-3.8807,-3.7348,-3.5883,-3.4761,-3.469,-3.4204,-3.3398,-3.3167,-3.3167,-3.3253,-3.3167,-3.3167,-3.3081,-3.3081,-3.3081,-3.3081,-3.3167,-3.3167,-3.3253,-3.3167,-3.3496,-3.3823,-3.3496,-3.3081,-3.3167,-3.3992,-3.4397,-3.4551,-3.5251,-3.6042,-3.6688,-3.7,-3.7491,-3.7886,-3.8113,-3.8202,-3.8202,-3.8202,-3.8202,-3.8202,-3.8202,-3.8014,-3.7636,-3.7447,-3.7114,-3.6693,-3.7244,-3.7492,-3.7768,-3.9415,-4.0436,-4.1144,-4.2359,-4.3096,-4.3509,-4.3645,-4.3645,-4.3645,-4.3645,-4.3645,-4.3628,-4.3671,-4.3772,-4.4105,-4.4652,-4.5035,-4.5442,-4.5751,-4.6052,-4.6429,-4.6731,-4.698,-4.6998,-4.6998,-4.6998,-4.6998,-4.6998,-4.6998,-4.6998,-4.6998,-4.6998,-4.6888,-4.6888,-4.6795,-4.6731,-4.6824,-4.6824,-4.6934,-4.6717,-4.6354,-4.6247,-4.6041,-4.6258,-4.6692,-4.6276,-4.5605,-4.5705,-4.5823,-4.5431,-4.5,-4.5663,-4.5848,-4.6059,-4.5989,-4.587,-4.18,-4.1829,-4.148,-4.1578,-4.1829,-4.1647,-4.1717,-4.1717,-4.0746,-3.969,-3.8575,-3.6678,-3.5297,-3.453,-3.4217,-3.4121,-3.3966,-3.324,-3.324,-3.3823,-3.3411,-3.3167,-3.3167,-3.3167,-3.3167,-3.3081,-3.3167,-3.3496,-3.3992,-3.3496,-3.3654,-3.3979,-3.3979,-3.3167,-3.3484,-3.4288,-3.5156,-3.5318,-3.6029,-3.6844,-3.763,-3.772,-3.7886,-3.8202,-3.8202,-3.8202,-3.8202,-3.8202,-3.8202,-3.8202,-3.8202,-3.8072,-3.7796,-3.7636,-3.7404,-3.7288,-3.7754,-3.7915,-3.8656,-3.9923,-4.0593,-4.1501,-4.2388,-4.3157,-4.3568,-4.3585,-4.3645,-4.3645,-4.3645,-4.3645,-4.3628,-4.3628,-4.3789,-4.4236,-4.4669,-4.4927,-4.5214,-4.5407,-4.5665,-4.607,-4.6429,-4.6684,-4.6795,-4.6572,-4.6525,-4.6684,-4.6666,-4.6888,-4.6998,-4.6998,-4.6998,-4.6842,-4.6731,-4.6542,-4.6394,-4.6046,-4.5796,-4.5747,-4.5373,-4.498,-4.4942,-4.508,-4.4822,-4.4769,-4.455,-4.4314,-4.415,-4.3967,-4.334,-4.3199,-4.37,-4.4245,-4.4448,-4.4275,-4.4046,-4.1897,-4.1897,-4.1745,-4.1745,-4.1912,-4.1785,-4.1883,-4.1731,-4.0073,-3.9236,-3.8809,-3.6737,-3.5529,-3.5216,-3.4772,-3.4288,-3.4772,-3.3979,-3.3654,-3.4314,-3.3894,-3.3484,-3.324,-3.3411,-3.3654,-3.3496,-3.3326,-3.3569,-3.469,-3.3979,-3.4134,-3.469,-3.4772,-3.4759,-3.4759,-3.5074,-3.5695,-3.6108,-3.6936,-3.7567,-3.8037,-3.8127,-3.8127,-3.8202,-3.8202,-3.8202,-3.8202,-3.8202,-3.8202,-3.8202,-3.8202,-3.8202,-3.8057,-3.7955,-3.7825,-3.7941,-3.8104,-3.8486,-3.95,-4.0209,-4.099,-4.1834,-4.27,-4.3202,-4.3509,-4.3585,-4.3645,-4.3645,-4.3645,-4.3645,-4.3645,-4.3645,-4.3805,-4.4236,-4.4293,-4.4541,-4.458,-4.4783,-4.5108,-4.5546,-4.592,-4.6168,-4.6381,-4.6168,-4.5953,-4.6151,-4.6346,-4.6602,-4.6788,-4.6707,-4.6607,-4.6413,-4.598,-4.5527,-4.5155,-4.4776,-4.4609,-4.4544,-4.413,-4.37,-4.3817,-4.3976,-4.3432,-4.3042,-4.3314,-4.3281,-4.2416,-4.1933,-4.1741,-4.1466,-4.137,-4.1971,-4.262,-4.2705,-4.2602,-4.1995,-4.1785,-4.1995,-4.1995,-4.1785,-4.1785,-4.1883,-4.1897,-4.0059,-3.9521,-3.9866,-3.7882,-3.6687,-3.6619,-3.661,-3.6122,-3.5386,-3.462,-3.4634,-3.4481,-3.4384,-3.3894,-3.3738,-3.3907,-3.4076,-3.3992,-3.3894,-3.4121,-3.5305,-3.4841,-3.4841,-3.5722,-3.6425,-3.6267,-3.5949,-3.5869,-3.6267,-3.6766,-3.7491,-3.7962,-3.8202,-3.8202,-3.8202,-3.8202,-3.8202,-3.8202,-3.8202,-3.8202,-3.8202,-3.8202,-3.8202,-3.8202,-3.8188,-3.8202,-3.8202,-3.8277,-3.8323,-3.9045,-3.9819,-4.0447,-4.1095,-4.1693,-4.222,-4.2896,-4.3372,-4.3568,-4.3568,-4.3568,-4.3645,-4.3645,-4.3645,-4.3645,-4.3645,-4.3747,-4.3747,-4.3789,-4.3848,-4.4121,-4.4429,-4.4801,-4.5125,-4.5372,-4.558,-4.5477,-4.5372,-4.5683,-4.5833,-4.5856,-4.5985,-4.5884,-4.5782,-4.5614,-4.5105,-4.4284,-4.3889,-4.3546,-4.3304,-4.3195,-4.2945,-4.2586,-4.279,-4.2669,-4.209,-4.1937,-4.2532,-4.2312,-4.1305,-4.0757,-4.0622,-4.0333,-4.0194,-4.0467,-4.1339,-4.1645,-4.1714,-4.2092,-4.1995,-4.2092,-4.2092,-4.1995,-4.198,-4.1995,-4.1854,-4.0294,-3.9756,-3.9996,-3.7716,-3.6648,-3.5976,-3.5935,-3.5855,-3.548,-3.5006,-3.5426,-3.5345,-3.5032,-3.4468,-3.423,-3.4397,-3.4397,-3.4397,-3.4384,-3.4607,-3.5386,-3.5318,-3.5722,-3.6517,-3.6752,-3.683,-3.7,-3.6844,-3.6844,-3.7092,-3.781,-3.8127,-3.8202,-3.8202,-3.8202,-3.8202,-3.8202,-3.8202,-3.8202,-3.8202,-3.8202,-3.8202,-3.8202,-3.8202,-3.8202,-3.8202,-3.8202,-3.8202,-3.8337,-3.8694,-3.9606,-3.9945,-4.0401,-4.1198,-4.1528,-4.2348,-4.2974,-4.3449,-4.3432,-4.3568,-4.3585,-4.3645,-4.3645,-4.3645,-4.3645,-4.3645,-4.3645,-4.3645,-4.3687,-4.3805,-4.4121,-4.4333,-4.4708,-4.4801,-4.4947,-4.4855,-4.4855,-4.5108,-4.5269,-4.5165,-4.5111,-4.499,-4.4815,-4.4645,-4.3872,-4.2995,-4.263,-4.2301,-4.2068,-4.1837,-4.1637,-4.1388,-4.1233,-4.1047,-4.0606,-4.0676,-4.112,-4.0779,-3.9974,-3.9787,-3.9924,-3.9771,-3.9631,-3.9748,-4.0021,-4.0428,-4.0615,-4.2092,-4.2092,-4.2092,-4.2092,-4.2092,-4.2092,-4.1961,-4.1493,-4.0319,-3.9875,-3.9823,-3.7983,-3.6874,-3.6822,-3.6752,-3.6752,-3.6674,-3.5976,-3.607,-3.6149,-3.583,-3.5345,-3.5101,-3.5182,-3.5507,-3.5345,-3.5251,-3.5561,-3.6188,-3.6674,-3.7,-3.7323,-3.6752,-3.7323,-3.772,-3.7644,-3.7491,-3.7644,-3.7872,-3.8127,-3.8202,-3.8202,-3.8202,-3.8202,-3.8202,-3.8202,-3.8202,-3.8202,-3.8202,-3.8202,-3.8202,-3.8202,-3.8202,-3.8202,-3.8277,-3.8277,-3.8366,-3.8634,-3.919,-3.9677,-3.9984,-4.0523,-4.1049,-4.2013,-4.2569,-4.2974,-4.3235,-4.3492,-4.3568,-4.3645,-4.3645,-4.3645,-4.3645,-4.3645,-4.3645,-4.3645,-4.3645,-4.3645,-4.3805,-4.4064,-4.4236,-4.4333,-4.4333,-4.4236,-4.4179,-4.4316,-4.4277,-4.4079,-4.4065,-4.3987,-4.3733,-4.3442,-4.2477,-4.1527,-4.1331,-4.1159,-4.0905,-4.0683,-4.0384,-4.0154,-3.9852,-3.9856,-3.9887,-3.9701,-3.9565,-3.9375,-3.9462,-3.9375,-3.9462,-3.9288,-3.9288,-3.9441,-3.9578,-3.9681,-3.9714,-4.2092,-4.2092,-4.2092,-4.2092,-4.2092,-4.202,-4.1657,-4.101,-4.0075,-3.9747,-3.9679,-3.8473,-3.7756,-3.7548,-3.7644,-3.772,-3.74,-3.678,-3.661,-3.6936,-3.6688,-3.6201,-3.6042,-3.6452,-3.6373,-3.6452,-3.6439,-3.636,-3.7644,-3.772,-3.7491,-3.8202,-3.8037,-3.8127,-3.8052,-3.8127,-3.7962,-3.7962,-3.8037,-3.8202,-3.8202,-3.8202,-3.8202,-3.8202,-3.8202,-3.8202,-3.8202,-3.8202,-3.8202,-3.8202,-3.8202,-3.8202,-3.8202,-3.8202,-3.8292,-3.8366,-3.8366,-3.8501,-3.8767,-3.9175,-3.9478,-4.0069,-4.093,-4.1346,-4.1625,-4.2632,-4.3096,-4.3372,-4.3509,-4.3432,-4.3432,-4.3509,-4.3509,-4.3568,-4.3585,-4.3585,-4.3645,-4.3645,-4.3687,-4.3848,-4.3848,-4.3948,-4.3964,-4.3848,-4.3906,-4.3789,-4.349,-4.3248,-4.2896,-4.2896,-4.2584,-4.2219,-4.1362,-4.0554,-4.0346,-4.0197,-3.9777,-3.9491,-3.9421,-3.9437,-3.9553,-3.9454,-3.9305,-3.9288,-3.9288,-3.9288,-3.9342,-3.9288,-3.9288,-3.9288,-3.9288,-3.9288,-3.9288,-3.9288,-3.9288,-4.2092,-4.2092,-4.2092,-4.2092,-4.202,-4.1541,-4.1265,-4.0989,-3.9794,-3.9361,-3.9228,-3.8525,-3.7767,-3.7519,-3.7962,-3.7962,-3.7337,-3.7337,-3.74,-3.74,-3.7246,-3.7,-3.661,-3.6922,-3.7014,-3.6858,-3.6844,-3.7078,-3.7886,-3.781,-3.7644,-3.8127,-3.8202,-3.8202,-3.8202,-3.8202,-3.8202,-3.8202,-3.8202,-3.8202,-3.8202,-3.8202,-3.8202,-3.8202,-3.8202,-3.8202,-3.8202,-3.8202,-3.8202,-3.8202,-3.8202,-3.8202,-3.8202,-3.8202,-3.8202,-3.8263,-3.8277,-3.8352,-3.8427,-3.862,-3.8767,-3.8855,-3.932,-3.9662,-4.0554,-4.2029,-4.2974,-4.3174,-4.3372,-4.3295,-4.3295,-4.3372,-4.3492,-4.3509,-4.3585,-4.3585,-4.3645,-4.3645,-4.3645,-4.3645,-4.3645,-4.3585,-4.3585,-4.3585,-4.3645,-4.338,-4.2932,-4.2543,-4.1879,-4.1655,-4.1376,-4.0946,-4.0308,-3.9657,-3.9553,-3.9553,-3.9355,-3.9288,-3.9338,-3.9322,-3.9288,-3.9288,-3.9288,-3.9288,-3.9288,-3.9288,-3.9288,-3.9288,-3.9288,-3.9288,-3.9288,-3.9288,-3.9288,-3.9288,-3.9288,-4.2092,-4.2092,-4.2092,-4.1918,-4.1613,-4.1236,-4.08,-4.0191,-3.9494,-3.903,-3.8754,-3.8376,-3.7872,-3.7491,-3.8037,-3.8052,-3.7491,-3.7491,-3.772,-3.7872,-3.781,-3.7644,-3.7491,-3.7414,-3.7567,-3.7491,-3.7477,-3.772,-3.8037,-3.7962,-3.7886,-3.8202,-3.8202,-3.8202,-3.8202,-3.8202,-3.8202,-3.8202,-3.8202,-3.8202,-3.8202,-3.8202,-3.8202,-3.8202,-3.8202,-3.8202,-3.8202,-3.8202,-3.8202,-3.8202,-3.8202,-3.8202,-3.8202,-3.8202,-3.8202,-3.8202,-3.8202,-3.8202,-3.8202,-3.8202,-3.8188,-3.8352,-3.8767,-3.9591,-4.05,-4.1917,-4.2364,-4.2632,-4.3113,-4.3157,-4.3295,-4.3432,-4.3492,-4.3568,-4.3568,-4.3585,-4.3645,-4.3645,-4.3645,-4.3645,-4.3568,-4.3568,-4.3568,-4.3568,-4.3535,-4.336,-4.2848,-4.2204,-4.1491,-4.0713,-4.0315,-3.9984,-3.9574,-3.9375,-3.9388,-3.9388,-3.9322,-3.9288,-3.9288,-3.9288,-3.9288,-3.9288,-3.9288,-3.9288,-3.9288,-3.9288,-3.9288,-3.9288,-3.9288,-3.9288,-3.9288,-3.9288,-3.9288,-3.9288,-3.9288,-4.2092,-4.2092,-4.199,-4.1642,-4.1105,-4.0887,-4.0234,-3.9334,-3.9102,-3.8754,-3.8318,-3.8231,-3.8202,-3.8202,-3.8202,-3.8202,-3.8127,-3.7962,-3.8113,-3.8188,-3.8127,-3.7962,-3.8037,-3.8127,-3.8052,-3.8052,-3.8037,-3.8037,-3.8202,-3.8052,-3.8052,-3.8202,-3.8202,-3.8202,-3.8202,-3.8202,-3.8202,-3.8202,-3.8202,-3.8202,-3.8202,-3.8202,-3.8202,-3.8202,-3.8202,-3.8202,-3.8202,-3.8202,-3.8202,-3.8202,-3.8202,-3.8202,-3.8202,-3.8202,-3.8202,-3.8202,-3.8202,-3.8202,-3.8202,-3.8202,-3.8277,-3.8501,-3.9175,-3.9788,-4.0569,-4.1178,-4.1559,-4.2173,-4.2648,-4.3052,-4.319,-4.3388,-4.3449,-4.3492,-4.3509,-4.3568,-4.3568,-4.3568,-4.3568,-4.3568,-4.3509,-4.3492,-4.3552,-4.3552,-4.3376,-4.3201,-4.2732,-4.2063,-4.1342,-4.0514,-3.9885,-3.9686,-3.9421,-3.9288,-3.9288,-3.9288,-3.9288,-3.9288,-3.9288,-3.9288,-3.9288,-3.9288,-3.9288,-3.9288,-3.9288,-3.9288,-3.9288,-3.9288,-3.9288,-3.9288,-3.9288,-3.9288,-3.9288,-3.9288,-3.9288,-4.2092,-4.2049,-4.1526,-4.1192,-4.0931,-4.0031,-3.9407,-3.9146,-3.8609,-3.8289,-3.8231,-3.8202,-3.8202,-3.8202,-3.8202,-3.8202,-3.8202,-3.8202,-3.8202,-3.8202,-3.8202,-3.8202,-3.8202,-3.8202,-3.8202,-3.8202,-3.8202,-3.8202,-3.8202,-3.8202,-3.8202,-3.8202,-3.8202,-3.8202,-3.8202,-3.8202,-3.8202,-3.8202,-3.8202,-3.8202,-3.8202,-3.8202,-3.8202,-3.8202,-3.8202,-3.8202,-3.8202,-3.8202,-3.8202,-3.8202,-3.8202,-3.8202,-3.8202,-3.8202,-3.8202,-3.8202,-3.8202,-3.8202,-3.8202,-3.8202,-3.8277,-3.8277,-3.8752,-3.8957,-3.9733,-4.0347,-4.0894,-4.1591,-4.2126,-4.2743,-4.2945,-4.3251,-4.3372,-4.3295,-4.3295,-4.3372,-4.3432,-4.3432,-4.3432,-4.3372,-4.3295,-4.3355,-4.3492,-4.3376,-4.3162,-4.2789,-4.2138,-4.1468,-4.0806,-4.0111,-3.9487,-3.9388,-3.9235,-3.9288,-3.9288,-3.9288,-3.9288,-3.9288,-3.9288,-3.9288,-3.9288,-3.9288,-3.9288,-3.9288,-3.9288,-3.9288,-3.9288,-3.9288,-3.9288,-3.9288,-3.9288,-3.9288,-3.9288,-3.9288,-3.9288]}]]